Darstellungsparameter: Aktuell verwendete Einstellungen:
Skalierung der Graphiken ... ?
xyx+y,   Skalierungsfaktor:      Skalierung: Modus: x, Faktor: 1
Darstellungszeitraum ... ?
Vom - - bis: - -   Zeitraum: 25.08.2018 - 07.09.2018
Min/Max/Avg-Anzeige ... ?
Zeige MMA aktuell
Zeige MMA Monat
Zeige MMA alles
Zeige --A aktuell
Zeige --A Monat
Zeige --A alles
Keine MMA-Anzeige
MMA:
Keine MMA-Graphiken
MMA-Basis: 25.08.2018 - 07.09.2018
Quicknavigation für Darstellung... ?
Tage:      1T, 2T, 3T, 5T -1T -2T -3T -5T +1T +2T +3T +5T
Wochen: 1W, 2W, 3W -1W -2W -3W +1W +2W +3W
Monate: 1M, 3M, 6M -1M -3M -6M +1M +3M +6M
Jahre:    1J, 3J, 5J, 10J -1J -3J -5J -10J +1J +3J +5J +10J
Nutze für die Darstellung ... ?
Originaldaten oder Mittelwerte auf ...
Stundenbasis Tagesbasis Wochenbasis
Monatsbasis Jahresbasis      Datenbasis: Original-Daten
Darstellen als:
Statistik (Auto) Statistik J:M      Darstellung:
Zur Graphik,    zurück zur Übersicht aller Sensoren.
 
Tabellarische Datenbersicht: ?
 
Sensor: Nr:Datum:Temp:Feuchte:Taupunkt:
Aussen-T/F 1 25-08-2018 00:00:00 14.6 C 63 % 7.64 C
2 25-08-2018 00:05:00 14.6 C 63 % 7.64 C
3 25-08-2018 00:10:00 14.5 C 64 % 7.78 C
4 25-08-2018 00:15:00 14.4 C 64 % 7.68 C
5 25-08-2018 00:20:00 14.4 C 64 % 7.68 C
6 25-08-2018 00:25:00 14.4 C 64 % 7.68 C
7 25-08-2018 00:30:00 14.3 C 64 % 7.59 C
8 25-08-2018 00:35:00 14.3 C 64 % 7.59 C
9 25-08-2018 00:40:00 14.3 C 65 % 7.82 C
10 25-08-2018 00:45:00 14.3 C 65 % 7.82 C
11 25-08-2018 00:50:00 14.3 C 65 % 7.82 C
12 25-08-2018 00:55:00 14.2 C 65 % 7.72 C
13 25-08-2018 01:00:00 14.2 C 65 % 7.72 C
14 25-08-2018 01:05:00 14.2 C 66 % 7.95 C
15 25-08-2018 01:10:00 14.2 C 66 % 7.95 C
16 25-08-2018 01:15:00 14.2 C 65 % 7.72 C
17 25-08-2018 01:20:00 14.1 C 65 % 7.63 C
18 25-08-2018 01:25:00 14.1 C 66 % 7.85 C
19 25-08-2018 01:30:00 14.1 C 66 % 7.85 C
20 25-08-2018 01:35:00 14.1 C 66 % 7.85 C
21 25-08-2018 01:40:00 14.1 C 66 % 7.85 C
22 25-08-2018 01:45:00 14.1 C 66 % 7.85 C
23 25-08-2018 01:50:00 14.2 C 67 % 8.17 C
24 25-08-2018 01:55:00 14.2 C 66 % 7.95 C
25 25-08-2018 02:00:00 14.2 C 66 % 7.95 C
Sensor: Nr:Datum:Temp:Feuchte:Taupunkt:
Aussen-T/F 26 25-08-2018 02:05:00 14.2 C 67 % 8.17 C
27 25-08-2018 02:10:00 14.2 C 67 % 8.17 C
28 25-08-2018 02:15:00 14.2 C 67 % 8.17 C
29 25-08-2018 02:20:00 14.3 C 68 % 8.48 C
30 25-08-2018 02:25:00 14.3 C 66 % 8.04 C
31 25-08-2018 02:30:00 14.3 C 65 % 7.82 C
32 25-08-2018 02:35:00 14.4 C 65 % 7.91 C
33 25-08-2018 02:40:00 14.6 C 65 % 8.1 C
34 25-08-2018 02:45:00 14.8 C 64 % 8.06 C
35 25-08-2018 02:50:00 14.9 C 64 % 8.16 C
36 25-08-2018 02:55:00 15.1 C 64 % 8.35 C
37 25-08-2018 03:00:00 15.1 C 64 % 8.35 C
38 25-08-2018 03:05:00 15.1 C 64 % 8.35 C
39 25-08-2018 03:10:00 15.1 C 65 % 8.58 C
40 25-08-2018 03:15:00 15.1 C 65 % 8.58 C
41 25-08-2018 03:20:00 15.1 C 66 % 8.8 C
42 25-08-2018 03:25:00 14.9 C 67 % 8.83 C
43 25-08-2018 03:30:00 14.8 C 67 % 8.74 C
44 25-08-2018 03:35:00 14.7 C 68 % 8.86 C
45 25-08-2018 03:40:00 14.6 C 69 % 8.98 C
46 25-08-2018 03:45:00 14.5 C 69 % 8.89 C
47 25-08-2018 03:50:00 14.3 C 69 % 8.7 C
48 25-08-2018 03:55:00 14.2 C 69 % 8.6 C
49 25-08-2018 04:00:00 14.1 C 70 % 8.72 C
50 25-08-2018 04:05:00 13.9 C 71 % 8.73 C
Sensor: Nr:Datum:Temp:Feuchte:Taupunkt:
Aussen-T/F 51 25-08-2018 04:10:00 13.8 C 70 % 8.43 C
52 25-08-2018 04:15:00 13.8 C 72 % 8.85 C
53 25-08-2018 04:20:00 13.7 C 72 % 8.75 C
54 25-08-2018 04:25:00 13.7 C 73 % 8.95 C
55 25-08-2018 04:30:00 13.7 C 73 % 8.95 C
56 25-08-2018 04:35:00 13.7 C 74 % 9.15 C
57 25-08-2018 04:40:00 13.7 C 74 % 9.15 C
58 25-08-2018 04:45:00 13.6 C 74 % 9.06 C
59 25-08-2018 04:50:00 13.6 C 74 % 9.06 C
60 25-08-2018 04:55:00 13.6 C 74 % 9.06 C
61 25-08-2018 05:00:00 13.6 C 74 % 9.06 C
62 25-08-2018 05:05:00 13.6 C 74 % 9.06 C
63 25-08-2018 05:10:00 13.7 C 75 % 9.35 C
64 25-08-2018 05:15:00 13.7 C 74 % 9.15 C
65 25-08-2018 05:20:00 13.8 C 74 % 9.25 C
66 25-08-2018 05:25:00 13.9 C 74 % 9.35 C
67 25-08-2018 05:30:00 13.9 C 73 % 9.15 C
68 25-08-2018 05:35:00 14 C 74 % 9.44 C
69 25-08-2018 05:40:00 14 C 74 % 9.44 C
70 25-08-2018 05:45:00 14 C 74 % 9.44 C
71 25-08-2018 05:50:00 14.1 C 73 % 9.34 C
72 25-08-2018 05:55:00 14.1 C 73 % 9.34 C
73 25-08-2018 06:00:00 14.2 C 73 % 9.43 C
74 25-08-2018 06:05:00 14.2 C 73 % 9.43 C
75 25-08-2018 06:10:00 14.3 C 73 % 9.53 C
Sensor: Nr:Datum:Temp:Feuchte:Taupunkt:
Aussen-T/F 76 25-08-2018 06:15:00 14.3 C 73 % 9.53 C
77 25-08-2018 06:20:00 14.3 C 72 % 9.33 C
78 25-08-2018 06:25:00 14.4 C 72 % 9.42 C
79 25-08-2018 06:30:00 14.4 C 74 % 9.83 C
80 25-08-2018 06:35:00 14.4 C 76 % 10.23 C
81 25-08-2018 06:40:00 14.3 C 76 % 10.13 C
82 25-08-2018 06:45:00 14.2 C 76 % 10.03 C
83 25-08-2018 06:50:00 14.1 C 76 % 9.94 C
84 25-08-2018 06:55:00 14 C 76 % 9.84 C
85 25-08-2018 07:00:00 13.9 C 77 % 9.94 C
86 25-08-2018 07:05:00 13.9 C 77 % 9.94 C
87 25-08-2018 07:10:00 13.9 C 76 % 9.74 C
88 25-08-2018 07:15:00 13.9 C 76 % 9.74 C
89 25-08-2018 07:20:00 13.9 C 76 % 9.74 C
90 25-08-2018 07:25:00 14 C 76 % 9.84 C
91 25-08-2018 07:30:00 14.1 C 77 % 10.13 C
92 25-08-2018 07:35:00 14.1 C 80 % 10.71 C
93 25-08-2018 07:40:00 14 C 81 % 10.79 C
94 25-08-2018 07:45:00 13.8 C 82 % 10.78 C
95 25-08-2018 07:50:00 13.6 C 83 % 10.77 C
96 25-08-2018 07:55:00 13.4 C 84 % 10.75 C
97 25-08-2018 08:00:00 13.3 C 85 % 10.83 C
98 25-08-2018 08:05:00 13.3 C 86 % 11.01 C
99 25-08-2018 08:10:00 13.2 C 86 % 10.91 C
100 25-08-2018 08:15:00 13.2 C 85 % 10.74 C
Sensor: Nr:Datum:Temp:Feuchte:Taupunkt:
Aussen-T/F 101 25-08-2018 08:20:00 13.1 C 85 % 10.64 C
102 25-08-2018 08:25:00 13.2 C 85 % 10.74 C
103 25-08-2018 08:30:00 13.2 C 85 % 10.74 C
104 25-08-2018 08:35:00 13.3 C 85 % 10.83 C
105 25-08-2018 08:40:00 13.3 C 85 % 10.83 C
106 25-08-2018 08:45:00 13.4 C 85 % 10.93 C
107 25-08-2018 08:50:00 13.4 C 85 % 10.93 C
108 25-08-2018 08:55:00 13.4 C 84 % 10.75 C
109 25-08-2018 09:00:00 13.6 C 84 % 10.95 C
110 25-08-2018 09:05:00 13.6 C 85 % 11.13 C
111 25-08-2018 09:10:00 13.6 C 85 % 11.13 C
112 25-08-2018 09:15:00 13.6 C 86 % 11.3 C
113 25-08-2018 09:20:00 13.6 C 87 % 11.48 C
114 25-08-2018 09:25:00 13.5 C 87 % 11.38 C
115 25-08-2018 09:30:00 13.4 C 87 % 11.28 C
116 25-08-2018 09:35:00 13.4 C 87 % 11.28 C
117 25-08-2018 09:40:00 13.4 C 87 % 11.28 C
118 25-08-2018 09:45:00 13.4 C 88 % 11.45 C
119 25-08-2018 09:50:00 13.5 C 88 % 11.55 C
120 25-08-2018 09:55:00 13.5 C 88 % 11.55 C
121 25-08-2018 10:00:00 13.6 C 88 % 11.65 C
122 25-08-2018 10:05:00 13.6 C 87 % 11.48 C
123 25-08-2018 10:10:00 13.7 C 86 % 11.4 C
124 25-08-2018 10:15:00 13.7 C 84 % 11.05 C
125 25-08-2018 10:20:00 13.7 C 82 % 10.69 C
Sensor: Nr:Datum:Temp:Feuchte:Taupunkt:
Aussen-T/F 126 25-08-2018 10:25:00 13.7 C 81 % 10.5 C
127 25-08-2018 10:30:00 13.8 C 80 % 10.41 C
128 25-08-2018 10:35:00 13.9 C 79 % 10.32 C
129 25-08-2018 10:40:00 13.9 C 77 % 9.94 C
130 25-08-2018 10:45:00 13.9 C 74 % 9.35 C
131 25-08-2018 10:50:00 13.9 C 74 % 9.35 C
132 25-08-2018 10:55:00 14 C 72 % 9.04 C
133 25-08-2018 11:00:00 14.2 C 73 % 9.43 C
134 25-08-2018 11:05:00 14.3 C 71 % 9.12 C
135 25-08-2018 11:10:00 14.3 C 71 % 9.12 C
136 25-08-2018 11:15:00 14.4 C 70 % 9 C
137 25-08-2018 11:20:00 14.6 C 70 % 9.2 C
138 25-08-2018 11:25:00 14.9 C 70 % 9.48 C
139 25-08-2018 11:30:00 15.1 C 69 % 9.46 C
140 25-08-2018 11:35:00 15.2 C 68 % 9.34 C
141 25-08-2018 11:40:00 15.2 C 68 % 9.34 C
142 25-08-2018 11:45:00 15.2 C 67 % 9.12 C
143 25-08-2018 11:50:00 15.2 C 66 % 8.9 C
144 25-08-2018 11:55:00 15.3 C 66 % 8.99 C
145 25-08-2018 12:00:00 15.4 C 66 % 9.09 C
146 25-08-2018 12:05:00 15.4 C 67 % 9.31 C
147 25-08-2018 12:10:00 15.4 C 66 % 9.09 C
148 25-08-2018 12:15:00 15.7 C 64 % 8.92 C
149 25-08-2018 12:20:00 15.8 C 62 % 8.54 C
150 25-08-2018 12:25:00 16 C 60 % 8.25 C
Sensor: Nr:Datum:Temp:Feuchte:Taupunkt:
Aussen-T/F 151 25-08-2018 12:30:00 16.2 C 60 % 8.43 C
152 25-08-2018 12:35:00 16.4 C 60 % 8.62 C
153 25-08-2018 12:40:00 16.4 C 59 % 8.38 C
154 25-08-2018 12:45:00 16.5 C 59 % 8.47 C
155 25-08-2018 12:50:00 16.6 C 58 % 8.31 C
156 25-08-2018 12:55:00 16.7 C 58 % 8.4 C
157 25-08-2018 13:00:00 16.7 C 57 % 8.15 C
158 25-08-2018 13:05:00 16.7 C 57 % 8.15 C
159 25-08-2018 13:10:00 16.7 C 58 % 8.4 C
160 25-08-2018 13:15:00 16.8 C 57 % 8.24 C
161 25-08-2018 13:20:00 16.8 C 56 % 7.98 C
162 25-08-2018 13:25:00 16.8 C 56 % 7.98 C
163 25-08-2018 13:30:00 16.9 C 55 % 7.81 C
164 25-08-2018 13:35:00 16.8 C 55 % 7.72 C
165 25-08-2018 13:40:00 16.8 C 56 % 7.98 C
166 25-08-2018 13:45:00 16.8 C 55 % 7.72 C
167 25-08-2018 13:50:00 16.7 C 55 % 7.62 C
168 25-08-2018 13:55:00 16.7 C 56 % 7.89 C
169 25-08-2018 14:00:00 16.7 C 58 % 8.4 C
170 25-08-2018 14:05:00 16.8 C 57 % 8.24 C
171 25-08-2018 14:10:00 17 C 57 % 8.43 C
172 25-08-2018 14:15:00 16.8 C 57 % 8.24 C
173 25-08-2018 14:20:00 16.7 C 58 % 8.4 C
174 25-08-2018 14:25:00 16.6 C 59 % 8.56 C
175 25-08-2018 14:30:00 16.6 C 58 % 8.31 C
Sensor: Nr:Datum:Temp:Feuchte:Taupunkt:
Aussen-T/F 176 25-08-2018 14:35:00 16.7 C 59 % 8.66 C
177 25-08-2018 14:40:00 16.8 C 56 % 7.98 C
178 25-08-2018 14:45:00 16.9 C 58 % 8.59 C
179 25-08-2018 14:50:00 17.1 C 56 % 8.26 C
180 25-08-2018 14:55:00 17.2 C 57 % 8.62 C
181 25-08-2018 15:00:00 17.4 C 55 % 8.28 C
182 25-08-2018 15:05:00 17.7 C 54 % 8.28 C
183 25-08-2018 15:10:00 17.8 C 52 % 7.82 C
184 25-08-2018 15:15:00 17.8 C 52 % 7.82 C
185 25-08-2018 15:20:00 17.7 C 52 % 7.73 C
186 25-08-2018 15:25:00 17.6 C 54 % 8.19 C
187 25-08-2018 15:30:00 17.6 C 53 % 7.92 C
188 25-08-2018 15:35:00 17.6 C 52 % 7.64 C
189 25-08-2018 15:40:00 17.7 C 53 % 8.01 C
190 25-08-2018 15:45:00 17.8 C 53 % 8.1 C
191 25-08-2018 15:50:00 17.9 C 53 % 8.19 C
192 25-08-2018 15:55:00 18.1 C 52 % 8.1 C
193 25-08-2018 16:00:00 17.9 C 50 % 7.34 C
194 25-08-2018 16:05:00 17.8 C 50 % 7.25 C
195 25-08-2018 16:10:00 17.8 C 50 % 7.25 C
196 25-08-2018 16:15:00 17.8 C 51 % 7.54 C
197 25-08-2018 16:20:00 17.9 C 51 % 7.63 C
198 25-08-2018 16:25:00 18.1 C 52 % 8.1 C
199 25-08-2018 16:30:00 18.1 C 50 % 7.52 C
200 25-08-2018 16:35:00 18.2 C 50 % 7.62 C
Sensor: Nr:Datum:Temp:Feuchte:Taupunkt:
Aussen-T/F 201 25-08-2018 16:40:00 18.1 C 50 % 7.52 C
202 25-08-2018 16:45:00 18 C 50 % 7.43 C
203 25-08-2018 16:50:00 17.9 C 49 % 7.05 C
204 25-08-2018 16:55:00 17.9 C 48 % 6.75 C
205 25-08-2018 17:00:00 17.8 C 48 % 6.65 C
206 25-08-2018 17:05:00 17.8 C 48 % 6.65 C
207 25-08-2018 17:10:00 17.9 C 51 % 7.63 C
208 25-08-2018 17:15:00 18 C 50 % 7.43 C
209 25-08-2018 17:20:00 18.1 C 49 % 7.23 C
210 25-08-2018 17:25:00 18.1 C 49 % 7.23 C
211 25-08-2018 17:30:00 18.2 C 50 % 7.62 C
212 25-08-2018 17:35:00 18.2 C 52 % 8.19 C
213 25-08-2018 17:40:00 18.2 C 51 % 7.91 C
214 25-08-2018 17:45:00 18.3 C 51 % 8 C
215 25-08-2018 17:50:00 18.2 C 50 % 7.62 C
216 25-08-2018 17:55:00 18.1 C 52 % 8.1 C
217 25-08-2018 18:00:00 17.9 C 52 % 7.91 C
218 25-08-2018 18:05:00 17.9 C 52 % 7.91 C
219 25-08-2018 18:10:00 17.8 C 52 % 7.82 C
220 25-08-2018 18:15:00 17.6 C 56 % 8.73 C
221 25-08-2018 18:20:00 16.9 C 59 % 8.84 C
222 25-08-2018 18:25:00 16.4 C 64 % 9.58 C
223 25-08-2018 18:30:00 15.8 C 68 % 9.91 C
224 25-08-2018 18:35:00 15.3 C 70 % 9.87 C
225 25-08-2018 18:40:00 14.8 C 71 % 9.6 C
Sensor: Nr:Datum:Temp:Feuchte:Taupunkt:
Aussen-T/F 226 25-08-2018 18:45:00 14.6 C 72 % 9.61 C
227 25-08-2018 18:50:00 14.5 C 74 % 9.93 C
228 25-08-2018 18:55:00 14.4 C 74 % 9.83 C
229 25-08-2018 19:00:00 14.3 C 73 % 9.53 C
230 25-08-2018 19:05:00 14.3 C 74 % 9.73 C
231 25-08-2018 19:10:00 14.3 C 74 % 9.73 C
232 25-08-2018 19:15:00 14.4 C 74 % 9.83 C
233 25-08-2018 19:20:00 14.4 C 73 % 9.63 C
234 25-08-2018 19:25:00 14.4 C 73 % 9.63 C
235 25-08-2018 19:30:00 14.5 C 73 % 9.72 C
236 25-08-2018 19:35:00 14.4 C 73 % 9.63 C
237 25-08-2018 19:40:00 14.4 C 73 % 9.63 C
238 25-08-2018 19:45:00 14.4 C 73 % 9.63 C
239 25-08-2018 19:50:00 14.3 C 74 % 9.73 C
240 25-08-2018 19:55:00 14.3 C 75 % 9.93 C
241 25-08-2018 20:00:00 14.1 C 75 % 9.74 C
242 25-08-2018 20:05:00 13.9 C 75 % 9.55 C
243 25-08-2018 20:10:00 13.8 C 76 % 9.65 C
244 25-08-2018 20:15:00 13.6 C 76 % 9.45 C
245 25-08-2018 20:20:00 13.3 C 77 % 9.36 C
246 25-08-2018 20:25:00 13.2 C 77 % 9.26 C
247 25-08-2018 20:30:00 13 C 78 % 9.26 C
248 25-08-2018 20:35:00 12.8 C 78 % 9.06 C
249 25-08-2018 20:40:00 12.6 C 79 % 9.06 C
250 25-08-2018 20:45:00 12.5 C 79 % 8.96 C
Sensor: Nr:Datum:Temp:Feuchte:Taupunkt:
Aussen-T/F 251 25-08-2018 20:50:00 12.4 C 80 % 9.05 C
252 25-08-2018 20:55:00 12.3 C 80 % 8.95 C
253 25-08-2018 21:00:00 12.2 C 80 % 8.86 C
254 25-08-2018 21:05:00 12.2 C 80 % 8.86 C
255 25-08-2018 21:10:00 12.1 C 81 % 8.94 C
256 25-08-2018 21:15:00 12 C 81 % 8.84 C
257 25-08-2018 21:20:00 11.9 C 81 % 8.75 C
258 25-08-2018 21:25:00 11.8 C 82 % 8.83 C
259 25-08-2018 21:30:00 11.7 C 82 % 8.73 C
260 25-08-2018 21:35:00 11.6 C 82 % 8.64 C
261 25-08-2018 21:40:00 11.4 C 82 % 8.44 C
262 25-08-2018 21:45:00 11.3 C 82 % 8.34 C
263 25-08-2018 21:50:00 11.2 C 82 % 8.25 C
264 25-08-2018 21:55:00 11.2 C 83 % 8.42 C
265 25-08-2018 22:00:00 11.1 C 83 % 8.33 C
266 25-08-2018 22:05:00 10.9 C 83 % 8.13 C
267 25-08-2018 22:10:00 10.9 C 83 % 8.13 C
268 25-08-2018 22:15:00 10.8 C 83 % 8.03 C
269 25-08-2018 22:20:00 10.7 C 83 % 7.93 C
270 25-08-2018 22:25:00 10.6 C 84 % 8.01 C
271 25-08-2018 22:30:00 10.5 C 84 % 7.91 C
272 25-08-2018 22:35:00 10.4 C 84 % 7.82 C
273 25-08-2018 22:40:00 10.4 C 85 % 7.99 C
274 25-08-2018 22:45:00 10.3 C 85 % 7.89 C
275 25-08-2018 22:50:00 10.3 C 85 % 7.89 C
Sensor: Nr:Datum:Temp:Feuchte:Taupunkt:
Aussen-T/F 276 25-08-2018 22:55:00 10.3 C 85 % 7.89 C
277 25-08-2018 23:00:00 10.3 C 85 % 7.89 C
278 25-08-2018 23:05:00 10.3 C 85 % 7.89 C
279 25-08-2018 23:10:00 10.3 C 85 % 7.89 C
280 25-08-2018 23:15:00 10.3 C 85 % 7.89 C
281 25-08-2018 23:20:00 10.3 C 85 % 7.89 C
282 25-08-2018 23:25:00 10.3 C 85 % 7.89 C
283 25-08-2018 23:30:00 10.4 C 85 % 7.99 C
284 25-08-2018 23:35:00 10.4 C 85 % 7.99 C
285 25-08-2018 23:40:00 10.4 C 85 % 7.99 C
286 25-08-2018 23:45:00 10.3 C 85 % 7.89 C
287 25-08-2018 23:50:00 10.3 C 85 % 7.89 C
288 25-08-2018 23:55:00 10.3 C 85 % 7.89 C
289 26-08-2018 00:00:00 10.3 C 85 % 7.89 C
290 26-08-2018 00:05:00 10.3 C 85 % 7.89 C
291 26-08-2018 00:10:00 10.2 C 85 % 7.79 C
292 26-08-2018 00:15:00 10.2 C 85 % 7.79 C
293 26-08-2018 00:20:00 10.1 C 85 % 7.7 C
294 26-08-2018 00:25:00 10.1 C 85 % 7.7 C
295 26-08-2018 00:30:00 10 C 86 % 7.77 C
296 26-08-2018 00:35:00 9.9 C 86 % 7.67 C
297 26-08-2018 00:40:00 9.9 C 85 % 7.5 C
298 26-08-2018 00:45:00 9.8 C 86 % 7.57 C
299 26-08-2018 00:50:00 9.7 C 86 % 7.47 C
300 26-08-2018 00:55:00 9.6 C 86 % 7.38 C
Sensor: Nr:Datum:Temp:Feuchte:Taupunkt:
Aussen-T/F 301 26-08-2018 01:00:00 9.4 C 86 % 7.18 C
302 26-08-2018 01:05:00 9.3 C 86 % 7.08 C
303 26-08-2018 01:10:00 9.3 C 87 % 7.25 C
304 26-08-2018 01:15:00 9.3 C 87 % 7.25 C
305 26-08-2018 01:20:00 9.2 C 87 % 7.15 C
306 26-08-2018 01:25:00 9.2 C 87 % 7.15 C
307 26-08-2018 01:30:00 9.1 C 87 % 7.05 C
308 26-08-2018 01:35:00 9.1 C 88 % 7.22 C
309 26-08-2018 01:40:00 9.1 C 88 % 7.22 C
310 26-08-2018 01:45:00 8.9 C 88 % 7.02 C
311 26-08-2018 01:50:00 8.9 C 88 % 7.02 C
312 26-08-2018 01:55:00 8.9 C 89 % 7.19 C
313 26-08-2018 02:00:00 8.8 C 89 % 7.09 C
314 26-08-2018 02:05:00 8.8 C 89 % 7.09 C
315 26-08-2018 02:10:00 8.7 C 89 % 6.99 C
316 26-08-2018 02:15:00 8.7 C 89 % 6.99 C
317 26-08-2018 02:20:00 8.7 C 90 % 7.15 C
318 26-08-2018 02:25:00 8.7 C 90 % 7.15 C
319 26-08-2018 02:30:00 8.7 C 90 % 7.15 C
320 26-08-2018 02:35:00 8.7 C 90 % 7.15 C
321 26-08-2018 02:40:00 8.7 C 90 % 7.15 C
322 26-08-2018 02:45:00 8.8 C 91 % 7.41 C
323 26-08-2018 02:50:00 8.8 C 91 % 7.41 C
324 26-08-2018 02:55:00 8.8 C 90 % 7.25 C
325 26-08-2018 03:00:00 8.7 C 90 % 7.15 C
Sensor: Nr:Datum:Temp:Feuchte:Taupunkt:
Aussen-T/F 326 26-08-2018 03:05:00 8.7 C 90 % 7.15 C
327 26-08-2018 03:10:00 8.6 C 90 % 7.06 C
328 26-08-2018 03:15:00 8.4 C 90 % 6.86 C
329 26-08-2018 03:20:00 8.4 C 90 % 6.86 C
330 26-08-2018 03:25:00 8.3 C 90 % 6.76 C
331 26-08-2018 03:30:00 8.3 C 90 % 6.76 C
332 26-08-2018 03:35:00 8.3 C 90 % 6.76 C
333 26-08-2018 03:40:00 8.2 C 90 % 6.66 C
334 26-08-2018 03:45:00 8.1 C 91 % 6.72 C
335 26-08-2018 03:50:00 8.1 C 91 % 6.72 C
336 26-08-2018 03:55:00 8.1 C 91 % 6.72 C
337 26-08-2018 04:00:00 8.1 C 91 % 6.72 C
338 26-08-2018 04:05:00 8.1 C 91 % 6.72 C
339 26-08-2018 04:10:00 8.1 C 91 % 6.72 C
340 26-08-2018 04:15:00 8 C 91 % 6.62 C
341 26-08-2018 04:20:00 8 C 91 % 6.62 C
342 26-08-2018 04:25:00 8 C 91 % 6.62 C
343 26-08-2018 04:30:00 7.9 C 91 % 6.52 C
344 26-08-2018 04:35:00 7.9 C 92 % 6.68 C
345 26-08-2018 04:40:00 7.9 C 92 % 6.68 C
346 26-08-2018 04:45:00 7.9 C 92 % 6.68 C
347 26-08-2018 04:50:00 7.9 C 92 % 6.68 C
348 26-08-2018 04:55:00 7.9 C 92 % 6.68 C
349 26-08-2018 05:00:00 7.9 C 92 % 6.68 C
350 26-08-2018 05:05:00 7.8 C 91 % 6.43 C
Sensor: Nr:Datum:Temp:Feuchte:Taupunkt:
Aussen-T/F 351 26-08-2018 05:10:00 7.8 C 91 % 6.43 C
352 26-08-2018 05:15:00 7.7 C 91 % 6.33 C
353 26-08-2018 05:20:00 7.7 C 91 % 6.33 C
354 26-08-2018 05:25:00 7.6 C 91 % 6.23 C
355 26-08-2018 05:30:00 7.5 C 91 % 6.13 C
356 26-08-2018 05:35:00 7.4 C 91 % 6.03 C
357 26-08-2018 05:40:00 7.4 C 91 % 6.03 C
358 26-08-2018 05:45:00 7.3 C 91 % 5.93 C
359 26-08-2018 05:50:00 7.2 C 92 % 5.99 C
360 26-08-2018 05:55:00 7.2 C 91 % 5.83 C
361 26-08-2018 06:00:00 7.1 C 91 % 5.73 C
362 26-08-2018 06:05:00 7.1 C 92 % 5.89 C
363 26-08-2018 06:10:00 7.1 C 92 % 5.89 C
364 26-08-2018 06:15:00 7 C 92 % 5.79 C
365 26-08-2018 06:20:00 6.9 C 92 % 5.69 C
366 26-08-2018 06:25:00 6.9 C 92 % 5.69 C
367 26-08-2018 06:30:00 6.9 C 92 % 5.69 C
368 26-08-2018 06:35:00 6.9 C 92 % 5.69 C
369 26-08-2018 06:40:00 6.8 C 92 % 5.59 C
370 26-08-2018 06:45:00 6.8 C 92 % 5.59 C
371 26-08-2018 06:50:00 6.8 C 92 % 5.59 C
372 26-08-2018 06:55:00 6.8 C 92 % 5.59 C
373 26-08-2018 07:00:00 6.8 C 92 % 5.59 C
374 26-08-2018 07:05:00 6.8 C 92 % 5.59 C
375 26-08-2018 07:10:00 6.8 C 92 % 5.59 C
Sensor: Nr:Datum:Temp:Feuchte:Taupunkt:
Aussen-T/F 376 26-08-2018 07:15:00 6.9 C 92 % 5.69 C
377 26-08-2018 07:20:00 6.9 C 93 % 5.85 C
378 26-08-2018 07:25:00 7 C 93 % 5.95 C
379 26-08-2018 07:30:00 7 C 93 % 5.95 C
380 26-08-2018 07:35:00 7 C 93 % 5.95 C
381 26-08-2018 07:40:00 7.1 C 93 % 6.05 C
382 26-08-2018 07:45:00 7.2 C 93 % 6.15 C
383 26-08-2018 07:50:00 7.3 C 93 % 6.25 C
384 26-08-2018 07:55:00 7.3 C 93 % 6.25 C
385 26-08-2018 08:00:00 7.4 C 93 % 6.34 C
386 26-08-2018 08:05:00 7.6 C 93 % 6.54 C
387 26-08-2018 08:10:00 7.7 C 93 % 6.64 C
388 26-08-2018 08:15:00 7.7 C 93 % 6.64 C
389 26-08-2018 08:20:00 7.8 C 93 % 6.74 C
390 26-08-2018 08:25:00 7.8 C 93 % 6.74 C
391 26-08-2018 08:30:00 7.8 C 93 % 6.74 C
392 26-08-2018 08:35:00 7.9 C 93 % 6.84 C
393 26-08-2018 08:40:00 8 C 93 % 6.94 C
394 26-08-2018 08:45:00 8.1 C 93 % 7.04 C
395 26-08-2018 08:50:00 8.2 C 93 % 7.14 C
396 26-08-2018 08:55:00 8.3 C 93 % 7.24 C
397 26-08-2018 09:00:00 8.4 C 93 % 7.34 C
398 26-08-2018 09:05:00 8.5 C 93 % 7.43 C
399 26-08-2018 09:10:00 8.6 C 93 % 7.53 C
400 26-08-2018 09:15:00 8.7 C 93 % 7.63 C
Sensor: Nr:Datum:Temp:Feuchte:Taupunkt:
Aussen-T/F 401 26-08-2018 09:20:00 8.8 C 93 % 7.73 C
402 26-08-2018 09:25:00 8.9 C 93 % 7.83 C
403 26-08-2018 09:30:00 9.1 C 93 % 8.03 C
404 26-08-2018 09:35:00 9.2 C 93 % 8.13 C
405 26-08-2018 09:40:00 9.3 C 93 % 8.23 C
406 26-08-2018 09:45:00 9.4 C 93 % 8.33 C
407 26-08-2018 09:50:00 9.6 C 93 % 8.53 C
408 26-08-2018 09:55:00 9.8 C 93 % 8.72 C
409 26-08-2018 10:00:00 9.9 C 93 % 8.82 C
410 26-08-2018 10:05:00 10.1 C 92 % 8.86 C
411 26-08-2018 10:10:00 10.3 C 92 % 9.06 C
412 26-08-2018 10:15:00 10.6 C 92 % 9.36 C
413 26-08-2018 10:20:00 10.8 C 91 % 9.39 C
414 26-08-2018 10:25:00 11 C 90 % 9.42 C
415 26-08-2018 10:30:00 11.2 C 90 % 9.62 C
416 26-08-2018 10:35:00 11.5 C 89 % 9.75 C
417 26-08-2018 10:40:00 11.8 C 87 % 9.71 C
418 26-08-2018 10:45:00 12.1 C 86 % 9.83 C
419 26-08-2018 10:50:00 12.3 C 86 % 10.03 C
420 26-08-2018 10:55:00 12.5 C 84 % 9.87 C
421 26-08-2018 11:00:00 12.8 C 84 % 10.17 C
422 26-08-2018 11:05:00 12.9 C 84 % 10.26 C
423 26-08-2018 11:10:00 13.2 C 81 % 10.01 C
424 26-08-2018 11:15:00 13.4 C 79 % 9.84 C
425 26-08-2018 11:20:00 13.7 C 78 % 9.94 C
Sensor: Nr:Datum:Temp:Feuchte:Taupunkt:
Aussen-T/F 426 26-08-2018 11:25:00 13.8 C 75 % 9.45 C
427 26-08-2018 11:30:00 14.2 C 69 % 8.6 C
428 26-08-2018 11:35:00 14.7 C 67 % 8.64 C
429 26-08-2018 11:40:00 15 C 67 % 8.93 C
430 26-08-2018 11:45:00 15.3 C 66 % 8.99 C
431 26-08-2018 11:50:00 15.5 C 66 % 9.18 C
432 26-08-2018 11:55:00 15.7 C 64 % 8.92 C
433 26-08-2018 12:00:00 16 C 62 % 8.73 C
434 26-08-2018 12:05:00 16.2 C 60 % 8.43 C
435 26-08-2018 12:10:00 16.3 C 55 % 7.25 C
436 26-08-2018 12:15:00 16.4 C 57 % 7.87 C
437 26-08-2018 12:20:00 16.5 C 56 % 7.7 C
438 26-08-2018 12:25:00 16.6 C 56 % 7.8 C
439 26-08-2018 12:30:00 16.7 C 54 % 7.36 C
440 26-08-2018 12:35:00 16.8 C 56 % 7.98 C
441 26-08-2018 12:40:00 16.8 C 53 % 7.18 C
442 26-08-2018 12:45:00 17 C 50 % 6.51 C
443 26-08-2018 12:50:00 17.2 C 50 % 6.7 C
444 26-08-2018 12:55:00 17.4 C 48 % 6.29 C
445 26-08-2018 13:00:00 17.6 C 47 % 6.17 C
446 26-08-2018 13:05:00 17.7 C 46 % 5.95 C
447 26-08-2018 13:10:00 17.8 C 47 % 6.35 C
448 26-08-2018 13:15:00 17.8 C 46 % 6.04 C
449 26-08-2018 13:20:00 18 C 49 % 7.14 C
450 26-08-2018 13:25:00 18.1 C 46 % 6.31 C
Sensor: Nr:Datum:Temp:Feuchte:Taupunkt:
Aussen-T/F 451 26-08-2018 13:30:00 18.2 C 48 % 7.02 C
452 26-08-2018 13:35:00 18.3 C 47 % 6.8 C
453 26-08-2018 13:40:00 18.4 C 46 % 6.58 C
454 26-08-2018 13:45:00 18.5 C 46 % 6.67 C
455 26-08-2018 13:50:00 18.7 C 45 % 6.54 C
456 26-08-2018 13:55:00 18.8 C 44 % 6.3 C
457 26-08-2018 14:00:00 18.8 C 44 % 6.3 C
458 26-08-2018 14:05:00 18.9 C 44 % 6.39 C
459 26-08-2018 14:10:00 19 C 43 % 6.15 C
460 26-08-2018 14:15:00 19.2 C 44 % 6.66 C
461 26-08-2018 14:20:00 19.4 C 41 % 5.82 C
462 26-08-2018 14:25:00 19.6 C 42 % 6.35 C
463 26-08-2018 14:30:00 19.6 C 42 % 6.35 C
464 26-08-2018 14:35:00 19.7 C 41 % 6.09 C
465 26-08-2018 14:40:00 19.7 C 42 % 6.44 C
466 26-08-2018 14:45:00 19.9 C 41 % 6.27 C
467 26-08-2018 14:50:00 20.1 C 41 % 6.45 C
468 26-08-2018 14:55:00 20.2 C 41 % 6.54 C
469 26-08-2018 15:00:00 20.4 C 41 % 6.72 C
470 26-08-2018 15:05:00 20.5 C 42 % 7.16 C
471 26-08-2018 15:10:00 20.5 C 41 % 6.81 C
472 26-08-2018 15:15:00 20.3 C 42 % 6.98 C
473 26-08-2018 15:20:00 20.4 C 42 % 7.07 C
474 26-08-2018 15:25:00 20.7 C 41 % 6.99 C
475 26-08-2018 15:30:00 20.8 C 41 % 7.08 C
Sensor: Nr:Datum:Temp:Feuchte:Taupunkt:
Aussen-T/F 476 26-08-2018 15:35:00 20.6 C 42 % 7.25 C
477 26-08-2018 15:40:00 20.5 C 42 % 7.16 C
478 26-08-2018 15:45:00 20.4 C 42 % 7.07 C
479 26-08-2018 15:50:00 20.5 C 43 % 7.5 C
480 26-08-2018 15:55:00 20.8 C 42 % 7.43 C
481 26-08-2018 16:00:00 20.9 C 40 % 6.81 C
482 26-08-2018 16:05:00 20.8 C 40 % 6.72 C
483 26-08-2018 16:10:00 20.7 C 42 % 7.34 C
484 26-08-2018 16:15:00 20.9 C 41 % 7.17 C
485 26-08-2018 16:20:00 21.4 C 40 % 7.25 C
486 26-08-2018 16:25:00 21.4 C 40 % 7.25 C
487 26-08-2018 16:30:00 21.9 C 41 % 8.06 C
488 26-08-2018 16:35:00 22.6 C 36 % 6.78 C
489 26-08-2018 16:40:00 22.8 C 36 % 6.96 C
490 26-08-2018 16:45:00 22.6 C 37 % 7.18 C
491 26-08-2018 16:50:00 22.2 C 37 % 6.83 C
492 26-08-2018 16:55:00 21.8 C 37 % 6.48 C
493 26-08-2018 17:00:00 21.4 C 38 % 6.51 C
494 26-08-2018 17:05:00 21.5 C 39 % 6.97 C
495 26-08-2018 17:10:00 21.9 C 38 % 6.95 C
496 26-08-2018 17:15:00 22.2 C 39 % 7.6 C
497 26-08-2018 17:20:00 22.2 C 38 % 7.22 C
498 26-08-2018 17:25:00 22.1 C 39 % 7.51 C
499 26-08-2018 17:30:00 21.9 C 38 % 6.95 C
500 26-08-2018 17:35:00 21.9 C 38 % 6.95 C
Sensor: Nr:Datum:Temp:Feuchte:Taupunkt:
Aussen-T/F 501 26-08-2018 17:40:00 21.7 C 37 % 6.39 C
502 26-08-2018 17:45:00 21.6 C 37 % 6.3 C
503 26-08-2018 17:50:00 21.4 C 38 % 6.51 C
504 26-08-2018 17:55:00 21.2 C 37 % 5.94 C
505 26-08-2018 18:00:00 21.1 C 37 % 5.86 C
506 26-08-2018 18:05:00 21.1 C 38 % 6.24 C
507 26-08-2018 18:10:00 21.2 C 39 % 6.71 C
508 26-08-2018 18:15:00 21.3 C 37 % 6.03 C
509 26-08-2018 18:20:00 21.3 C 37 % 6.03 C
510 26-08-2018 18:25:00 21.3 C 37 % 6.03 C
511 26-08-2018 18:30:00 21.2 C 38 % 6.33 C
512 26-08-2018 18:35:00 21.1 C 38 % 6.24 C
513 26-08-2018 18:40:00 21.1 C 39 % 6.62 C
514 26-08-2018 18:45:00 20.9 C 37 % 5.68 C
515 26-08-2018 18:50:00 20.8 C 37 % 5.59 C
516 26-08-2018 18:55:00 20.7 C 39 % 6.26 C
517 26-08-2018 19:00:00 20.8 C 38 % 5.97 C
518 26-08-2018 19:05:00 20.9 C 38 % 6.06 C
519 26-08-2018 19:10:00 21.1 C 38 % 6.24 C
520 26-08-2018 19:15:00 21.1 C 38 % 6.24 C
521 26-08-2018 19:20:00 20.9 C 38 % 6.06 C
522 26-08-2018 19:25:00 20.7 C 39 % 6.26 C
523 26-08-2018 19:30:00 20.6 C 39 % 6.17 C
524 26-08-2018 19:35:00 20.4 C 40 % 6.36 C
525 26-08-2018 19:40:00 20.3 C 40 % 6.27 C
Sensor: Nr:Datum:Temp:Feuchte:Taupunkt:
Aussen-T/F 526 26-08-2018 19:45:00 20.2 C 42 % 6.89 C
527 26-08-2018 19:50:00 20.1 C 44 % 7.48 C
528 26-08-2018 19:55:00 19.8 C 44 % 7.21 C
529 26-08-2018 20:00:00 19.6 C 45 % 7.35 C
530 26-08-2018 20:05:00 19.3 C 46 % 7.4 C
531 26-08-2018 20:10:00 19.1 C 47 % 7.53 C
532 26-08-2018 20:15:00 18.7 C 48 % 7.48 C
533 26-08-2018 20:20:00 18.3 C 48 % 7.11 C
534 26-08-2018 20:25:00 18.1 C 49 % 7.23 C
535 26-08-2018 20:30:00 17.8 C 51 % 7.54 C
536 26-08-2018 20:35:00 17.5 C 51 % 7.26 C
537 26-08-2018 20:40:00 17.2 C 51 % 6.98 C
538 26-08-2018 20:45:00 16.9 C 50 % 6.42 C
539 26-08-2018 20:50:00 16.7 C 51 % 6.52 C
540 26-08-2018 20:55:00 16.4 C 52 % 6.53 C
541 26-08-2018 21:00:00 16.2 C 53 % 6.62 C
542 26-08-2018 21:05:00 16 C 54 % 6.71 C
543 26-08-2018 21:10:00 15.8 C 53 % 6.25 C
544 26-08-2018 21:15:00 15.7 C 54 % 6.43 C
545 26-08-2018 21:20:00 15.6 C 55 % 6.6 C
546 26-08-2018 21:25:00 15.4 C 55 % 6.42 C
547 26-08-2018 21:30:00 15.2 C 55 % 6.23 C
548 26-08-2018 21:35:00 15.1 C 55 % 6.14 C
549 26-08-2018 21:40:00 14.9 C 56 % 6.21 C
550 26-08-2018 21:45:00 14.8 C 57 % 6.37 C
Sensor: Nr:Datum:Temp:Feuchte:Taupunkt:
Aussen-T/F 551 26-08-2018 21:50:00 14.7 C 56 % 6.02 C
552 26-08-2018 21:55:00 14.6 C 57 % 6.19 C
553 26-08-2018 22:00:00 14.6 C 58 % 6.44 C
554 26-08-2018 22:05:00 14.6 C 57 % 6.19 C
555 26-08-2018 22:10:00 14.6 C 58 % 6.44 C
556 26-08-2018 22:15:00 14.7 C 58 % 6.53 C
557 26-08-2018 22:20:00 14.7 C 58 % 6.53 C
558 26-08-2018 22:25:00 14.7 C 57 % 6.28 C
559 26-08-2018 22:30:00 14.7 C 56 % 6.02 C
560 26-08-2018 22:35:00 14.7 C 56 % 6.02 C
561 26-08-2018 22:40:00 14.8 C 58 % 6.63 C
562 26-08-2018 22:45:00 14.8 C 57 % 6.37 C
563 26-08-2018 22:50:00 14.9 C 59 % 6.97 C
564 26-08-2018 22:55:00 15.1 C 58 % 6.91 C
565 26-08-2018 23:00:00 15.2 C 57 % 6.75 C
566 26-08-2018 23:05:00 15.4 C 58 % 7.19 C
567 26-08-2018 23:10:00 15.4 C 57 % 6.93 C
568 26-08-2018 23:15:00 15.6 C 57 % 7.12 C
569 26-08-2018 23:20:00 15.6 C 57 % 7.12 C
570 26-08-2018 23:25:00 15.5 C 56 % 6.77 C
571 26-08-2018 23:30:00 15.4 C 56 % 6.68 C
572 26-08-2018 23:35:00 15.4 C 57 % 6.93 C
573 26-08-2018 23:40:00 15.3 C 57 % 6.84 C
574 26-08-2018 23:45:00 15.3 C 58 % 7.09 C
575 26-08-2018 23:50:00 15.4 C 59 % 7.44 C
Sensor: Nr:Datum:Temp:Feuchte:Taupunkt:
Aussen-T/F 576 26-08-2018 23:55:00 15.5 C 56 % 6.77 C
577 27-08-2018 00:00:00 15.7 C 56 % 6.96 C
578 27-08-2018 00:05:00 15.8 C 56 % 7.05 C
579 27-08-2018 00:10:00 16 C 55 % 6.97 C
580 27-08-2018 00:15:00 16.1 C 56 % 7.33 C
581 27-08-2018 00:20:00 16.1 C 57 % 7.59 C
582 27-08-2018 00:25:00 16.1 C 56 % 7.33 C
583 27-08-2018 00:30:00 16 C 56 % 7.24 C
584 27-08-2018 00:35:00 15.9 C 56 % 7.14 C
585 27-08-2018 00:40:00 15.9 C 57 % 7.4 C
586 27-08-2018 00:45:00 15.9 C 57 % 7.4 C
587 27-08-2018 00:50:00 16 C 54 % 6.71 C
588 27-08-2018 00:55:00 16.1 C 58 % 7.84 C
589 27-08-2018 01:00:00 16.1 C 57 % 7.59 C
590 27-08-2018 01:05:00 16.1 C 57 % 7.59 C
591 27-08-2018 01:10:00 16.2 C 52 % 6.34 C
592 27-08-2018 01:15:00 16.6 C 50 % 6.15 C
593 27-08-2018 01:20:00 16.8 C 52 % 6.9 C
594 27-08-2018 01:25:00 16.9 C 53 % 7.27 C
595 27-08-2018 01:30:00 16.9 C 51 % 6.71 C
596 27-08-2018 01:35:00 16.9 C 50 % 6.42 C
597 27-08-2018 01:40:00 17 C 51 % 6.8 C
598 27-08-2018 01:45:00 17.1 C 53 % 7.45 C
599 27-08-2018 01:50:00 17.2 C 54 % 7.82 C
600 27-08-2018 01:55:00 17.1 C 52 % 7.18 C
Sensor: Nr:Datum:Temp:Feuchte:Taupunkt:
Aussen-T/F 601 27-08-2018 02:00:00 17.1 C 57 % 8.52 C
602 27-08-2018 02:05:00 16.9 C 62 % 9.58 C
603 27-08-2018 02:10:00 16.6 C 66 % 10.23 C
604 27-08-2018 02:15:00 16.3 C 66 % 9.94 C
605 27-08-2018 02:20:00 16 C 69 % 10.32 C
606 27-08-2018 02:25:00 15.7 C 71 % 10.46 C
607 27-08-2018 02:30:00 15.5 C 71 % 10.27 C
608 27-08-2018 02:35:00 15.3 C 71 % 10.08 C
609 27-08-2018 02:40:00 15.1 C 68 % 9.24 C
610 27-08-2018 02:45:00 15.2 C 67 % 9.12 C
611 27-08-2018 02:50:00 15.2 C 69 % 9.56 C
612 27-08-2018 02:55:00 15.3 C 68 % 9.43 C
613 27-08-2018 03:00:00 15.3 C 65 % 8.77 C
614 27-08-2018 03:05:00 15.4 C 66 % 9.09 C
615 27-08-2018 03:10:00 15.6 C 69 % 9.94 C
616 27-08-2018 03:15:00 15.6 C 69 % 9.94 C
617 27-08-2018 03:20:00 15.6 C 70 % 10.15 C
618 27-08-2018 03:25:00 15.5 C 66 % 9.18 C
619 27-08-2018 03:30:00 15.5 C 67 % 9.41 C
620 27-08-2018 03:35:00 15.5 C 66 % 9.18 C
621 27-08-2018 03:40:00 15.6 C 65 % 9.05 C
622 27-08-2018 03:45:00 15.6 C 65 % 9.05 C
623 27-08-2018 03:50:00 15.7 C 64 % 8.92 C
624 27-08-2018 03:55:00 15.8 C 65 % 9.24 C
625 27-08-2018 04:00:00 15.9 C 65 % 9.34 C
Sensor: Nr:Datum:Temp:Feuchte:Taupunkt:
Aussen-T/F 626 27-08-2018 04:05:00 16.1 C 59 % 8.09 C
627 27-08-2018 04:10:00 16.3 C 61 % 8.77 C
628 27-08-2018 04:15:00 16.4 C 62 % 9.11 C
629 27-08-2018 04:20:00 16.4 C 63 % 9.35 C
630 27-08-2018 04:25:00 16.3 C 64 % 9.48 C
631 27-08-2018 04:30:00 16.3 C 68 % 10.39 C
632 27-08-2018 04:35:00 16.1 C 67 % 9.98 C
633 27-08-2018 04:40:00 15.9 C 68 % 10.01 C
634 27-08-2018 04:45:00 15.7 C 69 % 10.03 C
635 27-08-2018 04:50:00 15.6 C 68 % 9.72 C
636 27-08-2018 04:55:00 15.5 C 68 % 9.63 C
637 27-08-2018 05:00:00 15.5 C 70 % 10.06 C
638 27-08-2018 05:05:00 15.4 C 69 % 9.75 C
639 27-08-2018 05:10:00 15.5 C 69 % 9.84 C
640 27-08-2018 05:15:00 15.5 C 68 % 9.63 C
641 27-08-2018 05:20:00 15.6 C 67 % 9.5 C
642 27-08-2018 05:25:00 15.6 C 67 % 9.5 C
643 27-08-2018 05:30:00 15.6 C 65 % 9.05 C
644 27-08-2018 05:35:00 15.7 C 63 % 8.68 C
645 27-08-2018 05:40:00 15.9 C 63 % 8.87 C
646 27-08-2018 05:45:00 16.1 C 62 % 8.82 C
647 27-08-2018 05:50:00 16.2 C 61 % 8.68 C
648 27-08-2018 05:55:00 16.2 C 63 % 9.16 C
649 27-08-2018 06:00:00 16.3 C 65 % 9.71 C
650 27-08-2018 06:05:00 16.3 C 70 % 10.82 C
Sensor: Nr:Datum:Temp:Feuchte:Taupunkt:
Aussen-T/F 651 27-08-2018 06:10:00 16.1 C 72 % 11.06 C
652 27-08-2018 06:15:00 15.8 C 74 % 11.18 C
653 27-08-2018 06:20:00 15.7 C 76 % 11.48 C
654 27-08-2018 06:25:00 15.4 C 77 % 11.39 C
655 27-08-2018 06:30:00 15.3 C 78 % 11.49 C
656 27-08-2018 06:35:00 15.1 C 78 % 11.3 C
657 27-08-2018 06:40:00 15.1 C 78 % 11.3 C
658 27-08-2018 06:45:00 15.1 C 79 % 11.49 C
659 27-08-2018 06:50:00 15.1 C 79 % 11.49 C
660 27-08-2018 06:55:00 15.2 C 78 % 11.39 C
661 27-08-2018 07:00:00 15.3 C 78 % 11.49 C
662 27-08-2018 07:05:00 15.4 C 78 % 11.59 C
663 27-08-2018 07:10:00 15.5 C 79 % 11.88 C
664 27-08-2018 07:15:00 15.6 C 78 % 11.78 C
665 27-08-2018 07:20:00 15.6 C 79 % 11.97 C
666 27-08-2018 07:25:00 15.6 C 80 % 12.16 C
667 27-08-2018 07:30:00 15.6 C 82 % 12.54 C
668 27-08-2018 07:35:00 15.6 C 83 % 12.72 C
669 27-08-2018 07:40:00 15.4 C 84 % 12.71 C
670 27-08-2018 07:45:00 15.3 C 84 % 12.61 C
671 27-08-2018 07:50:00 15.3 C 85 % 12.79 C
672 27-08-2018 07:55:00 15.2 C 86 % 12.88 C
673 27-08-2018 08:00:00 15.1 C 86 % 12.78 C
674 27-08-2018 08:05:00 15.1 C 86 % 12.78 C
675 27-08-2018 08:10:00 15 C 86 % 12.68 C
Sensor: Nr:Datum:Temp:Feuchte:Taupunkt:
Aussen-T/F 676 27-08-2018 08:15:00 15 C 85 % 12.5 C
677 27-08-2018 08:20:00 15 C 85 % 12.5 C
678 27-08-2018 08:25:00 15.1 C 85 % 12.6 C
679 27-08-2018 08:30:00 15.1 C 85 % 12.6 C
680 27-08-2018 08:35:00 15.1 C 85 % 12.6 C
681 27-08-2018 08:40:00 15.2 C 84 % 12.52 C
682 27-08-2018 08:45:00 15.2 C 85 % 12.7 C
683 27-08-2018 08:50:00 15.3 C 84 % 12.61 C
684 27-08-2018 08:55:00 15.3 C 84 % 12.61 C
685 27-08-2018 09:00:00 15.3 C 84 % 12.61 C
686 27-08-2018 09:05:00 15.4 C 84 % 12.71 C
687 27-08-2018 09:10:00 15.4 C 83 % 12.53 C
688 27-08-2018 09:15:00 15.5 C 83 % 12.63 C
689 27-08-2018 09:20:00 15.6 C 83 % 12.72 C
690 27-08-2018 09:25:00 15.6 C 83 % 12.72 C
691 27-08-2018 09:30:00 15.6 C 83 % 12.72 C
692 27-08-2018 09:35:00 15.7 C 83 % 12.82 C
693 27-08-2018 09:40:00 15.7 C 83 % 12.82 C
694 27-08-2018 09:45:00 15.7 C 82 % 12.64 C
695 27-08-2018 09:50:00 15.8 C 82 % 12.74 C
696 27-08-2018 09:55:00 15.8 C 82 % 12.74 C
697 27-08-2018 10:00:00 15.9 C 82 % 12.83 C
698 27-08-2018 10:05:00 15.9 C 82 % 12.83 C
699 27-08-2018 10:10:00 16.1 C 82 % 13.03 C
700 27-08-2018 10:15:00 16.1 C 81 % 12.84 C
Sensor: Nr:Datum:Temp:Feuchte:Taupunkt:
Aussen-T/F 701 27-08-2018 10:20:00 16.2 C 81 % 12.94 C
702 27-08-2018 10:25:00 16.2 C 81 % 12.94 C
703 27-08-2018 10:30:00 16.2 C 82 % 13.13 C
704 27-08-2018 10:35:00 16.2 C 81 % 12.94 C
705 27-08-2018 10:40:00 16.2 C 81 % 12.94 C
706 27-08-2018 10:45:00 16.2 C 81 % 12.94 C
707 27-08-2018 10:50:00 16.3 C 81 % 13.04 C
708 27-08-2018 10:55:00 16.3 C 81 % 13.04 C
709 27-08-2018 11:00:00 16.4 C 81 % 13.13 C
710 27-08-2018 11:05:00 16.5 C 81 % 13.23 C
711 27-08-2018 11:10:00 16.6 C 81 % 13.33 C
712 27-08-2018 11:15:00 16.7 C 80 % 13.23 C
713 27-08-2018 11:20:00 16.8 C 80 % 13.33 C
714 27-08-2018 11:25:00 16.9 C 80 % 13.43 C
715 27-08-2018 11:30:00 17.1 C 80 % 13.62 C
716 27-08-2018 11:35:00 17.1 C 80 % 13.62 C
717 27-08-2018 11:40:00 17.2 C 80 % 13.72 C
718 27-08-2018 11:45:00 17.4 C 79 % 13.72 C
719 27-08-2018 11:50:00 17.6 C 79 % 13.92 C
720 27-08-2018 11:55:00 17.7 C 79 % 14.01 C
721 27-08-2018 12:00:00 17.8 C 78 % 13.91 C
722 27-08-2018 12:05:00 17.9 C 78 % 14.01 C
723 27-08-2018 12:10:00 18.1 C 77 % 14.01 C
724 27-08-2018 12:15:00 18.1 C 77 % 14.01 C
725 27-08-2018 12:20:00 18.2 C 78 % 14.3 C
Sensor: Nr:Datum:Temp:Feuchte:Taupunkt:
Aussen-T/F 726 27-08-2018 12:25:00 18.3 C 77 % 14.2 C
727 27-08-2018 12:30:00 18.3 C 77 % 14.2 C
728 27-08-2018 12:35:00 18.3 C 77 % 14.2 C
729 27-08-2018 12:40:00 18.3 C 77 % 14.2 C
730 27-08-2018 12:45:00 18.4 C 76 % 14.1 C
731 27-08-2018 12:50:00 18.5 C 77 % 14.39 C
732 27-08-2018 12:55:00 18.7 C 77 % 14.59 C
733 27-08-2018 13:00:00 18.9 C 76 % 14.58 C
734 27-08-2018 13:05:00 19.3 C 75 % 14.76 C
735 27-08-2018 13:10:00 19.4 C 74 % 14.65 C
736 27-08-2018 13:15:00 19.4 C 74 % 14.65 C
737 27-08-2018 13:20:00 19.5 C 75 % 14.95 C
738 27-08-2018 13:25:00 19.5 C 74 % 14.74 C
739 27-08-2018 13:30:00 19.4 C 74 % 14.65 C
740 27-08-2018 13:35:00 19.6 C 74 % 14.84 C
741 27-08-2018 13:40:00 19.7 C 73 % 14.73 C
742 27-08-2018 13:45:00 19.8 C 73 % 14.82 C
743 27-08-2018 13:50:00 19.9 C 73 % 14.92 C
744 27-08-2018 13:55:00 20.1 C 72 % 14.9 C
745 27-08-2018 14:00:00 20.2 C 72 % 14.99 C
746 27-08-2018 14:05:00 20.1 C 72 % 14.9 C
747 27-08-2018 14:10:00 20.1 C 72 % 14.9 C
748 27-08-2018 14:15:00 20.2 C 72 % 14.99 C
749 27-08-2018 14:20:00 20.1 C 72 % 14.9 C
750 27-08-2018 14:25:00 20.1 C 72 % 14.9 C
Sensor: Nr:Datum:Temp:Feuchte:Taupunkt:
Aussen-T/F 751 27-08-2018 14:30:00 20.2 C 72 % 14.99 C
752 27-08-2018 14:35:00 20.3 C 72 % 15.09 C
753 27-08-2018 14:40:00 20.3 C 72 % 15.09 C
754 27-08-2018 14:45:00 20.2 C 72 % 14.99 C
755 27-08-2018 14:50:00 20.1 C 73 % 15.11 C
756 27-08-2018 14:55:00 20.3 C 72 % 15.09 C
757 27-08-2018 15:00:00 20.3 C 73 % 15.3 C
758 27-08-2018 15:05:00 20.4 C 73 % 15.4 C
759 27-08-2018 15:10:00 20.5 C 73 % 15.5 C
760 27-08-2018 15:15:00 20.6 C 73 % 15.59 C
761 27-08-2018 15:20:00 20.7 C 72 % 15.47 C
762 27-08-2018 15:25:00 20.8 C 72 % 15.57 C
763 27-08-2018 15:30:00 20.9 C 71 % 15.45 C
764 27-08-2018 15:35:00 21.1 C 71 % 15.64 C
765 27-08-2018 15:40:00 21.1 C 70 % 15.42 C
766 27-08-2018 15:45:00 21.1 C 70 % 15.42 C
767 27-08-2018 15:50:00 21.2 C 70 % 15.51 C
768 27-08-2018 15:55:00 21.1 C 70 % 15.42 C
769 27-08-2018 16:00:00 21.1 C 71 % 15.64 C
770 27-08-2018 16:05:00 21.1 C 70 % 15.42 C
771 27-08-2018 16:10:00 21.1 C 71 % 15.64 C
772 27-08-2018 16:15:00 21 C 71 % 15.54 C
773 27-08-2018 16:20:00 21.1 C 71 % 15.64 C
774 27-08-2018 16:25:00 21.2 C 71 % 15.73 C
775 27-08-2018 16:30:00 21.6 C 70 % 15.89 C
Sensor: Nr:Datum:Temp:Feuchte:Taupunkt:
Aussen-T/F 776 27-08-2018 16:35:00 22.2 C 68 % 16.01 C
777 27-08-2018 16:40:00 22.4 C 67 % 15.97 C
778 27-08-2018 16:45:00 22.3 C 67 % 15.88 C
779 27-08-2018 16:50:00 22.1 C 68 % 15.92 C
780 27-08-2018 16:55:00 22.2 C 68 % 16.01 C
781 27-08-2018 17:00:00 22.3 C 67 % 15.88 C
782 27-08-2018 17:05:00 22.5 C 68 % 16.3 C
783 27-08-2018 17:10:00 22.7 C 67 % 16.26 C
784 27-08-2018 17:15:00 22.5 C 66 % 15.83 C
785 27-08-2018 17:20:00 22.3 C 67 % 15.88 C
786 27-08-2018 17:25:00 22.3 C 68 % 16.11 C
787 27-08-2018 17:30:00 22.8 C 67 % 16.35 C
788 27-08-2018 17:35:00 23.1 C 65 % 16.16 C
789 27-08-2018 17:40:00 23.2 C 64 % 16.01 C
790 27-08-2018 17:45:00 23.3 C 64 % 16.11 C
791 27-08-2018 17:50:00 23.4 C 62 % 15.71 C
792 27-08-2018 17:55:00 23.4 C 63 % 15.96 C
793 27-08-2018 18:00:00 23.5 C 62 % 15.8 C
794 27-08-2018 18:05:00 23.5 C 63 % 16.05 C
795 27-08-2018 18:10:00 23.7 C 62 % 15.99 C
796 27-08-2018 18:15:00 23.7 C 63 % 16.24 C
797 27-08-2018 18:20:00 23.4 C 62 % 15.71 C
798 27-08-2018 18:25:00 23.2 C 64 % 16.01 C
799 27-08-2018 18:30:00 23.3 C 64 % 16.11 C
800 27-08-2018 18:35:00 23.4 C 63 % 15.96 C
Sensor: Nr:Datum:Temp:Feuchte:Taupunkt:
Aussen-T/F 801 27-08-2018 18:40:00 23.4 C 64 % 16.2 C
802 27-08-2018 18:45:00 23.3 C 63 % 15.86 C
803 27-08-2018 18:50:00 23.2 C 64 % 16.01 C
804 27-08-2018 18:55:00 23.1 C 64 % 15.92 C
805 27-08-2018 19:00:00 22.8 C 65 % 15.88 C
806 27-08-2018 19:05:00 22.6 C 66 % 15.93 C
807 27-08-2018 19:10:00 22.4 C 66 % 15.74 C
808 27-08-2018 19:15:00 22.2 C 67 % 15.78 C
809 27-08-2018 19:20:00 22 C 68 % 15.82 C
810 27-08-2018 19:25:00 21.8 C 68 % 15.63 C
811 27-08-2018 19:30:00 21.7 C 69 % 15.77 C
812 27-08-2018 19:35:00 21.6 C 69 % 15.67 C
813 27-08-2018 19:40:00 21.4 C 69 % 15.48 C
814 27-08-2018 19:45:00 21.3 C 69 % 15.38 C
815 27-08-2018 19:50:00 21.2 C 70 % 15.51 C
816 27-08-2018 19:55:00 21.2 C 71 % 15.73 C
817 27-08-2018 20:00:00 21.1 C 72 % 15.86 C
818 27-08-2018 20:05:00 20.9 C 71 % 15.45 C
819 27-08-2018 20:10:00 20.8 C 72 % 15.57 C
820 27-08-2018 20:15:00 20.7 C 72 % 15.47 C
821 27-08-2018 20:20:00 20.6 C 71 % 15.16 C
822 27-08-2018 20:25:00 20.4 C 70 % 14.75 C
823 27-08-2018 20:30:00 20.4 C 68 % 14.3 C
824 27-08-2018 20:35:00 20.4 C 68 % 14.3 C
825 27-08-2018 20:40:00 20.3 C 67 % 13.97 C
Sensor: Nr:Datum:Temp:Feuchte:Taupunkt:
Aussen-T/F 826 27-08-2018 20:45:00 20.3 C 65 % 13.51 C
827 27-08-2018 20:50:00 20.2 C 65 % 13.41 C
828 27-08-2018 20:55:00 20.2 C 65 % 13.41 C
829 27-08-2018 21:00:00 20.2 C 61 % 12.44 C
830 27-08-2018 21:05:00 20.2 C 61 % 12.44 C
831 27-08-2018 21:10:00 20.2 C 64 % 13.18 C
832 27-08-2018 21:15:00 20.1 C 66 % 13.55 C
833 27-08-2018 21:20:00 19.9 C 62 % 12.41 C
834 27-08-2018 21:25:00 19.8 C 64 % 12.8 C
835 27-08-2018 21:30:00 19.7 C 63 % 12.46 C
836 27-08-2018 21:35:00 19.5 C 62 % 12.03 C
837 27-08-2018 21:40:00 19.4 C 63 % 12.18 C
838 27-08-2018 21:45:00 19.2 C 62 % 11.75 C
839 27-08-2018 21:50:00 19.1 C 63 % 11.9 C
840 27-08-2018 21:55:00 19 C 61 % 11.31 C
841 27-08-2018 22:00:00 18.9 C 61 % 11.22 C
842 27-08-2018 22:05:00 18.8 C 61 % 11.13 C
843 27-08-2018 22:10:00 18.8 C 62 % 11.37 C
844 27-08-2018 22:15:00 18.7 C 61 % 11.03 C
845 27-08-2018 22:20:00 18.7 C 61 % 11.03 C
846 27-08-2018 22:25:00 18.7 C 60 % 10.78 C
847 27-08-2018 22:30:00 18.7 C 60 % 10.78 C
848 27-08-2018 22:35:00 18.8 C 61 % 11.13 C
849 27-08-2018 22:40:00 18.7 C 60 % 10.78 C
850 27-08-2018 22:45:00 18.7 C 62 % 11.28 C
Sensor: Nr:Datum:Temp:Feuchte:Taupunkt:
Aussen-T/F 851 27-08-2018 22:50:00 18.6 C 63 % 11.42 C
852 27-08-2018 22:55:00 18.4 C 64 % 11.47 C
853 27-08-2018 23:00:00 18.3 C 65 % 11.61 C
854 27-08-2018 23:05:00 18.1 C 66 % 11.65 C
855 27-08-2018 23:10:00 17.7 C 67 % 11.5 C
856 27-08-2018 23:15:00 17.4 C 69 % 11.66 C
857 27-08-2018 23:20:00 17.1 C 70 % 11.59 C
858 27-08-2018 23:25:00 16.8 C 71 % 11.52 C
859 27-08-2018 23:30:00 16.6 C 72 % 11.54 C
860 27-08-2018 23:35:00 16.4 C 73 % 11.55 C
861 27-08-2018 23:40:00 16.3 C 73 % 11.46 C
862 27-08-2018 23:45:00 16.2 C 74 % 11.56 C
863 27-08-2018 23:50:00 16 C 74 % 11.37 C
864 27-08-2018 23:55:00 15.8 C 75 % 11.38 C
865 28-08-2018 00:00:00 15.7 C 76 % 11.48 C
866 28-08-2018 00:05:00 15.7 C 76 % 11.48 C
867 28-08-2018 00:10:00 15.8 C 77 % 11.78 C
868 28-08-2018 00:15:00 15.8 C 77 % 11.78 C
869 28-08-2018 00:20:00 15.8 C 77 % 11.78 C
870 28-08-2018 00:25:00 15.9 C 77 % 11.88 C
871 28-08-2018 00:30:00 15.9 C 77 % 11.88 C
872 28-08-2018 00:35:00 15.9 C 77 % 11.88 C
873 28-08-2018 00:40:00 15.9 C 77 % 11.88 C
874 28-08-2018 00:45:00 15.9 C 77 % 11.88 C
875 28-08-2018 00:50:00 15.9 C 77 % 11.88 C
Sensor: Nr:Datum:Temp:Feuchte:Taupunkt:
Aussen-T/F 876 28-08-2018 00:55:00 15.8 C 77 % 11.78 C
877 28-08-2018 01:00:00 15.8 C 77 % 11.78 C
878 28-08-2018 01:05:00 15.8 C 77 % 11.78 C
879 28-08-2018 01:10:00 15.7 C 77 % 11.68 C
880 28-08-2018 01:15:00 15.8 C 77 % 11.78 C
881 28-08-2018 01:20:00 15.8 C 77 % 11.78 C
882 28-08-2018 01:25:00 15.8 C 78 % 11.97 C
883 28-08-2018 01:30:00 15.8 C 77 % 11.78 C
884 28-08-2018 01:35:00 15.8 C 77 % 11.78 C
885 28-08-2018 01:40:00 15.7 C 77 % 11.68 C
886 28-08-2018 01:45:00 15.7 C 77 % 11.68 C
887 28-08-2018 01:50:00 15.7 C 77 % 11.68 C
888 28-08-2018 01:55:00 15.7 C 77 % 11.68 C
889 28-08-2018 02:00:00 15.7 C 78 % 11.88 C
890 28-08-2018 02:05:00 15.7 C 78 % 11.88 C
891 28-08-2018 02:10:00 15.6 C 78 % 11.78 C
892 28-08-2018 02:15:00 15.6 C 78 % 11.78 C
893 28-08-2018 02:20:00 15.6 C 78 % 11.78 C
894 28-08-2018 02:25:00 15.6 C 78 % 11.78 C
895 28-08-2018 02:30:00 15.6 C 77 % 11.59 C
896 28-08-2018 02:35:00 15.5 C 78 % 11.68 C
897 28-08-2018 02:40:00 15.5 C 77 % 11.49 C
898 28-08-2018 02:45:00 15.5 C 78 % 11.68 C
899 28-08-2018 02:50:00 15.4 C 78 % 11.59 C
900 28-08-2018 02:55:00 15.3 C 77 % 11.3 C
Sensor: Nr:Datum:Temp:Feuchte:Taupunkt:
Aussen-T/F 901 28-08-2018 03:00:00 15.1 C 78 % 11.3 C
902 28-08-2018 03:05:00 14.8 C 78 % 11 C
903 28-08-2018 03:10:00 14.6 C 79 % 11 C
904 28-08-2018 03:15:00 14.4 C 80 % 11 C
905 28-08-2018 03:20:00 14.2 C 80 % 10.8 C
906 28-08-2018 03:25:00 14 C 81 % 10.79 C
907 28-08-2018 03:30:00 13.8 C 81 % 10.6 C
908 28-08-2018 03:35:00 13.6 C 81 % 10.4 C
909 28-08-2018 03:40:00 13.4 C 82 % 10.39 C
910 28-08-2018 03:45:00 13.3 C 83 % 10.48 C
911 28-08-2018 03:50:00 13.2 C 83 % 10.38 C
912 28-08-2018 03:55:00 13.1 C 84 % 10.46 C
913 28-08-2018 04:00:00 13 C 84 % 10.36 C
914 28-08-2018 04:05:00 12.9 C 84 % 10.26 C
915 28-08-2018 04:10:00 12.8 C 84 % 10.17 C
916 28-08-2018 04:15:00 12.7 C 85 % 10.25 C
917 28-08-2018 04:20:00 12.6 C 85 % 10.15 C
918 28-08-2018 04:25:00 12.4 C 85 % 9.95 C
919 28-08-2018 04:30:00 12.3 C 85 % 9.85 C
920 28-08-2018 04:35:00 12.3 C 86 % 10.03 C
921 28-08-2018 04:40:00 12.2 C 86 % 9.93 C
922 28-08-2018 04:45:00 12.1 C 86 % 9.83 C
923 28-08-2018 04:50:00 12.1 C 87 % 10 C
924 28-08-2018 04:55:00 12.1 C 87 % 10 C
925 28-08-2018 05:00:00 12.1 C 87 % 10 C
Sensor: Nr:Datum:Temp:Feuchte:Taupunkt:
Aussen-T/F 926 28-08-2018 05:05:00 12.2 C 88 % 10.27 C
927 28-08-2018 05:10:00 12.2 C 88 % 10.27 C
928 28-08-2018 05:15:00 12.3 C 88 % 10.37 C
929 28-08-2018 05:20:00 12.3 C 88 % 10.37 C
930 28-08-2018 05:25:00 12.4 C 88 % 10.47 C
931 28-08-2018 05:30:00 12.5 C 87 % 10.4 C
932 28-08-2018 05:35:00 12.6 C 87 % 10.5 C
933 28-08-2018 05:40:00 12.7 C 87 % 10.59 C
934 28-08-2018 05:45:00 12.7 C 87 % 10.59 C
935 28-08-2018 05:50:00 12.7 C 87 % 10.59 C
936 28-08-2018 05:55:00 12.7 C 87 % 10.59 C
937 28-08-2018 06:00:00 12.8 C 86 % 10.52 C
938 28-08-2018 06:05:00 12.8 C 86 % 10.52 C
939 28-08-2018 06:10:00 12.8 C 86 % 10.52 C
940 28-08-2018 06:15:00 12.8 C 86 % 10.52 C
941 28-08-2018 06:20:00 12.8 C 86 % 10.52 C
942 28-08-2018 06:25:00 12.8 C 86 % 10.52 C
943 28-08-2018 06:30:00 12.8 C 86 % 10.52 C
944 28-08-2018 06:35:00 12.8 C 86 % 10.52 C
945 28-08-2018 06:40:00 12.8 C 86 % 10.52 C
946 28-08-2018 06:45:00 12.8 C 86 % 10.52 C
947 28-08-2018 06:50:00 12.8 C 86 % 10.52 C
948 28-08-2018 06:55:00 12.8 C 86 % 10.52 C
949 28-08-2018 07:00:00 12.9 C 86 % 10.62 C
950 28-08-2018 07:05:00 12.9 C 86 % 10.62 C
Sensor: Nr:Datum:Temp:Feuchte:Taupunkt:
Aussen-T/F 951 28-08-2018 07:10:00 12.9 C 86 % 10.62 C
952 28-08-2018 07:15:00 12.9 C 86 % 10.62 C
953 28-08-2018 07:20:00 13 C 86 % 10.72 C
954 28-08-2018 07:25:00 13 C 86 % 10.72 C
955 28-08-2018 07:30:00 13.1 C 86 % 10.81 C
956 28-08-2018 07:35:00 13.1 C 86 % 10.81 C
957 28-08-2018 07:40:00 13.2 C 86 % 10.91 C
958 28-08-2018 07:45:00 13.2 C 86 % 10.91 C
959 28-08-2018 07:50:00 13.3 C 86 % 11.01 C
960 28-08-2018 07:55:00 13.3 C 85 % 10.83 C
961 28-08-2018 08:00:00 13.4 C 84 % 10.75 C
962 28-08-2018 08:05:00 13.6 C 84 % 10.95 C
963 28-08-2018 08:10:00 13.6 C 84 % 10.95 C
964 28-08-2018 08:15:00 13.7 C 83 % 10.87 C
965 28-08-2018 08:20:00 13.7 C 83 % 10.87 C
966 28-08-2018 08:25:00 13.7 C 83 % 10.87 C
967 28-08-2018 08:30:00 13.7 C 84 % 11.05 C
968 28-08-2018 08:35:00 13.8 C 84 % 11.15 C
969 28-08-2018 08:40:00 13.8 C 84 % 11.15 C
970 28-08-2018 08:45:00 13.8 C 83 % 10.97 C
971 28-08-2018 08:50:00 13.8 C 83 % 10.97 C
972 28-08-2018 08:55:00 13.9 C 83 % 11.06 C
973 28-08-2018 09:00:00 13.9 C 83 % 11.06 C
974 28-08-2018 09:05:00 14 C 83 % 11.16 C
975 28-08-2018 09:10:00 14.1 C 83 % 11.26 C
Sensor: Nr:Datum:Temp:Feuchte:Taupunkt:
Aussen-T/F 976 28-08-2018 09:15:00 14.2 C 83 % 11.36 C
977 28-08-2018 09:20:00 14.2 C 83 % 11.36 C
978 28-08-2018 09:25:00 14.3 C 83 % 11.45 C
979 28-08-2018 09:30:00 14.3 C 83 % 11.45 C
980 28-08-2018 09:35:00 14.4 C 83 % 11.55 C
981 28-08-2018 09:40:00 14.6 C 84 % 11.93 C
982 28-08-2018 09:45:00 14.6 C 84 % 11.93 C
983 28-08-2018 09:50:00 14.7 C 84 % 12.03 C
984 28-08-2018 09:55:00 14.8 C 84 % 12.12 C
985 28-08-2018 10:00:00 14.8 C 82 % 11.76 C
986 28-08-2018 10:05:00 14.9 C 83 % 12.04 C
987 28-08-2018 10:10:00 15.1 C 83 % 12.24 C
988 28-08-2018 10:15:00 15.3 C 81 % 12.06 C
989 28-08-2018 10:20:00 15.4 C 81 % 12.16 C
990 28-08-2018 10:25:00 15.8 C 80 % 12.36 C
991 28-08-2018 10:30:00 16.1 C 79 % 12.46 C
992 28-08-2018 10:35:00 16.5 C 78 % 12.65 C
993 28-08-2018 10:40:00 17 C 77 % 12.94 C
994 28-08-2018 10:45:00 17.3 C 75 % 12.83 C
995 28-08-2018 10:50:00 17.5 C 74 % 12.82 C
996 28-08-2018 10:55:00 17.8 C 73 % 12.9 C
997 28-08-2018 11:00:00 18 C 71 % 12.67 C
998 28-08-2018 11:05:00 18.2 C 70 % 12.64 C
999 28-08-2018 11:10:00 18.4 C 69 % 12.61 C
1000 28-08-2018 11:15:00 18.5 C 69 % 12.71 C
Sensor: Nr:Datum:Temp:Feuchte:Taupunkt:
Aussen-T/F 1001 28-08-2018 11:20:00 18.7 C 66 % 12.22 C
1002 28-08-2018 11:25:00 18.8 C 67 % 12.55 C
1003 28-08-2018 11:30:00 18.9 C 67 % 12.64 C
1004 28-08-2018 11:35:00 19 C 66 % 12.51 C
1005 28-08-2018 11:40:00 19.1 C 65 % 12.37 C
1006 28-08-2018 11:45:00 19.2 C 65 % 12.47 C
1007 28-08-2018 11:50:00 19.3 C 64 % 12.32 C
1008 28-08-2018 11:55:00 19.3 C 64 % 12.32 C
1009 28-08-2018 12:00:00 19.3 C 63 % 12.09 C
1010 28-08-2018 12:05:00 19.5 C 63 % 12.27 C
1011 28-08-2018 12:10:00 19.6 C 62 % 12.13 C
1012 28-08-2018 12:15:00 19.6 C 62 % 12.13 C
1013 28-08-2018 12:20:00 19.7 C 62 % 12.22 C
1014 28-08-2018 12:25:00 19.8 C 61 % 12.07 C
1015 28-08-2018 12:30:00 19.9 C 60 % 11.91 C
1016 28-08-2018 12:35:00 19.9 C 61 % 12.16 C
1017 28-08-2018 12:40:00 20 C 60 % 12 C
1018 28-08-2018 12:45:00 20.1 C 60 % 12.1 C
1019 28-08-2018 12:50:00 20.3 C 59 % 12.03 C
1020 28-08-2018 12:55:00 20.4 C 59 % 12.12 C
1021 28-08-2018 13:00:00 20.4 C 59 % 12.12 C
1022 28-08-2018 13:05:00 20.5 C 59 % 12.22 C
1023 28-08-2018 13:10:00 20.6 C 58 % 12.05 C
1024 28-08-2018 13:15:00 20.7 C 56 % 11.61 C
1025 28-08-2018 13:20:00 20.7 C 56 % 11.61 C
Sensor: Nr:Datum:Temp:Feuchte:Taupunkt:
Aussen-T/F 1026 28-08-2018 13:25:00 20.8 C 57 % 11.97 C
1027 28-08-2018 13:30:00 20.9 C 56 % 11.8 C
1028 28-08-2018 13:35:00 21 C 56 % 11.89 C
1029 28-08-2018 13:40:00 21.1 C 56 % 11.99 C
1030 28-08-2018 13:45:00 21.4 C 55 % 11.99 C
1031 28-08-2018 13:50:00 21.7 C 54 % 11.99 C
1032 28-08-2018 13:55:00 21.9 C 54 % 12.18 C
1033 28-08-2018 14:00:00 22.1 C 53 % 12.08 C
1034 28-08-2018 14:05:00 22.3 C 53 % 12.26 C
1035 28-08-2018 14:10:00 22.4 C 52 % 12.07 C
1036 28-08-2018 14:15:00 22.4 C 52 % 12.07 C
1037 28-08-2018 14:20:00 22.5 C 52 % 12.16 C
1038 28-08-2018 14:25:00 22.5 C 52 % 12.16 C
1039 28-08-2018 14:30:00 22.6 C 53 % 12.54 C
1040 28-08-2018 14:35:00 22.7 C 51 % 12.05 C
1041 28-08-2018 14:40:00 22.8 C 50 % 11.84 C
1042 28-08-2018 14:45:00 23 C 50 % 12.02 C
1043 28-08-2018 14:50:00 23.2 C 50 % 12.21 C
1044 28-08-2018 14:55:00 23.3 C 50 % 12.3 C
1045 28-08-2018 15:00:00 23.3 C 49 % 11.99 C
1046 28-08-2018 15:05:00 23.6 C 49 % 12.27 C
1047 28-08-2018 15:10:00 23.7 C 48 % 12.04 C
1048 28-08-2018 15:15:00 23.7 C 49 % 12.36 C
1049 28-08-2018 15:20:00 23.6 C 48 % 11.95 C
1050 28-08-2018 15:25:00 23.6 C 49 % 12.27 C
Sensor: Nr:Datum:Temp:Feuchte:Taupunkt:
Aussen-T/F 1051 28-08-2018 15:30:00 23.8 C 48 % 12.14 C
1052 28-08-2018 15:35:00 23.8 C 48 % 12.14 C
1053 28-08-2018 15:40:00 23.8 C 48 % 12.14 C
1054 28-08-2018 15:45:00 23.9 C 48 % 12.23 C
1055 28-08-2018 15:50:00 23.9 C 48 % 12.23 C
1056 28-08-2018 15:55:00 24 C 47 % 12 C
1057 28-08-2018 16:00:00 24.1 C 46 % 11.76 C
1058 28-08-2018 16:05:00 24.1 C 47 % 12.09 C
1059 28-08-2018 16:10:00 24.2 C 46 % 11.85 C
1060 28-08-2018 16:15:00 24.2 C 46 % 11.85 C
1061 28-08-2018 16:20:00 24.3 C 47 % 12.27 C
1062 28-08-2018 16:25:00 24.8 C 47 % 12.73 C
1063 28-08-2018 16:30:00 25.3 C 44 % 12.18 C
1064 28-08-2018 16:35:00 25.7 C 43 % 12.19 C
1065 28-08-2018 16:40:00 26.1 C 42 % 12.19 C
1066 28-08-2018 16:45:00 26.2 C 42 % 12.28 C
1067 28-08-2018 16:50:00 26.3 C 43 % 12.73 C
1068 28-08-2018 16:55:00 26.4 C 41 % 12.09 C
1069 28-08-2018 17:00:00 26.6 C 41 % 12.27 C
1070 28-08-2018 17:05:00 26.7 C 41 % 12.36 C
1071 28-08-2018 17:10:00 26.8 C 40 % 12.07 C
1072 28-08-2018 17:15:00 26.8 C 40 % 12.07 C
1073 28-08-2018 17:20:00 26.3 C 41 % 12 C
1074 28-08-2018 17:25:00 26.1 C 43 % 12.55 C
1075 28-08-2018 17:30:00 26.2 C 42 % 12.28 C
Sensor: Nr:Datum:Temp:Feuchte:Taupunkt:
Aussen-T/F 1076 28-08-2018 17:35:00 26.3 C 41 % 12 C
1077 28-08-2018 17:40:00 26.6 C 41 % 12.27 C
1078 28-08-2018 17:45:00 26.5 C 41 % 12.18 C
1079 28-08-2018 17:50:00 26.3 C 41 % 12 C
1080 28-08-2018 17:55:00 25.9 C 43 % 12.37 C
1081 28-08-2018 18:00:00 25.9 C 43 % 12.37 C
1082 28-08-2018 18:05:00 26 C 41 % 11.73 C
1083 28-08-2018 18:10:00 26.1 C 42 % 12.19 C
1084 28-08-2018 18:15:00 26 C 42 % 12.1 C
1085 28-08-2018 18:20:00 25.9 C 42 % 12.01 C
1086 28-08-2018 18:25:00 25.9 C 41 % 11.64 C
1087 28-08-2018 18:30:00 25.9 C 42 % 12.01 C
1088 28-08-2018 18:35:00 26.1 C 42 % 12.19 C
1089 28-08-2018 18:40:00 26.3 C 43 % 12.73 C
1090 28-08-2018 18:45:00 26.5 C 41 % 12.18 C
1091 28-08-2018 18:50:00 26.7 C 41 % 12.36 C
1092 28-08-2018 18:55:00 26.7 C 43 % 13.09 C
1093 28-08-2018 19:00:00 26.6 C 42 % 12.64 C
1094 28-08-2018 19:05:00 26.3 C 41 % 12 C
1095 28-08-2018 19:10:00 26.3 C 44 % 13.08 C
1096 28-08-2018 19:15:00 26.1 C 43 % 12.55 C
1097 28-08-2018 19:20:00 25.9 C 45 % 13.06 C
1098 28-08-2018 19:25:00 25.6 C 47 % 13.45 C
1099 28-08-2018 19:30:00 25.1 C 48 % 13.32 C
1100 28-08-2018 19:35:00 24.7 C 49 % 13.27 C
Sensor: Nr:Datum:Temp:Feuchte:Taupunkt:
Aussen-T/F 1101 28-08-2018 19:40:00 24.3 C 50 % 13.22 C
1102 28-08-2018 19:45:00 23.8 C 51 % 13.06 C
1103 28-08-2018 19:50:00 23.4 C 52 % 12.99 C
1104 28-08-2018 19:55:00 22.9 C 53 % 12.82 C
1105 28-08-2018 20:00:00 22.5 C 55 % 13.01 C
1106 28-08-2018 20:05:00 22 C 56 % 12.82 C
1107 28-08-2018 20:10:00 21.5 C 57 % 12.63 C
1108 28-08-2018 20:15:00 21.1 C 58 % 12.52 C
1109 28-08-2018 20:20:00 20.6 C 59 % 12.31 C
1110 28-08-2018 20:25:00 20.1 C 60 % 12.1 C
1111 28-08-2018 20:30:00 19.7 C 61 % 11.97 C
1112 28-08-2018 20:35:00 19.3 C 61 % 11.6 C
1113 28-08-2018 20:40:00 19 C 62 % 11.56 C
1114 28-08-2018 20:45:00 18.8 C 62 % 11.37 C
1115 28-08-2018 20:50:00 18.6 C 63 % 11.42 C
1116 28-08-2018 20:55:00 18.5 C 63 % 11.33 C
1117 28-08-2018 21:00:00 18.3 C 63 % 11.14 C
1118 28-08-2018 21:05:00 18.3 C 64 % 11.38 C
1119 28-08-2018 21:10:00 18.2 C 64 % 11.28 C
1120 28-08-2018 21:15:00 18.1 C 65 % 11.42 C
1121 28-08-2018 21:20:00 18 C 64 % 11.09 C
1122 28-08-2018 21:25:00 17.9 C 64 % 11 C
1123 28-08-2018 21:30:00 17.8 C 64 % 10.9 C
1124 28-08-2018 21:35:00 17.8 C 65 % 11.14 C
1125 28-08-2018 21:40:00 17.7 C 65 % 11.04 C
Sensor: Nr:Datum:Temp:Feuchte:Taupunkt:
Aussen-T/F 1126 28-08-2018 21:45:00 17.6 C 65 % 10.95 C
1127 28-08-2018 21:50:00 17.5 C 65 % 10.85 C
1128 28-08-2018 21:55:00 17.3 C 66 % 10.89 C
1129 28-08-2018 22:00:00 17.2 C 66 % 10.8 C
1130 28-08-2018 22:05:00 17.1 C 66 % 10.7 C
1131 28-08-2018 22:10:00 16.9 C 67 % 10.74 C
1132 28-08-2018 22:15:00 16.8 C 67 % 10.64 C
1133 28-08-2018 22:20:00 16.7 C 67 % 10.55 C
1134 28-08-2018 22:25:00 16.6 C 67 % 10.45 C
1135 28-08-2018 22:30:00 16.6 C 68 % 10.67 C
1136 28-08-2018 22:35:00 16.4 C 68 % 10.48 C
1137 28-08-2018 22:40:00 16.3 C 68 % 10.39 C
1138 28-08-2018 22:45:00 16.3 C 68 % 10.39 C
1139 28-08-2018 22:50:00 16.3 C 68 % 10.39 C
1140 28-08-2018 22:55:00 16.2 C 68 % 10.29 C
1141 28-08-2018 23:00:00 16.2 C 69 % 10.51 C
1142 28-08-2018 23:05:00 16.1 C 69 % 10.42 C
1143 28-08-2018 23:10:00 15.9 C 69 % 10.23 C
1144 28-08-2018 23:15:00 15.8 C 70 % 10.34 C
1145 28-08-2018 23:20:00 15.8 C 70 % 10.34 C
1146 28-08-2018 23:25:00 15.7 C 71 % 10.46 C
1147 28-08-2018 23:30:00 15.6 C 71 % 10.37 C
1148 28-08-2018 23:35:00 15.4 C 71 % 10.17 C
1149 28-08-2018 23:40:00 15.4 C 72 % 10.38 C
1150 28-08-2018 23:45:00 15.3 C 72 % 10.29 C
Sensor: Nr:Datum:Temp:Feuchte:Taupunkt:
Aussen-T/F 1151 28-08-2018 23:50:00 15.2 C 72 % 10.19 C
1152 28-08-2018 23:55:00 15.1 C 73 % 10.3 C
1153 29-08-2018 00:00:00 15 C 73 % 10.2 C
1154 29-08-2018 00:05:00 14.9 C 73 % 10.11 C
1155 29-08-2018 00:10:00 14.9 C 73 % 10.11 C
1156 29-08-2018 00:15:00 14.8 C 74 % 10.22 C
1157 29-08-2018 00:20:00 14.7 C 74 % 10.12 C
1158 29-08-2018 00:25:00 14.7 C 74 % 10.12 C
1159 29-08-2018 00:30:00 14.6 C 76 % 10.42 C
1160 29-08-2018 00:35:00 14.5 C 75 % 10.13 C
1161 29-08-2018 00:40:00 14.4 C 75 % 10.03 C
1162 29-08-2018 00:45:00 14.3 C 76 % 10.13 C
1163 29-08-2018 00:50:00 14.2 C 76 % 10.03 C
1164 29-08-2018 00:55:00 14.1 C 76 % 9.94 C
1165 29-08-2018 01:00:00 13.9 C 77 % 9.94 C
1166 29-08-2018 01:05:00 13.9 C 77 % 9.94 C
1167 29-08-2018 01:10:00 14 C 78 % 10.23 C
1168 29-08-2018 01:15:00 14 C 77 % 10.04 C
1169 29-08-2018 01:20:00 13.8 C 78 % 10.03 C
1170 29-08-2018 01:25:00 13.8 C 79 % 10.22 C
1171 29-08-2018 01:30:00 13.7 C 78 % 9.94 C
1172 29-08-2018 01:35:00 13.5 C 79 % 9.93 C
1173 29-08-2018 01:40:00 13.3 C 79 % 9.74 C
1174 29-08-2018 01:45:00 13.2 C 80 % 9.83 C
1175 29-08-2018 01:50:00 13.2 C 80 % 9.83 C
Sensor: Nr:Datum:Temp:Feuchte:Taupunkt:
Aussen-T/F 1176 29-08-2018 01:55:00 13.1 C 80 % 9.73 C
1177 29-08-2018 02:00:00 12.9 C 81 % 9.72 C
1178 29-08-2018 02:05:00 12.9 C 81 % 9.72 C
1179 29-08-2018 02:10:00 12.8 C 82 % 9.81 C
1180 29-08-2018 02:15:00 12.8 C 82 % 9.81 C
1181 29-08-2018 02:20:00 12.8 C 82 % 9.81 C
1182 29-08-2018 02:25:00 12.7 C 82 % 9.71 C
1183 29-08-2018 02:30:00 12.6 C 82 % 9.61 C
1184 29-08-2018 02:35:00 12.4 C 82 % 9.42 C
1185 29-08-2018 02:40:00 12.4 C 83 % 9.6 C
1186 29-08-2018 02:45:00 12.3 C 83 % 9.5 C
1187 29-08-2018 02:50:00 12.2 C 83 % 9.4 C
1188 29-08-2018 02:55:00 12.1 C 83 % 9.3 C
1189 29-08-2018 03:00:00 11.9 C 83 % 9.11 C
1190 29-08-2018 03:05:00 11.8 C 84 % 9.19 C
1191 29-08-2018 03:10:00 11.7 C 84 % 9.09 C
1192 29-08-2018 03:15:00 11.7 C 85 % 9.27 C
1193 29-08-2018 03:20:00 11.7 C 85 % 9.27 C
1194 29-08-2018 03:25:00 11.6 C 85 % 9.17 C
1195 29-08-2018 03:30:00 11.6 C 85 % 9.17 C
1196 29-08-2018 03:35:00 11.6 C 86 % 9.34 C
1197 29-08-2018 03:40:00 11.4 C 85 % 8.97 C
1198 29-08-2018 03:45:00 11.4 C 86 % 9.14 C
1199 29-08-2018 03:50:00 11.3 C 86 % 9.05 C
1200 29-08-2018 03:55:00 11.3 C 86 % 9.05 C
Sensor: Nr:Datum:Temp:Feuchte:Taupunkt:
Aussen-T/F 1201 29-08-2018 04:00:00 11.3 C 87 % 9.22 C
1202 29-08-2018 04:05:00 11.3 C 86 % 9.05 C
1203 29-08-2018 04:10:00 11.3 C 87 % 9.22 C
1204 29-08-2018 04:15:00 11.3 C 87 % 9.22 C
1205 29-08-2018 04:20:00 11.3 C 87 % 9.22 C
1206 29-08-2018 04:25:00 11.2 C 87 % 9.12 C
1207 29-08-2018 04:30:00 11.2 C 87 % 9.12 C
1208 29-08-2018 04:35:00 11.2 C 87 % 9.12 C
1209 29-08-2018 04:40:00 11.2 C 88 % 9.29 C
1210 29-08-2018 04:45:00 11.1 C 87 % 9.02 C
1211 29-08-2018 04:50:00 11.1 C 87 % 9.02 C
1212 29-08-2018 04:55:00 11.1 C 87 % 9.02 C
1213 29-08-2018 05:00:00 11 C 87 % 8.92 C
1214 29-08-2018 05:05:00 10.9 C 87 % 8.82 C
1215 29-08-2018 05:10:00 10.9 C 87 % 8.82 C
1216 29-08-2018 05:15:00 10.8 C 88 % 8.89 C
1217 29-08-2018 05:20:00 10.8 C 87 % 8.73 C
1218 29-08-2018 05:25:00 10.7 C 88 % 8.8 C
1219 29-08-2018 05:30:00 10.7 C 88 % 8.8 C
1220 29-08-2018 05:35:00 10.6 C 88 % 8.7 C
1221 29-08-2018 05:40:00 10.6 C 88 % 8.7 C
1222 29-08-2018 05:45:00 10.6 C 88 % 8.7 C
1223 29-08-2018 05:50:00 10.6 C 89 % 8.86 C
1224 29-08-2018 05:55:00 10.5 C 88 % 8.6 C
1225 29-08-2018 06:00:00 10.4 C 88 % 8.5 C
Sensor: Nr:Datum:Temp:Feuchte:Taupunkt:
Aussen-T/F 1226 29-08-2018 06:05:00 10.4 C 89 % 8.67 C
1227 29-08-2018 06:10:00 10.3 C 89 % 8.57 C
1228 29-08-2018 06:15:00 10.3 C 89 % 8.57 C
1229 29-08-2018 06:20:00 10.3 C 89 % 8.57 C
1230 29-08-2018 06:25:00 10.2 C 89 % 8.47 C
1231 29-08-2018 06:30:00 10.2 C 89 % 8.47 C
1232 29-08-2018 06:35:00 10.2 C 89 % 8.47 C
1233 29-08-2018 06:40:00 10.2 C 89 % 8.47 C
1234 29-08-2018 06:45:00 10.1 C 89 % 8.37 C
1235 29-08-2018 06:50:00 10.1 C 90 % 8.54 C
1236 29-08-2018 06:55:00 10.1 C 90 % 8.54 C
1237 29-08-2018 07:00:00 10.1 C 90 % 8.54 C
1238 29-08-2018 07:05:00 10.2 C 90 % 8.64 C
1239 29-08-2018 07:10:00 10.2 C 90 % 8.64 C
1240 29-08-2018 07:15:00 10.3 C 91 % 8.9 C
1241 29-08-2018 07:20:00 10.4 C 91 % 9 C
1242 29-08-2018 07:25:00 10.4 C 90 % 8.83 C
1243 29-08-2018 07:30:00 10.4 C 90 % 8.83 C
1244 29-08-2018 07:35:00 10.4 C 90 % 8.83 C
1245 29-08-2018 07:40:00 10.5 C 90 % 8.93 C
1246 29-08-2018 07:45:00 10.5 C 90 % 8.93 C
1247 29-08-2018 07:50:00 10.6 C 90 % 9.03 C
1248 29-08-2018 07:55:00 10.6 C 91 % 9.19 C
1249 29-08-2018 08:00:00 10.7 C 91 % 9.29 C
1250 29-08-2018 08:05:00 10.7 C 91 % 9.29 C
Sensor: Nr:Datum:Temp:Feuchte:Taupunkt:
Aussen-T/F 1251 29-08-2018 08:10:00 10.8 C 90 % 9.23 C
1252 29-08-2018 08:15:00 10.8 C 90 % 9.23 C
1253 29-08-2018 08:20:00 10.9 C 90 % 9.33 C
1254 29-08-2018 08:25:00 10.9 C 90 % 9.33 C
1255 29-08-2018 08:30:00 11 C 90 % 9.42 C
1256 29-08-2018 08:35:00 11.1 C 90 % 9.52 C
1257 29-08-2018 08:40:00 11.2 C 90 % 9.62 C
1258 29-08-2018 08:45:00 11.3 C 90 % 9.72 C
1259 29-08-2018 08:50:00 11.4 C 90 % 9.82 C
1260 29-08-2018 08:55:00 11.5 C 90 % 9.92 C
1261 29-08-2018 09:00:00 11.6 C 90 % 10.02 C
1262 29-08-2018 09:05:00 11.7 C 90 % 10.12 C
1263 29-08-2018 09:10:00 11.7 C 90 % 10.12 C
1264 29-08-2018 09:15:00 11.8 C 90 % 10.21 C
1265 29-08-2018 09:20:00 11.9 C 90 % 10.31 C
1266 29-08-2018 09:25:00 12.1 C 90 % 10.51 C
1267 29-08-2018 09:30:00 12.2 C 89 % 10.44 C
1268 29-08-2018 09:35:00 12.3 C 90 % 10.71 C
1269 29-08-2018 09:40:00 12.5 C 90 % 10.91 C
1270 29-08-2018 09:45:00 12.7 C 90 % 11.1 C
1271 29-08-2018 09:50:00 12.8 C 89 % 11.03 C
1272 29-08-2018 09:55:00 13.1 C 89 % 11.33 C
1273 29-08-2018 10:00:00 13.3 C 89 % 11.53 C
1274 29-08-2018 10:05:00 13.6 C 89 % 11.82 C
1275 29-08-2018 10:10:00 13.8 C 88 % 11.85 C
Sensor: Nr:Datum:Temp:Feuchte:Taupunkt:
Aussen-T/F 1276 29-08-2018 10:15:00 14.1 C 87 % 11.97 C
1277 29-08-2018 10:20:00 14.4 C 87 % 12.27 C
1278 29-08-2018 10:25:00 14.7 C 86 % 12.38 C
1279 29-08-2018 10:30:00 15 C 86 % 12.68 C
1280 29-08-2018 10:35:00 15.3 C 84 % 12.61 C
1281 29-08-2018 10:40:00 15.7 C 84 % 13.01 C
1282 29-08-2018 10:45:00 15.9 C 83 % 13.02 C
1283 29-08-2018 10:50:00 16.3 C 81 % 13.04 C
1284 29-08-2018 10:55:00 16.5 C 80 % 13.04 C
1285 29-08-2018 11:00:00 16.7 C 78 % 12.85 C
1286 29-08-2018 11:05:00 17.1 C 78 % 13.24 C
1287 29-08-2018 11:10:00 17.4 C 77 % 13.33 C
1288 29-08-2018 11:15:00 17.7 C 75 % 13.22 C
1289 29-08-2018 11:20:00 18.1 C 74 % 13.4 C
1290 29-08-2018 11:25:00 18.4 C 72 % 13.26 C
1291 29-08-2018 11:30:00 18.7 C 72 % 13.55 C
1292 29-08-2018 11:35:00 19.1 C 70 % 13.5 C
1293 29-08-2018 11:40:00 19.4 C 66 % 12.89 C
1294 29-08-2018 11:45:00 19.8 C 68 % 13.73 C
1295 29-08-2018 11:50:00 20.2 C 66 % 13.65 C
1296 29-08-2018 11:55:00 20.7 C 63 % 13.41 C
1297 29-08-2018 12:00:00 21.1 C 62 % 13.54 C
1298 29-08-2018 12:05:00 21.6 C 61 % 13.76 C
1299 29-08-2018 12:10:00 21.9 C 61 % 14.04 C
1300 29-08-2018 12:15:00 22.2 C 58 % 13.55 C
Sensor: Nr:Datum:Temp:Feuchte:Taupunkt:
Aussen-T/F 1301 29-08-2018 12:20:00 22.6 C 56 % 13.38 C
1302 29-08-2018 12:25:00 22.9 C 58 % 14.2 C
1303 29-08-2018 12:30:00 23.2 C 55 % 13.66 C
1304 29-08-2018 12:35:00 23.5 C 55 % 13.94 C
1305 29-08-2018 12:40:00 23.7 C 54 % 13.84 C
1306 29-08-2018 12:45:00 24.1 C 54 % 14.21 C
1307 29-08-2018 12:50:00 24.4 C 53 % 14.2 C
1308 29-08-2018 12:55:00 24.7 C 52 % 14.19 C
1309 29-08-2018 13:00:00 24.9 C 52 % 14.37 C
1310 29-08-2018 13:05:00 25.1 C 50 % 13.95 C
1311 29-08-2018 13:10:00 25.3 C 50 % 14.13 C
1312 29-08-2018 13:15:00 25.6 C 50 % 14.41 C
1313 29-08-2018 13:20:00 25.7 C 50 % 14.5 C
1314 29-08-2018 13:25:00 25.8 C 50 % 14.59 C
1315 29-08-2018 13:30:00 25.9 C 50 % 14.68 C
1316 29-08-2018 13:35:00 25.9 C 49 % 14.37 C
1317 29-08-2018 13:40:00 26.1 C 51 % 15.17 C
1318 29-08-2018 13:45:00 26.1 C 49 % 14.55 C
1319 29-08-2018 13:50:00 26.2 C 48 % 14.32 C
1320 29-08-2018 13:55:00 26.2 C 50 % 14.96 C
1321 29-08-2018 14:00:00 26.2 C 51 % 15.27 C
1322 29-08-2018 14:05:00 26.3 C 50 % 15.05 C
1323 29-08-2018 14:10:00 26.3 C 48 % 14.42 C
1324 29-08-2018 14:15:00 26.5 C 47 % 14.27 C
1325 29-08-2018 14:20:00 26.7 C 47 % 14.45 C
Sensor: Nr:Datum:Temp:Feuchte:Taupunkt:
Aussen-T/F 1326 29-08-2018 14:25:00 26.8 C 47 % 14.55 C
1327 29-08-2018 14:30:00 27 C 46 % 14.39 C
1328 29-08-2018 14:35:00 27.2 C 46 % 14.58 C
1329 29-08-2018 14:40:00 27.3 C 46 % 14.67 C
1330 29-08-2018 14:45:00 27.4 C 45 % 14.42 C
1331 29-08-2018 14:50:00 27.7 C 45 % 14.69 C
1332 29-08-2018 14:55:00 28.1 C 44 % 14.7 C
1333 29-08-2018 15:00:00 28.2 C 43 % 14.44 C
1334 29-08-2018 15:05:00 28.2 C 44 % 14.79 C
1335 29-08-2018 15:10:00 28.1 C 47 % 15.73 C
1336 29-08-2018 15:15:00 27.9 C 44 % 14.52 C
1337 29-08-2018 15:20:00 27.9 C 48 % 15.87 C
1338 29-08-2018 15:25:00 27.8 C 45 % 14.78 C
1339 29-08-2018 15:30:00 27.7 C 47 % 15.36 C
1340 29-08-2018 15:35:00 27.6 C 49 % 15.92 C
1341 29-08-2018 15:40:00 27.3 C 50 % 15.97 C
1342 29-08-2018 15:45:00 26.9 C 49 % 15.28 C
1343 29-08-2018 15:50:00 26.6 C 50 % 15.32 C
1344 29-08-2018 15:55:00 26.2 C 53 % 15.87 C
1345 29-08-2018 16:00:00 25.2 C 63 % 17.65 C
1346 29-08-2018 16:05:00 23.9 C 71 % 18.32 C
1347 29-08-2018 16:10:00 22.8 C 75 % 18.14 C
1348 29-08-2018 16:15:00 22.1 C 79 % 18.29 C
1349 29-08-2018 16:20:00 21.6 C 82 % 18.39 C
1350 29-08-2018 16:25:00 21.3 C 84 % 18.49 C
Sensor: Nr:Datum:Temp:Feuchte:Taupunkt:
Aussen-T/F 1351 29-08-2018 16:30:00 21.2 C 84 % 18.39 C
1352 29-08-2018 16:35:00 20.9 C 85 % 18.28 C
1353 29-08-2018 16:40:00 20.8 C 86 % 18.37 C
1354 29-08-2018 16:45:00 20.7 C 87 % 18.46 C
1355 29-08-2018 16:50:00 20.6 C 87 % 18.36 C
1356 29-08-2018 16:55:00 20.4 C 88 % 18.34 C
1357 29-08-2018 17:00:00 20.3 C 88 % 18.25 C
1358 29-08-2018 17:05:00 20.3 C 88 % 18.25 C
1359 29-08-2018 17:10:00 20.2 C 88 % 18.15 C
1360 29-08-2018 17:15:00 20.1 C 88 % 18.05 C
1361 29-08-2018 17:20:00 20.1 C 89 % 18.23 C
1362 29-08-2018 17:25:00 20 C 89 % 18.13 C
1363 29-08-2018 17:30:00 20 C 89 % 18.13 C
1364 29-08-2018 17:35:00 19.9 C 89 % 18.03 C
1365 29-08-2018 17:40:00 19.9 C 90 % 18.21 C
1366 29-08-2018 17:45:00 20 C 90 % 18.31 C
1367 29-08-2018 17:50:00 20.1 C 90 % 18.41 C
1368 29-08-2018 17:55:00 20.2 C 91 % 18.68 C
1369 29-08-2018 18:00:00 20.4 C 91 % 18.88 C
1370 29-08-2018 18:05:00 20.8 C 92 % 19.45 C
1371 29-08-2018 18:10:00 21.5 C 91 % 19.97 C
1372 29-08-2018 18:15:00 21.9 C 88 % 19.82 C
1373 29-08-2018 18:20:00 22.4 C 86 % 19.94 C
1374 29-08-2018 18:25:00 22.8 C 83 % 19.76 C
1375 29-08-2018 18:30:00 23 C 84 % 20.15 C
Sensor: Nr:Datum:Temp:Feuchte:Taupunkt:
Aussen-T/F 1376 29-08-2018 18:35:00 23.1 C 83 % 20.05 C
1377 29-08-2018 18:40:00 22.9 C 82 % 19.66 C
1378 29-08-2018 18:45:00 22.6 C 81 % 19.17 C
1379 29-08-2018 18:50:00 22.2 C 82 % 18.98 C
1380 29-08-2018 18:55:00 21.9 C 82 % 18.69 C
1381 29-08-2018 19:00:00 21.6 C 83 % 18.59 C
1382 29-08-2018 19:05:00 21.2 C 84 % 18.39 C
1383 29-08-2018 19:10:00 20.9 C 85 % 18.28 C
1384 29-08-2018 19:15:00 20.7 C 86 % 18.27 C
1385 29-08-2018 19:20:00 20.5 C 86 % 18.08 C
1386 29-08-2018 19:25:00 20.3 C 87 % 18.06 C
1387 29-08-2018 19:30:00 20.2 C 87 % 17.97 C
1388 29-08-2018 19:35:00 20 C 87 % 17.77 C
1389 29-08-2018 19:40:00 19.9 C 88 % 17.85 C
1390 29-08-2018 19:45:00 19.8 C 88 % 17.75 C
1391 29-08-2018 19:50:00 19.7 C 89 % 17.84 C
1392 29-08-2018 19:55:00 19.6 C 89 % 17.74 C
1393 29-08-2018 20:00:00 19.6 C 89 % 17.74 C
1394 29-08-2018 20:05:00 19.5 C 89 % 17.64 C
1395 29-08-2018 20:10:00 19.4 C 90 % 17.72 C
1396 29-08-2018 20:15:00 19.4 C 90 % 17.72 C
1397 29-08-2018 20:20:00 19.3 C 90 % 17.62 C
1398 29-08-2018 20:25:00 19.3 C 90 % 17.62 C
1399 29-08-2018 20:30:00 19.3 C 90 % 17.62 C
1400 29-08-2018 20:35:00 19.3 C 91 % 17.79 C
Sensor: Nr:Datum:Temp:Feuchte:Taupunkt:
Aussen-T/F 1401 29-08-2018 20:40:00 19.3 C 91 % 17.79 C
1402 29-08-2018 20:45:00 19.3 C 92 % 17.97 C
1403 29-08-2018 20:50:00 19.3 C 92 % 17.97 C
1404 29-08-2018 20:55:00 19 C 91 % 17.5 C
1405 29-08-2018 21:00:00 18.7 C 91 % 17.2 C
1406 29-08-2018 21:05:00 18.6 C 91 % 17.1 C
1407 29-08-2018 21:10:00 18.4 C 91 % 16.9 C
1408 29-08-2018 21:15:00 18.3 C 92 % 16.98 C
1409 29-08-2018 21:20:00 18.2 C 92 % 16.88 C
1410 29-08-2018 21:25:00 18.2 C 92 % 16.88 C
1411 29-08-2018 21:30:00 18.1 C 92 % 16.78 C
1412 29-08-2018 21:35:00 18 C 92 % 16.68 C
1413 29-08-2018 21:40:00 17.9 C 92 % 16.58 C
1414 29-08-2018 21:45:00 17.9 C 92 % 16.58 C
1415 29-08-2018 21:50:00 17.9 C 93 % 16.75 C
1416 29-08-2018 21:55:00 17.8 C 93 % 16.65 C
1417 29-08-2018 22:00:00 17.8 C 93 % 16.65 C
1418 29-08-2018 22:05:00 17.8 C 93 % 16.65 C
1419 29-08-2018 22:10:00 17.8 C 93 % 16.65 C
1420 29-08-2018 22:15:00 17.7 C 93 % 16.55 C
1421 29-08-2018 22:20:00 17.7 C 93 % 16.55 C
1422 29-08-2018 22:25:00 17.7 C 93 % 16.55 C
1423 29-08-2018 22:30:00 17.7 C 94 % 16.72 C
1424 29-08-2018 22:35:00 17.7 C 93 % 16.55 C
1425 29-08-2018 22:40:00 17.7 C 94 % 16.72 C
Sensor: Nr:Datum:Temp:Feuchte:Taupunkt:
Aussen-T/F 1426 29-08-2018 22:45:00 17.7 C 94 % 16.72 C
1427 29-08-2018 22:50:00 17.6 C 94 % 16.62 C
1428 29-08-2018 22:55:00 17.6 C 94 % 16.62 C
1429 29-08-2018 23:00:00 17.6 C 94 % 16.62 C
1430 29-08-2018 23:05:00 17.5 C 94 % 16.52 C
1431 29-08-2018 23:10:00 17.4 C 94 % 16.42 C
1432 29-08-2018 23:15:00 17.3 C 94 % 16.33 C
1433 29-08-2018 23:20:00 17.3 C 94 % 16.33 C
1434 29-08-2018 23:25:00 17.2 C 94 % 16.23 C
1435 29-08-2018 23:30:00 17.2 C 94 % 16.23 C
1436 29-08-2018 23:35:00 17.2 C 94 % 16.23 C
1437 29-08-2018 23:40:00 17.2 C 94 % 16.23 C
1438 29-08-2018 23:45:00 17.2 C 94 % 16.23 C
1439 29-08-2018 23:50:00 17.2 C 94 % 16.23 C
1440 29-08-2018 23:55:00 17.2 C 94 % 16.23 C
1441 30-08-2018 00:00:00 17.2 C 94 % 16.23 C
1442 30-08-2018 00:05:00 17.2 C 94 % 16.23 C
1443 30-08-2018 00:10:00 17.2 C 94 % 16.23 C
1444 30-08-2018 00:15:00 17.2 C 95 % 16.39 C
1445 30-08-2018 00:20:00 17.3 C 95 % 16.49 C
1446 30-08-2018 00:25:00 17.3 C 95 % 16.49 C
1447 30-08-2018 00:30:00 17.2 C 95 % 16.39 C
1448 30-08-2018 00:35:00 17.2 C 95 % 16.39 C
1449 30-08-2018 00:40:00 17.2 C 95 % 16.39 C
1450 30-08-2018 00:45:00 17.1 C 95 % 16.29 C
Sensor: Nr:Datum:Temp:Feuchte:Taupunkt:
Aussen-T/F 1451 30-08-2018 00:50:00 17.1 C 94 % 16.13 C
1452 30-08-2018 00:55:00 16.9 C 94 % 15.93 C
1453 30-08-2018 01:00:00 16.9 C 94 % 15.93 C
1454 30-08-2018 01:05:00 16.9 C 95 % 16.09 C
1455 30-08-2018 01:10:00 16.8 C 95 % 15.99 C
1456 30-08-2018 01:15:00 16.7 C 95 % 15.9 C
1457 30-08-2018 01:20:00 16.7 C 94 % 15.73 C
1458 30-08-2018 01:25:00 16.6 C 94 % 15.63 C
1459 30-08-2018 01:30:00 16.6 C 94 % 15.63 C
1460 30-08-2018 01:35:00 16.4 C 94 % 15.43 C
1461 30-08-2018 01:40:00 16.3 C 94 % 15.33 C
1462 30-08-2018 01:45:00 16.2 C 93 % 15.07 C
1463 30-08-2018 01:50:00 16.1 C 93 % 14.97 C
1464 30-08-2018 01:55:00 16 C 93 % 14.87 C
1465 30-08-2018 02:00:00 16 C 93 % 14.87 C
1466 30-08-2018 02:05:00 15.9 C 92 % 14.6 C
1467 30-08-2018 02:10:00 16 C 92 % 14.7 C
1468 30-08-2018 02:15:00 16 C 92 % 14.7 C
1469 30-08-2018 02:20:00 16 C 92 % 14.7 C
1470 30-08-2018 02:25:00 15.9 C 92 % 14.6 C
1471 30-08-2018 02:30:00 15.9 C 91 % 14.43 C
1472 30-08-2018 02:35:00 15.9 C 92 % 14.6 C
1473 30-08-2018 02:40:00 15.9 C 92 % 14.6 C
1474 30-08-2018 02:45:00 15.9 C 92 % 14.6 C
1475 30-08-2018 02:50:00 15.9 C 92 % 14.6 C
Sensor: Nr:Datum:Temp:Feuchte:Taupunkt:
Aussen-T/F 1476 30-08-2018 02:55:00 15.9 C 92 % 14.6 C
1477 30-08-2018 03:00:00 15.9 C 91 % 14.43 C
1478 30-08-2018 03:05:00 15.9 C 91 % 14.43 C
1479 30-08-2018 03:10:00 15.9 C 91 % 14.43 C
1480 30-08-2018 03:15:00 15.9 C 91 % 14.43 C
1481 30-08-2018 03:20:00 15.9 C 91 % 14.43 C
1482 30-08-2018 03:25:00 15.9 C 91 % 14.43 C
1483 30-08-2018 03:30:00 15.9 C 91 % 14.43 C
1484 30-08-2018 03:35:00 15.9 C 91 % 14.43 C
1485 30-08-2018 03:40:00 15.8 C 91 % 14.33 C
1486 30-08-2018 03:45:00 15.8 C 91 % 14.33 C
1487 30-08-2018 03:50:00 15.8 C 91 % 14.33 C
1488 30-08-2018 03:55:00 15.7 C 91 % 14.24 C
1489 30-08-2018 04:00:00 15.7 C 90 % 14.06 C
1490 30-08-2018 04:05:00 15.6 C 90 % 13.97 C
1491 30-08-2018 04:10:00 15.6 C 90 % 13.97 C
1492 30-08-2018 04:15:00 15.6 C 90 % 13.97 C
1493 30-08-2018 04:20:00 15.6 C 90 % 13.97 C
1494 30-08-2018 04:25:00 15.6 C 90 % 13.97 C
1495 30-08-2018 04:30:00 15.6 C 90 % 13.97 C
1496 30-08-2018 04:35:00 15.6 C 90 % 13.97 C
1497 30-08-2018 04:40:00 15.6 C 90 % 13.97 C
1498 30-08-2018 04:45:00 15.6 C 90 % 13.97 C
1499 30-08-2018 04:50:00 15.6 C 90 % 13.97 C
1500 30-08-2018 04:55:00 15.6 C 90 % 13.97 C
Sensor: Nr:Datum:Temp:Feuchte:Taupunkt:
Aussen-T/F 1501 30-08-2018 05:00:00 15.5 C 90 % 13.87 C
1502 30-08-2018 05:05:00 15.5 C 90 % 13.87 C
1503 30-08-2018 05:10:00 15.5 C 90 % 13.87 C
1504 30-08-2018 05:15:00 15.4 C 90 % 13.77 C
1505 30-08-2018 05:20:00 15.4 C 90 % 13.77 C
1506 30-08-2018 05:25:00 15.4 C 90 % 13.77 C
1507 30-08-2018 05:30:00 15.4 C 90 % 13.77 C
1508 30-08-2018 05:35:00 15.4 C 89 % 13.6 C
1509 30-08-2018 05:40:00 15.3 C 89 % 13.5 C
1510 30-08-2018 05:45:00 15.3 C 89 % 13.5 C
1511 30-08-2018 05:50:00 15.3 C 89 % 13.5 C
1512 30-08-2018 05:55:00 15.3 C 89 % 13.5 C
1513 30-08-2018 06:00:00 15.2 C 90 % 13.57 C
1514 30-08-2018 06:05:00 15.2 C 90 % 13.57 C
1515 30-08-2018 06:10:00 15.2 C 90 % 13.57 C
1516 30-08-2018 06:15:00 15.2 C 90 % 13.57 C
1517 30-08-2018 06:20:00 15.1 C 90 % 13.47 C
1518 30-08-2018 06:25:00 15.1 C 90 % 13.47 C
1519 30-08-2018 06:30:00 15.2 C 90 % 13.57 C
1520 30-08-2018 06:35:00 15.1 C 90 % 13.47 C
1521 30-08-2018 06:40:00 15.1 C 90 % 13.47 C
1522 30-08-2018 06:45:00 15.1 C 90 % 13.47 C
1523 30-08-2018 06:50:00 15.1 C 90 % 13.47 C
1524 30-08-2018 06:55:00 15.1 C 90 % 13.47 C
1525 30-08-2018 07:00:00 15.1 C 90 % 13.47 C
Sensor: Nr:Datum:Temp:Feuchte:Taupunkt:
Aussen-T/F 1526 30-08-2018 07:05:00 15.1 C 90 % 13.47 C
1527 30-08-2018 07:10:00 15.1 C 90 % 13.47 C
1528 30-08-2018 07:15:00 15.1 C 90 % 13.47 C
1529 30-08-2018 07:20:00 15.1 C 90 % 13.47 C
1530 30-08-2018 07:25:00 15.1 C 90 % 13.47 C
1531 30-08-2018 07:30:00 15.1 C 90 % 13.47 C
1532 30-08-2018 07:35:00 15.1 C 90 % 13.47 C
1533 30-08-2018 07:40:00 15.1 C 90 % 13.47 C
1534 30-08-2018 07:45:00 15.1 C 89 % 13.3 C
1535 30-08-2018 07:50:00 15.2 C 89 % 13.4 C
1536 30-08-2018 07:55:00 15.2 C 89 % 13.4 C
1537 30-08-2018 08:00:00 15.3 C 89 % 13.5 C
1538 30-08-2018 08:05:00 15.3 C 89 % 13.5 C
1539 30-08-2018 08:10:00 15.3 C 89 % 13.5 C
1540 30-08-2018 08:15:00 15.4 C 89 % 13.6 C
1541 30-08-2018 08:20:00 15.4 C 89 % 13.6 C
1542 30-08-2018 08:25:00 15.5 C 88 % 13.52 C
1543 30-08-2018 08:30:00 15.6 C 88 % 13.62 C
1544 30-08-2018 08:35:00 15.6 C 88 % 13.62 C
1545 30-08-2018 08:40:00 15.7 C 88 % 13.72 C
1546 30-08-2018 08:45:00 15.8 C 89 % 13.99 C
1547 30-08-2018 08:50:00 15.9 C 88 % 13.92 C
1548 30-08-2018 08:55:00 16 C 88 % 14.01 C
1549 30-08-2018 09:00:00 16 C 87 % 13.84 C
1550 30-08-2018 09:05:00 16.1 C 87 % 13.94 C
Sensor: Nr:Datum:Temp:Feuchte:Taupunkt:
Aussen-T/F 1551 30-08-2018 09:10:00 16.1 C 87 % 13.94 C
1552 30-08-2018 09:15:00 16.1 C 86 % 13.76 C
1553 30-08-2018 09:20:00 16.2 C 86 % 13.86 C
1554 30-08-2018 09:25:00 16.2 C 86 % 13.86 C
1555 30-08-2018 09:30:00 16.2 C 86 % 13.86 C
1556 30-08-2018 09:35:00 16.2 C 86 % 13.86 C
1557 30-08-2018 09:40:00 16.2 C 86 % 13.86 C
1558 30-08-2018 09:45:00 16.2 C 86 % 13.86 C
1559 30-08-2018 09:50:00 16.2 C 86 % 13.86 C
1560 30-08-2018 09:55:00 16.3 C 86 % 13.95 C
1561 30-08-2018 10:00:00 16.3 C 85 % 13.77 C
1562 30-08-2018 10:05:00 16.4 C 84 % 13.69 C
1563 30-08-2018 10:10:00 16.5 C 85 % 13.97 C
1564 30-08-2018 10:15:00 16.7 C 84 % 13.98 C
1565 30-08-2018 10:20:00 16.8 C 82 % 13.71 C
1566 30-08-2018 10:25:00 16.9 C 82 % 13.81 C
1567 30-08-2018 10:30:00 17.1 C 81 % 13.82 C
1568 30-08-2018 10:35:00 17.2 C 81 % 13.91 C
1569 30-08-2018 10:40:00 17.3 C 81 % 14.01 C
1570 30-08-2018 10:45:00 17.3 C 80 % 13.82 C
1571 30-08-2018 10:50:00 17.3 C 80 % 13.82 C
1572 30-08-2018 10:55:00 17.3 C 80 % 13.82 C
1573 30-08-2018 11:00:00 17.4 C 80 % 13.92 C
1574 30-08-2018 11:05:00 17.5 C 80 % 14.01 C
1575 30-08-2018 11:10:00 17.6 C 79 % 13.92 C
Sensor: Nr:Datum:Temp:Feuchte:Taupunkt:
Aussen-T/F 1576 30-08-2018 11:15:00 17.6 C 80 % 14.11 C
1577 30-08-2018 11:20:00 17.7 C 79 % 14.01 C
1578 30-08-2018 11:25:00 17.8 C 79 % 14.11 C
1579 30-08-2018 11:30:00 17.8 C 78 % 13.91 C
1580 30-08-2018 11:35:00 17.8 C 78 % 13.91 C
1581 30-08-2018 11:40:00 17.7 C 76 % 13.42 C
1582 30-08-2018 11:45:00 17.7 C 76 % 13.42 C
1583 30-08-2018 11:50:00 17.8 C 76 % 13.52 C
1584 30-08-2018 11:55:00 17.9 C 75 % 13.41 C
1585 30-08-2018 12:00:00 18 C 76 % 13.71 C
1586 30-08-2018 12:05:00 18.1 C 75 % 13.6 C
1587 30-08-2018 12:10:00 18.2 C 76 % 13.9 C
1588 30-08-2018 12:15:00 18.3 C 76 % 14 C
1589 30-08-2018 12:20:00 18.4 C 75 % 13.89 C
1590 30-08-2018 12:25:00 18.5 C 74 % 13.78 C
1591 30-08-2018 12:30:00 18.6 C 74 % 13.88 C
1592 30-08-2018 12:35:00 18.8 C 73 % 13.86 C
1593 30-08-2018 12:40:00 18.9 C 73 % 13.96 C
1594 30-08-2018 12:45:00 19.1 C 72 % 13.94 C
1595 30-08-2018 12:50:00 19.1 C 71 % 13.72 C
1596 30-08-2018 12:55:00 19.2 C 70 % 13.6 C
1597 30-08-2018 13:00:00 19.1 C 69 % 13.28 C
1598 30-08-2018 13:05:00 19.1 C 68 % 13.06 C
1599 30-08-2018 13:10:00 18.9 C 67 % 12.64 C
1600 30-08-2018 13:15:00 18.9 C 67 % 12.64 C
Sensor: Nr:Datum:Temp:Feuchte:Taupunkt:
Aussen-T/F 1601 30-08-2018 13:20:00 19.1 C 67 % 12.83 C
1602 30-08-2018 13:25:00 19.3 C 63 % 12.09 C
1603 30-08-2018 13:30:00 19.4 C 61 % 11.69 C
1604 30-08-2018 13:35:00 19.5 C 62 % 12.03 C
1605 30-08-2018 13:40:00 19.4 C 63 % 12.18 C
1606 30-08-2018 13:45:00 19.5 C 64 % 12.51 C
1607 30-08-2018 13:50:00 19.6 C 65 % 12.84 C
1608 30-08-2018 13:55:00 19.6 C 59 % 11.37 C
1609 30-08-2018 14:00:00 19.4 C 59 % 11.19 C
1610 30-08-2018 14:05:00 19.4 C 60 % 11.44 C
1611 30-08-2018 14:10:00 19.4 C 63 % 12.18 C
1612 30-08-2018 14:15:00 19.6 C 63 % 12.37 C
1613 30-08-2018 14:20:00 19.6 C 62 % 12.13 C
1614 30-08-2018 14:25:00 19.6 C 65 % 12.84 C
1615 30-08-2018 14:30:00 19.7 C 62 % 12.22 C
1616 30-08-2018 14:35:00 19.8 C 63 % 12.56 C
1617 30-08-2018 14:40:00 20 C 60 % 12 C
1618 30-08-2018 14:45:00 20.1 C 60 % 12.1 C
1619 30-08-2018 14:50:00 20.2 C 58 % 11.68 C
1620 30-08-2018 14:55:00 20.5 C 57 % 11.7 C
1621 30-08-2018 15:00:00 20.6 C 56 % 11.52 C
1622 30-08-2018 15:05:00 20.7 C 55 % 11.34 C
1623 30-08-2018 15:10:00 20.7 C 53 % 10.78 C
1624 30-08-2018 15:15:00 20.6 C 54 % 10.97 C
1625 30-08-2018 15:20:00 20.6 C 54 % 10.97 C
Sensor: Nr:Datum:Temp:Feuchte:Taupunkt:
Aussen-T/F 1626 30-08-2018 15:25:00 20.5 C 54 % 10.88 C
1627 30-08-2018 15:30:00 20.4 C 53 % 10.51 C
1628 30-08-2018 15:35:00 20.4 C 54 % 10.79 C
1629 30-08-2018 15:40:00 20.6 C 53 % 10.69 C
1630 30-08-2018 15:45:00 20.6 C 53 % 10.69 C
1631 30-08-2018 15:50:00 20.4 C 53 % 10.51 C
1632 30-08-2018 15:55:00 20.3 C 54 % 10.69 C
1633 30-08-2018 16:00:00 20.3 C 56 % 11.24 C
1634 30-08-2018 16:05:00 20.3 C 54 % 10.69 C
1635 30-08-2018 16:10:00 20.4 C 54 % 10.79 C
1636 30-08-2018 16:15:00 20.4 C 53 % 10.51 C
1637 30-08-2018 16:20:00 20.6 C 53 % 10.69 C
1638 30-08-2018 16:25:00 20.8 C 52 % 10.59 C
1639 30-08-2018 16:30:00 21.2 C 50 % 10.37 C
1640 30-08-2018 16:35:00 21.3 C 50 % 10.46 C
1641 30-08-2018 16:40:00 21.5 C 50 % 10.65 C
1642 30-08-2018 16:45:00 21.4 C 49 % 10.25 C
1643 30-08-2018 16:50:00 21.6 C 50 % 10.74 C
1644 30-08-2018 16:55:00 21.6 C 48 % 10.13 C
1645 30-08-2018 17:00:00 21.4 C 49 % 10.25 C
1646 30-08-2018 17:05:00 21.6 C 50 % 10.74 C
1647 30-08-2018 17:10:00 21.8 C 47 % 9.99 C
1648 30-08-2018 17:15:00 21.9 C 48 % 10.4 C
1649 30-08-2018 17:20:00 21.9 C 47 % 10.09 C
1650 30-08-2018 17:25:00 21.9 C 48 % 10.4 C
Sensor: Nr:Datum:Temp:Feuchte:Taupunkt:
Aussen-T/F 1651 30-08-2018 17:30:00 21.9 C 47 % 10.09 C
1652 30-08-2018 17:35:00 21.8 C 48 % 10.31 C
1653 30-08-2018 17:40:00 22.1 C 47 % 10.27 C
1654 30-08-2018 17:45:00 22.2 C 47 % 10.36 C
1655 30-08-2018 17:50:00 22.2 C 46 % 10.04 C
1656 30-08-2018 17:55:00 22.2 C 47 % 10.36 C
1657 30-08-2018 18:00:00 21.9 C 46 % 9.77 C
1658 30-08-2018 18:05:00 21.7 C 46 % 9.58 C
1659 30-08-2018 18:10:00 21.4 C 47 % 9.63 C
1660 30-08-2018 18:15:00 21.4 C 46 % 9.31 C
1661 30-08-2018 18:20:00 21.3 C 46 % 9.22 C
1662 30-08-2018 18:25:00 21.3 C 46 % 9.22 C
1663 30-08-2018 18:30:00 21.3 C 47 % 9.54 C
1664 30-08-2018 18:35:00 21.4 C 46 % 9.31 C
1665 30-08-2018 18:40:00 21.3 C 46 % 9.22 C
1666 30-08-2018 18:45:00 21.2 C 46 % 9.13 C
1667 30-08-2018 18:50:00 21 C 48 % 9.58 C
1668 30-08-2018 18:55:00 20.9 C 50 % 10.1 C
1669 30-08-2018 19:00:00 20.9 C 49 % 9.79 C
1670 30-08-2018 19:05:00 20.8 C 46 % 8.77 C
1671 30-08-2018 19:10:00 20.6 C 48 % 9.21 C
1672 30-08-2018 19:15:00 20.4 C 47 % 8.72 C
1673 30-08-2018 19:20:00 20.2 C 48 % 8.85 C
1674 30-08-2018 19:25:00 20.1 C 48 % 8.76 C
1675 30-08-2018 19:30:00 19.9 C 49 % 8.88 C
Sensor: Nr:Datum:Temp:Feuchte:Taupunkt:
Aussen-T/F 1676 30-08-2018 19:35:00 19.7 C 49 % 8.7 C
1677 30-08-2018 19:40:00 19.6 C 49 % 8.6 C
1678 30-08-2018 19:45:00 19.4 C 49 % 8.42 C
1679 30-08-2018 19:50:00 19.3 C 49 % 8.33 C
1680 30-08-2018 19:55:00 19.2 C 50 % 8.53 C
1681 30-08-2018 20:00:00 19 C 52 % 8.93 C
1682 30-08-2018 20:05:00 18.7 C 55 % 9.48 C
1683 30-08-2018 20:10:00 18.3 C 58 % 9.9 C
1684 30-08-2018 20:15:00 17.9 C 59 % 9.78 C
1685 30-08-2018 20:20:00 17.5 C 58 % 9.15 C
1686 30-08-2018 20:25:00 17.2 C 62 % 9.86 C
1687 30-08-2018 20:30:00 16.8 C 64 % 9.96 C
1688 30-08-2018 20:35:00 16.6 C 64 % 9.77 C
1689 30-08-2018 20:40:00 16.3 C 65 % 9.71 C
1690 30-08-2018 20:45:00 15.9 C 65 % 9.34 C
1691 30-08-2018 20:50:00 15.7 C 66 % 9.37 C
1692 30-08-2018 20:55:00 15.5 C 67 % 9.41 C
1693 30-08-2018 21:00:00 15.3 C 67 % 9.21 C
1694 30-08-2018 21:05:00 15.3 C 68 % 9.43 C
1695 30-08-2018 21:10:00 15.2 C 68 % 9.34 C
1696 30-08-2018 21:15:00 15.1 C 69 % 9.46 C
1697 30-08-2018 21:20:00 15 C 70 % 9.58 C
1698 30-08-2018 21:25:00 14.9 C 70 % 9.48 C
1699 30-08-2018 21:30:00 14.8 C 70 % 9.39 C
1700 30-08-2018 21:35:00 14.8 C 71 % 9.6 C
Sensor: Nr:Datum:Temp:Feuchte:Taupunkt:
Aussen-T/F 1701 30-08-2018 21:40:00 14.7 C 71 % 9.5 C
1702 30-08-2018 21:45:00 14.6 C 71 % 9.41 C
1703 30-08-2018 21:50:00 14.6 C 71 % 9.41 C
1704 30-08-2018 21:55:00 14.5 C 73 % 9.72 C
1705 30-08-2018 22:00:00 14.4 C 74 % 9.83 C
1706 30-08-2018 22:05:00 14.3 C 73 % 9.53 C
1707 30-08-2018 22:10:00 14.2 C 74 % 9.64 C
1708 30-08-2018 22:15:00 14.1 C 75 % 9.74 C
1709 30-08-2018 22:20:00 13.9 C 75 % 9.55 C
1710 30-08-2018 22:25:00 13.7 C 76 % 9.55 C
1711 30-08-2018 22:30:00 13.5 C 77 % 9.55 C
1712 30-08-2018 22:35:00 13.3 C 78 % 9.55 C
1713 30-08-2018 22:40:00 13.2 C 78 % 9.45 C
1714 30-08-2018 22:45:00 13 C 79 % 9.45 C
1715 30-08-2018 22:50:00 12.8 C 79 % 9.25 C
1716 30-08-2018 22:55:00 12.7 C 79 % 9.16 C
1717 30-08-2018 23:00:00 12.7 C 80 % 9.34 C
1718 30-08-2018 23:05:00 12.6 C 80 % 9.25 C
1719 30-08-2018 23:10:00 12.6 C 81 % 9.43 C
1720 30-08-2018 23:15:00 12.5 C 80 % 9.15 C
1721 30-08-2018 23:20:00 12.4 C 81 % 9.23 C
1722 30-08-2018 23:25:00 12.3 C 81 % 9.14 C
1723 30-08-2018 23:30:00 12.3 C 81 % 9.14 C
1724 30-08-2018 23:35:00 12.2 C 82 % 9.22 C
1725 30-08-2018 23:40:00 12.2 C 82 % 9.22 C
Sensor: Nr:Datum:Temp:Feuchte:Taupunkt:
Aussen-T/F 1726 30-08-2018 23:45:00 12.2 C 82 % 9.22 C
1727 30-08-2018 23:50:00 12.2 C 82 % 9.22 C
1728 30-08-2018 23:55:00 12.2 C 82 % 9.22 C
1729 31-08-2018 00:00:00 12.1 C 82 % 9.12 C
1730 31-08-2018 00:05:00 12.1 C 83 % 9.3 C
1731 31-08-2018 00:10:00 12.1 C 83 % 9.3 C
1732 31-08-2018 00:15:00 12.1 C 83 % 9.3 C
1733 31-08-2018 00:20:00 12.1 C 84 % 9.48 C
1734 31-08-2018 00:25:00 12.1 C 84 % 9.48 C
1735 31-08-2018 00:30:00 12 C 84 % 9.38 C
1736 31-08-2018 00:35:00 12 C 83 % 9.21 C
1737 31-08-2018 00:40:00 11.9 C 83 % 9.11 C
1738 31-08-2018 00:45:00 11.9 C 84 % 9.29 C
1739 31-08-2018 00:50:00 11.8 C 84 % 9.19 C
1740 31-08-2018 00:55:00 11.7 C 84 % 9.09 C
1741 31-08-2018 01:00:00 11.7 C 84 % 9.09 C
1742 31-08-2018 01:05:00 11.6 C 84 % 8.99 C
1743 31-08-2018 01:10:00 11.6 C 85 % 9.17 C
1744 31-08-2018 01:15:00 11.5 C 85 % 9.07 C
1745 31-08-2018 01:20:00 11.5 C 85 % 9.07 C
1746 31-08-2018 01:25:00 11.4 C 85 % 8.97 C
1747 31-08-2018 01:30:00 11.4 C 85 % 8.97 C
1748 31-08-2018 01:35:00 11.3 C 86 % 9.05 C
1749 31-08-2018 01:40:00 11.3 C 86 % 9.05 C
1750 31-08-2018 01:45:00 11.3 C 86 % 9.05 C
Sensor: Nr:Datum:Temp:Feuchte:Taupunkt:
Aussen-T/F 1751 31-08-2018 01:50:00 11.3 C 86 % 9.05 C
1752 31-08-2018 01:55:00 11.3 C 86 % 9.05 C
1753 31-08-2018 02:00:00 11.3 C 87 % 9.22 C
1754 31-08-2018 02:05:00 11.3 C 87 % 9.22 C
1755 31-08-2018 02:10:00 11.4 C 87 % 9.32 C
1756 31-08-2018 02:15:00 11.4 C 87 % 9.32 C
1757 31-08-2018 02:20:00 11.4 C 87 % 9.32 C
1758 31-08-2018 02:25:00 11.4 C 87 % 9.32 C
1759 31-08-2018 02:30:00 11.4 C 87 % 9.32 C
1760 31-08-2018 02:35:00 11.4 C 87 % 9.32 C
1761 31-08-2018 02:40:00 11.4 C 87 % 9.32 C
1762 31-08-2018 02:45:00 11.4 C 87 % 9.32 C
1763 31-08-2018 02:50:00 11.4 C 87 % 9.32 C
1764 31-08-2018 02:55:00 11.4 C 87 % 9.32 C
1765 31-08-2018 03:00:00 11.4 C 87 % 9.32 C
1766 31-08-2018 03:05:00 11.3 C 87 % 9.22 C
1767 31-08-2018 03:10:00 11.3 C 87 % 9.22 C
1768 31-08-2018 03:15:00 11.3 C 88 % 9.39 C
1769 31-08-2018 03:20:00 11.3 C 88 % 9.39 C
1770 31-08-2018 03:25:00 11.2 C 88 % 9.29 C
1771 31-08-2018 03:30:00 11.2 C 88 % 9.29 C
1772 31-08-2018 03:35:00 11.2 C 88 % 9.29 C
1773 31-08-2018 03:40:00 11.2 C 88 % 9.29 C
1774 31-08-2018 03:45:00 11.2 C 88 % 9.29 C
1775 31-08-2018 03:50:00 11.2 C 88 % 9.29 C
Sensor: Nr:Datum:Temp:Feuchte:Taupunkt:
Aussen-T/F 1776 31-08-2018 03:55:00 11.2 C 88 % 9.29 C
1777 31-08-2018 04:00:00 11.2 C 88 % 9.29 C
1778 31-08-2018 04:05:00 11.2 C 88 % 9.29 C
1779 31-08-2018 04:10:00 11.2 C 88 % 9.29 C
1780 31-08-2018 04:15:00 11.2 C 88 % 9.29 C
1781 31-08-2018 04:20:00 11.2 C 89 % 9.46 C
1782 31-08-2018 04:25:00 11.2 C 89 % 9.46 C
1783 31-08-2018 04:30:00 11.2 C 89 % 9.46 C
1784 31-08-2018 04:35:00 11.2 C 89 % 9.46 C
1785 31-08-2018 04:40:00 11.2 C 89 % 9.46 C
1786 31-08-2018 04:45:00 11.1 C 89 % 9.36 C
1787 31-08-2018 04:50:00 11.1 C 89 % 9.36 C
1788 31-08-2018 04:55:00 11.1 C 89 % 9.36 C
1789 31-08-2018 05:00:00 11.1 C 89 % 9.36 C
1790 31-08-2018 05:05:00 11 C 89 % 9.26 C
1791 31-08-2018 05:10:00 11 C 89 % 9.26 C
1792 31-08-2018 05:15:00 11 C 89 % 9.26 C
1793 31-08-2018 05:20:00 11 C 90 % 9.42 C
1794 31-08-2018 05:25:00 11 C 90 % 9.42 C
1795 31-08-2018 05:30:00 11 C 90 % 9.42 C
1796 31-08-2018 05:35:00 11 C 90 % 9.42 C
1797 31-08-2018 05:40:00 11 C 90 % 9.42 C
1798 31-08-2018 05:45:00 11.1 C 90 % 9.52 C
1799 31-08-2018 05:50:00 11.1 C 90 % 9.52 C
1800 31-08-2018 05:55:00 11.1 C 90 % 9.52 C
Sensor: Nr:Datum:Temp:Feuchte:Taupunkt:
Aussen-T/F 1801 31-08-2018 06:00:00 11.2 C 90 % 9.62 C
1802 31-08-2018 06:05:00 11.2 C 90 % 9.62 C
1803 31-08-2018 06:10:00 11.2 C 90 % 9.62 C
1804 31-08-2018 06:15:00 11.3 C 90 % 9.72 C
1805 31-08-2018 06:20:00 11.3 C 90 % 9.72 C
1806 31-08-2018 06:25:00 11.3 C 90 % 9.72 C
1807 31-08-2018 06:30:00 11.3 C 90 % 9.72 C
1808 31-08-2018 06:35:00 11.3 C 90 % 9.72 C
1809 31-08-2018 06:40:00 11.3 C 90 % 9.72 C
1810 31-08-2018 06:45:00 11.3 C 90 % 9.72 C
1811 31-08-2018 06:50:00 11.3 C 90 % 9.72 C
1812 31-08-2018 06:55:00 11.3 C 90 % 9.72 C
1813 31-08-2018 07:00:00 11.3 C 90 % 9.72 C
1814 31-08-2018 07:05:00 11.3 C 90 % 9.72 C
1815 31-08-2018 07:10:00 11.3 C 90 % 9.72 C
1816 31-08-2018 07:15:00 11.3 C 90 % 9.72 C
1817 31-08-2018 07:20:00 11.4 C 90 % 9.82 C
1818 31-08-2018 07:25:00 11.4 C 91 % 9.98 C
1819 31-08-2018 07:30:00 11.4 C 91 % 9.98 C
1820 31-08-2018 07:35:00 11.6 C 90 % 10.02 C
1821 31-08-2018 07:40:00 11.6 C 91 % 10.18 C
1822 31-08-2018 07:45:00 11.7 C 90 % 10.12 C
1823 31-08-2018 07:50:00 11.7 C 91 % 10.28 C
1824 31-08-2018 07:55:00 11.8 C 91 % 10.38 C
1825 31-08-2018 08:00:00 11.9 C 91 % 10.48 C
Sensor: Nr:Datum:Temp:Feuchte:Taupunkt:
Aussen-T/F 1826 31-08-2018 08:05:00 12 C 90 % 10.41 C
1827 31-08-2018 08:10:00 12.1 C 91 % 10.68 C
1828 31-08-2018 08:15:00 12.2 C 90 % 10.61 C
1829 31-08-2018 08:20:00 12.2 C 90 % 10.61 C
1830 31-08-2018 08:25:00 12.3 C 90 % 10.71 C
1831 31-08-2018 08:30:00 12.3 C 90 % 10.71 C
1832 31-08-2018 08:35:00 12.4 C 90 % 10.81 C
1833 31-08-2018 08:40:00 12.4 C 88 % 10.47 C
1834 31-08-2018 08:45:00 12.6 C 88 % 10.67 C
1835 31-08-2018 08:50:00 12.6 C 87 % 10.5 C
1836 31-08-2018 08:55:00 12.7 C 87 % 10.59 C
1837 31-08-2018 09:00:00 12.8 C 87 % 10.69 C
1838 31-08-2018 09:05:00 12.9 C 87 % 10.79 C
1839 31-08-2018 09:10:00 13 C 87 % 10.89 C
1840 31-08-2018 09:15:00 13.1 C 86 % 10.81 C
1841 31-08-2018 09:20:00 13.2 C 86 % 10.91 C
1842 31-08-2018 09:25:00 13.3 C 85 % 10.83 C
1843 31-08-2018 09:30:00 13.4 C 85 % 10.93 C
1844 31-08-2018 09:35:00 13.5 C 84 % 10.85 C
1845 31-08-2018 09:40:00 13.6 C 85 % 11.13 C
1846 31-08-2018 09:45:00 13.7 C 85 % 11.23 C
1847 31-08-2018 09:50:00 13.9 C 85 % 11.42 C
1848 31-08-2018 09:55:00 14 C 84 % 11.34 C
1849 31-08-2018 10:00:00 14.1 C 83 % 11.26 C
1850 31-08-2018 10:05:00 14.2 C 83 % 11.36 C
Sensor: Nr:Datum:Temp:Feuchte:Taupunkt:
Aussen-T/F 1851 31-08-2018 10:10:00 14.3 C 84 % 11.64 C
1852 31-08-2018 10:15:00 14.4 C 83 % 11.55 C
1853 31-08-2018 10:20:00 14.6 C 83 % 11.75 C
1854 31-08-2018 10:25:00 14.8 C 82 % 11.76 C
1855 31-08-2018 10:30:00 14.9 C 81 % 11.67 C
1856 31-08-2018 10:35:00 15.1 C 82 % 12.05 C
1857 31-08-2018 10:40:00 15.2 C 80 % 11.78 C
1858 31-08-2018 10:45:00 15.3 C 80 % 11.87 C
1859 31-08-2018 10:50:00 15.4 C 80 % 11.97 C
1860 31-08-2018 10:55:00 15.6 C 79 % 11.97 C
1861 31-08-2018 11:00:00 15.7 C 78 % 11.88 C
1862 31-08-2018 11:05:00 15.8 C 78 % 11.97 C
1863 31-08-2018 11:10:00 15.9 C 78 % 12.07 C
1864 31-08-2018 11:15:00 15.9 C 77 % 11.88 C
1865 31-08-2018 11:20:00 16.1 C 78 % 12.27 C
1866 31-08-2018 11:25:00 16.1 C 76 % 11.87 C
1867 31-08-2018 11:30:00 16.3 C 77 % 12.26 C
1868 31-08-2018 11:35:00 16.4 C 76 % 12.16 C
1869 31-08-2018 11:40:00 16.6 C 74 % 11.95 C
1870 31-08-2018 11:45:00 16.7 C 74 % 12.05 C
1871 31-08-2018 11:50:00 16.7 C 72 % 11.63 C
1872 31-08-2018 11:55:00 16.7 C 73 % 11.84 C
1873 31-08-2018 12:00:00 16.7 C 72 % 11.63 C
1874 31-08-2018 12:05:00 16.9 C 73 % 12.03 C
1875 31-08-2018 12:10:00 17.2 C 72 % 12.11 C
Sensor: Nr:Datum:Temp:Feuchte:Taupunkt:
Aussen-T/F 1876 31-08-2018 12:15:00 17.3 C 71 % 12 C
1877 31-08-2018 12:20:00 17.5 C 69 % 11.75 C
1878 31-08-2018 12:25:00 17.7 C 69 % 11.95 C
1879 31-08-2018 12:30:00 17.7 C 67 % 11.5 C
1880 31-08-2018 12:35:00 17.7 C 67 % 11.5 C
1881 31-08-2018 12:40:00 17.8 C 66 % 11.37 C
1882 31-08-2018 12:45:00 17.8 C 65 % 11.14 C
1883 31-08-2018 12:50:00 17.9 C 65 % 11.23 C
1884 31-08-2018 12:55:00 18 C 64 % 11.09 C
1885 31-08-2018 13:00:00 18.1 C 65 % 11.42 C
1886 31-08-2018 13:05:00 18.2 C 63 % 11.05 C
1887 31-08-2018 13:10:00 18.3 C 63 % 11.14 C
1888 31-08-2018 13:15:00 18.4 C 63 % 11.23 C
1889 31-08-2018 13:20:00 18.5 C 61 % 10.84 C
1890 31-08-2018 13:25:00 18.5 C 63 % 11.33 C
1891 31-08-2018 13:30:00 18.6 C 61 % 10.94 C
1892 31-08-2018 13:35:00 18.7 C 60 % 10.78 C
1893 31-08-2018 13:40:00 18.7 C 59 % 10.53 C
1894 31-08-2018 13:45:00 18.8 C 59 % 10.63 C
1895 31-08-2018 13:50:00 18.8 C 59 % 10.63 C
1896 31-08-2018 13:55:00 19 C 58 % 10.56 C
1897 31-08-2018 14:00:00 19.1 C 58 % 10.65 C
1898 31-08-2018 14:05:00 19.2 C 59 % 11 C
1899 31-08-2018 14:10:00 19.3 C 58 % 10.84 C
1900 31-08-2018 14:15:00 19.3 C 55 % 10.04 C
Sensor: Nr:Datum:Temp:Feuchte:Taupunkt:
Aussen-T/F 1901 31-08-2018 14:20:00 19.4 C 55 % 10.13 C
1902 31-08-2018 14:25:00 19.4 C 55 % 10.13 C
1903 31-08-2018 14:30:00 19.4 C 54 % 9.86 C
1904 31-08-2018 14:35:00 19.4 C 54 % 9.86 C
1905 31-08-2018 14:40:00 19.3 C 54 % 9.77 C
1906 31-08-2018 14:45:00 19.3 C 55 % 10.04 C
1907 31-08-2018 14:50:00 19.4 C 54 % 9.86 C
1908 31-08-2018 14:55:00 19.4 C 55 % 10.13 C
1909 31-08-2018 15:00:00 19.4 C 55 % 10.13 C
1910 31-08-2018 15:05:00 19.6 C 55 % 10.32 C
1911 31-08-2018 15:10:00 19.7 C 53 % 9.86 C
1912 31-08-2018 15:15:00 19.7 C 53 % 9.86 C
1913 31-08-2018 15:20:00 19.8 C 52 % 9.67 C
1914 31-08-2018 15:25:00 19.9 C 52 % 9.76 C
1915 31-08-2018 15:30:00 19.8 C 52 % 9.67 C
1916 31-08-2018 15:35:00 19.7 C 53 % 9.86 C
1917 31-08-2018 15:40:00 19.7 C 52 % 9.58 C
1918 31-08-2018 15:45:00 19.6 C 52 % 9.48 C
1919 31-08-2018 15:50:00 19.4 C 52 % 9.3 C
1920 31-08-2018 15:55:00 19.4 C 53 % 9.58 C
1921 31-08-2018 16:00:00 19.6 C 52 % 9.48 C
1922 31-08-2018 16:05:00 19.7 C 52 % 9.58 C
1923 31-08-2018 16:10:00 19.9 C 51 % 9.47 C
1924 31-08-2018 16:15:00 20.1 C 51 % 9.66 C
1925 31-08-2018 16:20:00 20 C 51 % 9.56 C
Sensor: Nr:Datum:Temp:Feuchte:Taupunkt:
Aussen-T/F 1926 31-08-2018 16:25:00 20 C 50 % 9.27 C
1927 31-08-2018 16:30:00 20 C 50 % 9.27 C
1928 31-08-2018 16:35:00 20.2 C 49 % 9.15 C
1929 31-08-2018 16:40:00 20.3 C 48 % 8.94 C
1930 31-08-2018 16:45:00 20.3 C 48 % 8.94 C
1931 31-08-2018 16:50:00 20.5 C 48 % 9.12 C
1932 31-08-2018 16:55:00 20.7 C 48 % 9.3 C
1933 31-08-2018 17:00:00 20.9 C 47 % 9.17 C
1934 31-08-2018 17:05:00 20.8 C 47 % 9.08 C
1935 31-08-2018 17:10:00 20.6 C 47 % 8.9 C
1936 31-08-2018 17:15:00 20.3 C 48 % 8.94 C
1937 31-08-2018 17:20:00 20.2 C 50 % 9.45 C
1938 31-08-2018 17:25:00 20.2 C 49 % 9.15 C
1939 31-08-2018 17:30:00 20.3 C 47 % 8.63 C
1940 31-08-2018 17:35:00 20.3 C 49 % 9.24 C
1941 31-08-2018 17:40:00 20.7 C 48 % 9.3 C
1942 31-08-2018 17:45:00 20.8 C 47 % 9.08 C
1943 31-08-2018 17:50:00 20.9 C 47 % 9.17 C
1944 31-08-2018 17:55:00 20.9 C 47 % 9.17 C
1945 31-08-2018 18:00:00 20.9 C 46 % 8.86 C
1946 31-08-2018 18:05:00 20.9 C 46 % 8.86 C
1947 31-08-2018 18:10:00 20.9 C 45 % 8.53 C
1948 31-08-2018 18:15:00 20.9 C 45 % 8.53 C
1949 31-08-2018 18:20:00 20.9 C 44 % 8.2 C
1950 31-08-2018 18:25:00 20.9 C 44 % 8.2 C
Sensor: Nr:Datum:Temp:Feuchte:Taupunkt:
Aussen-T/F 1951 31-08-2018 18:30:00 20.8 C 44 % 8.11 C
1952 31-08-2018 18:35:00 20.9 C 43 % 7.86 C
1953 31-08-2018 18:40:00 20.9 C 43 % 7.86 C
1954 31-08-2018 18:45:00 20.9 C 42 % 7.52 C
1955 31-08-2018 18:50:00 20.8 C 43 % 7.77 C
1956 31-08-2018 18:55:00 20.6 C 43 % 7.59 C
1957 31-08-2018 19:00:00 20.4 C 43 % 7.41 C
1958 31-08-2018 19:05:00 20.2 C 43 % 7.23 C
1959 31-08-2018 19:10:00 20.1 C 45 % 7.81 C
1960 31-08-2018 19:15:00 19.9 C 44 % 7.3 C
1961 31-08-2018 19:20:00 19.7 C 45 % 7.44 C
1962 31-08-2018 19:25:00 19.6 C 44 % 7.03 C
1963 31-08-2018 19:30:00 19.4 C 45 % 7.17 C
1964 31-08-2018 19:35:00 19.3 C 45 % 7.08 C
1965 31-08-2018 19:40:00 19.2 C 46 % 7.31 C
1966 31-08-2018 19:45:00 19.1 C 51 % 8.73 C
1967 31-08-2018 19:50:00 18.8 C 51 % 8.46 C
1968 31-08-2018 19:55:00 18.3 C 52 % 8.28 C
1969 31-08-2018 20:00:00 17.8 C 54 % 8.38 C
1970 31-08-2018 20:05:00 17.3 C 56 % 8.45 C
1971 31-08-2018 20:10:00 16.8 C 58 % 8.5 C
1972 31-08-2018 20:15:00 16.5 C 59 % 8.47 C
1973 31-08-2018 20:20:00 16.2 C 60 % 8.43 C
1974 31-08-2018 20:25:00 15.9 C 59 % 7.91 C
1975 31-08-2018 20:30:00 15.9 C 61 % 8.4 C
Sensor: Nr:Datum:Temp:Feuchte:Taupunkt:
Aussen-T/F 1976 31-08-2018 20:35:00 15.8 C 62 % 8.54 C
1977 31-08-2018 20:40:00 15.7 C 62 % 8.45 C
1978 31-08-2018 20:45:00 15.5 C 62 % 8.26 C
1979 31-08-2018 20:50:00 15.3 C 63 % 8.31 C
1980 31-08-2018 20:55:00 15.2 C 64 % 8.44 C
1981 31-08-2018 21:00:00 15 C 65 % 8.48 C
1982 31-08-2018 21:05:00 14.8 C 67 % 8.74 C
1983 31-08-2018 21:10:00 14.7 C 67 % 8.64 C
1984 31-08-2018 21:15:00 14.6 C 67 % 8.55 C
1985 31-08-2018 21:20:00 14.5 C 67 % 8.45 C
1986 31-08-2018 21:25:00 14.4 C 67 % 8.36 C
1987 31-08-2018 21:30:00 14.3 C 68 % 8.48 C
1988 31-08-2018 21:35:00 14.2 C 69 % 8.6 C
1989 31-08-2018 21:40:00 14.1 C 69 % 8.5 C
1990 31-08-2018 21:45:00 14.1 C 70 % 8.72 C
1991 31-08-2018 21:50:00 13.9 C 70 % 8.53 C
1992 31-08-2018 21:55:00 13.9 C 71 % 8.73 C
1993 31-08-2018 22:00:00 13.8 C 71 % 8.64 C
1994 31-08-2018 22:05:00 13.8 C 71 % 8.64 C
1995 31-08-2018 22:10:00 13.8 C 71 % 8.64 C
1996 31-08-2018 22:15:00 13.8 C 72 % 8.85 C
1997 31-08-2018 22:20:00 13.7 C 72 % 8.75 C
1998 31-08-2018 22:25:00 13.7 C 73 % 8.95 C
1999 31-08-2018 22:30:00 13.7 C 73 % 8.95 C
2000 31-08-2018 22:35:00 13.6 C 73 % 8.86 C
Sensor: Nr:Datum:Temp:Feuchte:Taupunkt:
Aussen-T/F 2001 31-08-2018 22:40:00 13.5 C 73 % 8.76 C
2002 31-08-2018 22:45:00 13.5 C 73 % 8.76 C
2003 31-08-2018 22:50:00 13.6 C 73 % 8.86 C
2004 31-08-2018 22:55:00 13.6 C 72 % 8.65 C
2005 31-08-2018 23:00:00 13.6 C 73 % 8.86 C
2006 31-08-2018 23:05:00 13.6 C 73 % 8.86 C
2007 31-08-2018 23:10:00 13.6 C 73 % 8.86 C
2008 31-08-2018 23:15:00 13.5 C 74 % 8.96 C
2009 31-08-2018 23:20:00 13.4 C 74 % 8.87 C
2010 31-08-2018 23:25:00 13.3 C 75 % 8.97 C
2011 31-08-2018 23:30:00 13.3 C 75 % 8.97 C
2012 31-08-2018 23:35:00 13.2 C 75 % 8.87 C
2013 31-08-2018 23:40:00 13.1 C 75 % 8.77 C
2014 31-08-2018 23:45:00 13 C 76 % 8.87 C
2015 31-08-2018 23:50:00 12.9 C 76 % 8.78 C
2016 31-08-2018 23:55:00 12.8 C 76 % 8.68 C
2017 01-09-2018 00:00:00 12.7 C 76 % 8.58 C
2018 01-09-2018 00:05:00 12.6 C 77 % 8.68 C
2019 01-09-2018 00:10:00 12.4 C 77 % 8.49 C
2020 01-09-2018 00:15:00 12.3 C 78 % 8.58 C
2021 01-09-2018 00:20:00 12.2 C 78 % 8.48 C
2022 01-09-2018 00:25:00 12.1 C 78 % 8.38 C
2023 01-09-2018 00:30:00 11.9 C 79 % 8.38 C
2024 01-09-2018 00:35:00 11.8 C 80 % 8.47 C
2025 01-09-2018 00:40:00 11.8 C 80 % 8.47 C
Sensor: Nr:Datum:Temp:Feuchte:Taupunkt:
Aussen-T/F 2026 01-09-2018 00:45:00 11.7 C 80 % 8.37 C
2027 01-09-2018 00:50:00 11.6 C 81 % 8.45 C
2028 01-09-2018 00:55:00 11.6 C 81 % 8.45 C
2029 01-09-2018 01:00:00 11.5 C 81 % 8.36 C
2030 01-09-2018 01:05:00 11.5 C 81 % 8.36 C
2031 01-09-2018 01:10:00 11.4 C 81 % 8.26 C
2032 01-09-2018 01:15:00 11.3 C 81 % 8.16 C
2033 01-09-2018 01:20:00 11.1 C 82 % 8.15 C
2034 01-09-2018 01:25:00 11.1 C 83 % 8.33 C
2035 01-09-2018 01:30:00 10.9 C 83 % 8.13 C
2036 01-09-2018 01:35:00 10.8 C 83 % 8.03 C
2037 01-09-2018 01:40:00 10.7 C 83 % 7.93 C
2038 01-09-2018 01:45:00 10.6 C 83 % 7.84 C
2039 01-09-2018 01:50:00 10.5 C 84 % 7.91 C
2040 01-09-2018 01:55:00 10.4 C 84 % 7.82 C
2041 01-09-2018 02:00:00 10.3 C 85 % 7.89 C
2042 01-09-2018 02:05:00 10.3 C 85 % 7.89 C
2043 01-09-2018 02:10:00 10.2 C 85 % 7.79 C
2044 01-09-2018 02:15:00 10.1 C 85 % 7.7 C
2045 01-09-2018 02:20:00 10.1 C 86 % 7.87 C
2046 01-09-2018 02:25:00 10.1 C 86 % 7.87 C
2047 01-09-2018 02:30:00 9.9 C 86 % 7.67 C
2048 01-09-2018 02:35:00 9.8 C 86 % 7.57 C
2049 01-09-2018 02:40:00 9.8 C 86 % 7.57 C
2050 01-09-2018 02:45:00 9.8 C 87 % 7.74 C
Sensor: Nr:Datum:Temp:Feuchte:Taupunkt:
Aussen-T/F 2051 01-09-2018 02:50:00 9.7 C 87 % 7.64 C
2052 01-09-2018 02:55:00 9.6 C 87 % 7.55 C
2053 01-09-2018 03:00:00 9.6 C 87 % 7.55 C
2054 01-09-2018 03:05:00 9.4 C 87 % 7.35 C
2055 01-09-2018 03:10:00 9.4 C 87 % 7.35 C
2056 01-09-2018 03:15:00 9.3 C 88 % 7.42 C
2057 01-09-2018 03:20:00 9.3 C 88 % 7.42 C
2058 01-09-2018 03:25:00 9.3 C 88 % 7.42 C
2059 01-09-2018 03:30:00 9.2 C 88 % 7.32 C
2060 01-09-2018 03:35:00 9.2 C 88 % 7.32 C
2061 01-09-2018 03:40:00 9.1 C 89 % 7.39 C
2062 01-09-2018 03:45:00 9.1 C 89 % 7.39 C
2063 01-09-2018 03:50:00 9.1 C 89 % 7.39 C
2064 01-09-2018 03:55:00 9 C 89 % 7.29 C
2065 01-09-2018 04:00:00 8.9 C 90 % 7.35 C
2066 01-09-2018 04:05:00 8.9 C 89 % 7.19 C
2067 01-09-2018 04:10:00 8.9 C 90 % 7.35 C
2068 01-09-2018 04:15:00 8.8 C 90 % 7.25 C
2069 01-09-2018 04:20:00 8.8 C 90 % 7.25 C
2070 01-09-2018 04:25:00 8.8 C 90 % 7.25 C
2071 01-09-2018 04:30:00 8.8 C 90 % 7.25 C
2072 01-09-2018 04:35:00 8.7 C 90 % 7.15 C
2073 01-09-2018 04:40:00 8.6 C 90 % 7.06 C
2074 01-09-2018 04:45:00 8.6 C 91 % 7.22 C
2075 01-09-2018 04:50:00 8.6 C 91 % 7.22 C
Sensor: Nr:Datum:Temp:Feuchte:Taupunkt:
Aussen-T/F 2076 01-09-2018 04:55:00 8.6 C 91 % 7.22 C
2077 01-09-2018 05:00:00 8.5 C 91 % 7.12 C
2078 01-09-2018 05:05:00 8.4 C 91 % 7.02 C
2079 01-09-2018 05:10:00 8.4 C 91 % 7.02 C
2080 01-09-2018 05:15:00 8.4 C 91 % 7.02 C
2081 01-09-2018 05:20:00 8.3 C 91 % 6.92 C
2082 01-09-2018 05:25:00 8.4 C 91 % 7.02 C
2083 01-09-2018 05:30:00 8.3 C 91 % 6.92 C
2084 01-09-2018 05:35:00 8.3 C 92 % 7.08 C
2085 01-09-2018 05:40:00 8.3 C 91 % 6.92 C
2086 01-09-2018 05:45:00 8.3 C 92 % 7.08 C
2087 01-09-2018 05:50:00 8.2 C 91 % 6.82 C
2088 01-09-2018 05:55:00 8.1 C 91 % 6.72 C
2089 01-09-2018 06:00:00 8.1 C 92 % 6.88 C
2090 01-09-2018 06:05:00 8.1 C 92 % 6.88 C
2091 01-09-2018 06:10:00 8.1 C 92 % 6.88 C
2092 01-09-2018 06:15:00 8 C 92 % 6.78 C
2093 01-09-2018 06:20:00 7.9 C 92 % 6.68 C
2094 01-09-2018 06:25:00 7.9 C 92 % 6.68 C
2095 01-09-2018 06:30:00 7.9 C 92 % 6.68 C
2096 01-09-2018 06:35:00 7.8 C 92 % 6.58 C
2097 01-09-2018 06:40:00 7.8 C 92 % 6.58 C
2098 01-09-2018 06:45:00 7.8 C 93 % 6.74 C
2099 01-09-2018 06:50:00 7.9 C 93 % 6.84 C
2100 01-09-2018 06:55:00 7.8 C 93 % 6.74 C
Sensor: Nr:Datum:Temp:Feuchte:Taupunkt:
Aussen-T/F 2101 01-09-2018 07:00:00 7.8 C 93 % 6.74 C
2102 01-09-2018 07:05:00 7.8 C 93 % 6.74 C
2103 01-09-2018 07:10:00 7.8 C 93 % 6.74 C
2104 01-09-2018 07:15:00 7.8 C 93 % 6.74 C
2105 01-09-2018 07:20:00 7.8 C 93 % 6.74 C
2106 01-09-2018 07:25:00 7.8 C 93 % 6.74 C
2107 01-09-2018 07:30:00 7.8 C 93 % 6.74 C
2108 01-09-2018 07:35:00 7.8 C 93 % 6.74 C
2109 01-09-2018 07:40:00 7.9 C 93 % 6.84 C
2110 01-09-2018 07:45:00 7.9 C 93 % 6.84 C
2111 01-09-2018 07:50:00 8 C 93 % 6.94 C
2112 01-09-2018 07:55:00 8 C 93 % 6.94 C
2113 01-09-2018 08:00:00 8.1 C 93 % 7.04 C
2114 01-09-2018 08:05:00 8.1 C 93 % 7.04 C
2115 01-09-2018 08:10:00 8.2 C 93 % 7.14 C
2116 01-09-2018 08:15:00 8.2 C 93 % 7.14 C
2117 01-09-2018 08:20:00 8.3 C 93 % 7.24 C
2118 01-09-2018 08:25:00 8.3 C 93 % 7.24 C
2119 01-09-2018 08:30:00 8.4 C 94 % 7.49 C
2120 01-09-2018 08:35:00 8.5 C 94 % 7.59 C
2121 01-09-2018 08:40:00 8.6 C 94 % 7.69 C
2122 01-09-2018 08:45:00 8.7 C 94 % 7.79 C
2123 01-09-2018 08:50:00 8.8 C 94 % 7.89 C
2124 01-09-2018 08:55:00 8.9 C 94 % 7.99 C
2125 01-09-2018 09:00:00 9 C 94 % 8.09 C
Sensor: Nr:Datum:Temp:Feuchte:Taupunkt:
Aussen-T/F 2126 01-09-2018 09:05:00 9.1 C 94 % 8.19 C
2127 01-09-2018 09:10:00 9.2 C 94 % 8.29 C
2128 01-09-2018 09:15:00 9.3 C 94 % 8.39 C
2129 01-09-2018 09:20:00 9.5 C 94 % 8.58 C
2130 01-09-2018 09:25:00 9.6 C 94 % 8.68 C
2131 01-09-2018 09:30:00 9.8 C 94 % 8.88 C
2132 01-09-2018 09:35:00 9.9 C 94 % 8.98 C
2133 01-09-2018 09:40:00 10.1 C 94 % 9.18 C
2134 01-09-2018 09:45:00 10.3 C 94 % 9.38 C
2135 01-09-2018 09:50:00 10.4 C 94 % 9.48 C
2136 01-09-2018 09:55:00 10.6 C 93 % 9.52 C
2137 01-09-2018 10:00:00 10.8 C 93 % 9.71 C
2138 01-09-2018 10:05:00 10.9 C 93 % 9.81 C
2139 01-09-2018 10:10:00 11.1 C 93 % 10.01 C
2140 01-09-2018 10:15:00 11.3 C 92 % 10.05 C
2141 01-09-2018 10:20:00 11.5 C 91 % 10.08 C
2142 01-09-2018 10:25:00 11.7 C 90 % 10.12 C
2143 01-09-2018 10:30:00 11.9 C 90 % 10.31 C
2144 01-09-2018 10:35:00 12.2 C 89 % 10.44 C
2145 01-09-2018 10:40:00 12.3 C 88 % 10.37 C
2146 01-09-2018 10:45:00 12.6 C 86 % 10.32 C
2147 01-09-2018 10:50:00 12.9 C 85 % 10.44 C
2148 01-09-2018 10:55:00 13.1 C 83 % 10.28 C
2149 01-09-2018 11:00:00 13.3 C 82 % 10.3 C
2150 01-09-2018 11:05:00 13.7 C 80 % 10.32 C
Sensor: Nr:Datum:Temp:Feuchte:Taupunkt:
Aussen-T/F 2151 01-09-2018 11:10:00 14 C 80 % 10.61 C
2152 01-09-2018 11:15:00 14.2 C 79 % 10.61 C
2153 01-09-2018 11:20:00 14.4 C 76 % 10.23 C
2154 01-09-2018 11:25:00 14.7 C 76 % 10.52 C
2155 01-09-2018 11:30:00 14.8 C 74 % 10.22 C
2156 01-09-2018 11:35:00 15.1 C 73 % 10.3 C
2157 01-09-2018 11:40:00 15.3 C 73 % 10.49 C
2158 01-09-2018 11:45:00 15.6 C 71 % 10.37 C
2159 01-09-2018 11:50:00 15.8 C 69 % 10.13 C
2160 01-09-2018 11:55:00 15.9 C 69 % 10.23 C
2161 01-09-2018 12:00:00 16.1 C 69 % 10.42 C
2162 01-09-2018 12:05:00 16.3 C 68 % 10.39 C
2163 01-09-2018 12:10:00 16.4 C 66 % 10.04 C
2164 01-09-2018 12:15:00 16.6 C 66 % 10.23 C
2165 01-09-2018 12:20:00 16.9 C 67 % 10.74 C
2166 01-09-2018 12:25:00 17.2 C 64 % 10.34 C
2167 01-09-2018 12:30:00 17.4 C 65 % 10.76 C
2168 01-09-2018 12:35:00 17.6 C 63 % 10.48 C
2169 01-09-2018 12:40:00 17.8 C 62 % 10.43 C
2170 01-09-2018 12:45:00 17.9 C 61 % 10.28 C
2171 01-09-2018 12:50:00 18.1 C 60 % 10.22 C
2172 01-09-2018 12:55:00 18.2 C 59 % 10.06 C
2173 01-09-2018 13:00:00 18.4 C 58 % 9.99 C
2174 01-09-2018 13:05:00 18.6 C 59 % 10.44 C
2175 01-09-2018 13:10:00 18.7 C 56 % 9.75 C
Sensor: Nr:Datum:Temp:Feuchte:Taupunkt:
Aussen-T/F 2176 01-09-2018 13:15:00 18.8 C 55 % 9.58 C
2177 01-09-2018 13:20:00 18.7 C 53 % 8.93 C
2178 01-09-2018 13:25:00 18.6 C 52 % 8.56 C
2179 01-09-2018 13:30:00 18.5 C 53 % 8.75 C
2180 01-09-2018 13:35:00 18.4 C 55 % 9.2 C
2181 01-09-2018 13:40:00 18.4 C 51 % 8.09 C
2182 01-09-2018 13:45:00 18.6 C 52 % 8.56 C
2183 01-09-2018 13:50:00 18.9 C 50 % 8.26 C
2184 01-09-2018 13:55:00 19.2 C 48 % 7.93 C
2185 01-09-2018 14:00:00 19.4 C 47 % 7.81 C
2186 01-09-2018 14:05:00 19.7 C 46 % 7.77 C
2187 01-09-2018 14:10:00 19.8 C 45 % 7.53 C
2188 01-09-2018 14:15:00 19.7 C 44 % 7.12 C
2189 01-09-2018 14:20:00 19.7 C 43 % 6.78 C
2190 01-09-2018 14:25:00 19.9 C 43 % 6.96 C
2191 01-09-2018 14:30:00 20.2 C 42 % 6.89 C
2192 01-09-2018 14:35:00 20.2 C 41 % 6.54 C
2193 01-09-2018 14:40:00 20.3 C 41 % 6.63 C
2194 01-09-2018 14:45:00 20.3 C 42 % 6.98 C
2195 01-09-2018 14:50:00 20.5 C 41 % 6.81 C
2196 01-09-2018 14:55:00 20.7 C 42 % 7.34 C
2197 01-09-2018 15:00:00 20.8 C 41 % 7.08 C
2198 01-09-2018 15:05:00 20.7 C 42 % 7.34 C
2199 01-09-2018 15:10:00 20.6 C 42 % 7.25 C
2200 01-09-2018 15:15:00 20.6 C 42 % 7.25 C
Sensor: Nr:Datum:Temp:Feuchte:Taupunkt:
Aussen-T/F 2201 01-09-2018 15:20:00 20.7 C 40 % 6.63 C
2202 01-09-2018 15:25:00 20.7 C 41 % 6.99 C
2203 01-09-2018 15:30:00 20.7 C 41 % 6.99 C
2204 01-09-2018 15:35:00 20.8 C 40 % 6.72 C
2205 01-09-2018 15:40:00 20.9 C 39 % 6.44 C
2206 01-09-2018 15:45:00 20.9 C 39 % 6.44 C
2207 01-09-2018 15:50:00 20.8 C 40 % 6.72 C
2208 01-09-2018 15:55:00 20.7 C 40 % 6.63 C
2209 01-09-2018 16:00:00 20.6 C 41 % 6.9 C
2210 01-09-2018 16:05:00 20.6 C 42 % 7.25 C
2211 01-09-2018 16:10:00 20.7 C 40 % 6.63 C
2212 01-09-2018 16:15:00 21 C 40 % 6.9 C
2213 01-09-2018 16:20:00 21.2 C 39 % 6.71 C
2214 01-09-2018 16:25:00 21.1 C 39 % 6.62 C
2215 01-09-2018 16:30:00 20.9 C 39 % 6.44 C
2216 01-09-2018 16:35:00 20.9 C 39 % 6.44 C
2217 01-09-2018 16:40:00 21.4 C 39 % 6.89 C
2218 01-09-2018 16:45:00 21.9 C 37 % 6.56 C
2219 01-09-2018 16:50:00 22.2 C 37 % 6.83 C
2220 01-09-2018 16:55:00 22.2 C 36 % 6.43 C
2221 01-09-2018 17:00:00 22.2 C 38 % 7.22 C
2222 01-09-2018 17:05:00 22.4 C 36 % 6.61 C
2223 01-09-2018 17:10:00 22.3 C 36 % 6.52 C
2224 01-09-2018 17:15:00 22.3 C 36 % 6.52 C
2225 01-09-2018 17:20:00 22.3 C 37 % 6.92 C
Sensor: Nr:Datum:Temp:Feuchte:Taupunkt:
Aussen-T/F 2226 01-09-2018 17:25:00 22.4 C 36 % 6.61 C
2227 01-09-2018 17:30:00 22.4 C 36 % 6.61 C
2228 01-09-2018 17:35:00 22.4 C 37 % 7.01 C
2229 01-09-2018 17:40:00 22.6 C 35 % 6.38 C
2230 01-09-2018 17:45:00 22.8 C 42 % 9.23 C
2231 01-09-2018 17:50:00 22.3 C 37 % 6.92 C
2232 01-09-2018 17:55:00 22.1 C 37 % 6.74 C
2233 01-09-2018 18:00:00 22.2 C 37 % 6.83 C
2234 01-09-2018 18:05:00 22.4 C 36 % 6.61 C
2235 01-09-2018 18:10:00 22.5 C 35 % 6.29 C
2236 01-09-2018 18:15:00 22.4 C 36 % 6.61 C
2237 01-09-2018 18:20:00 22.5 C 35 % 6.29 C
2238 01-09-2018 18:25:00 22.2 C 37 % 6.83 C
2239 01-09-2018 18:30:00 22.3 C 37 % 6.92 C
2240 01-09-2018 18:35:00 22.3 C 37 % 6.92 C
2241 01-09-2018 18:40:00 22.4 C 37 % 7.01 C
2242 01-09-2018 18:45:00 22.6 C 36 % 6.78 C
2243 01-09-2018 18:50:00 22.4 C 37 % 7.01 C
2244 01-09-2018 18:55:00 22.3 C 38 % 7.31 C
2245 01-09-2018 19:00:00 22.3 C 38 % 7.31 C
2246 01-09-2018 19:05:00 22.3 C 37 % 6.92 C
2247 01-09-2018 19:10:00 22.1 C 36 % 6.34 C
2248 01-09-2018 19:15:00 21.7 C 38 % 6.77 C
2249 01-09-2018 19:20:00 21.4 C 38 % 6.51 C
2250 01-09-2018 19:25:00 21.3 C 39 % 6.8 C
Sensor: Nr:Datum:Temp:Feuchte:Taupunkt:
Aussen-T/F 2251 01-09-2018 19:30:00 21.1 C 39 % 6.62 C
2252 01-09-2018 19:35:00 20.9 C 40 % 6.81 C
2253 01-09-2018 19:40:00 20.8 C 40 % 6.72 C
2254 01-09-2018 19:45:00 20.6 C 41 % 6.9 C
2255 01-09-2018 19:50:00 20.4 C 41 % 6.72 C
2256 01-09-2018 19:55:00 20.3 C 45 % 7.99 C
2257 01-09-2018 20:00:00 19.9 C 45 % 7.63 C
2258 01-09-2018 20:05:00 19.5 C 45 % 7.26 C
2259 01-09-2018 20:10:00 19.1 C 46 % 7.22 C
2260 01-09-2018 20:15:00 18.8 C 48 % 7.57 C
2261 01-09-2018 20:20:00 18.3 C 50 % 7.71 C
2262 01-09-2018 20:25:00 17.8 C 52 % 7.82 C
2263 01-09-2018 20:30:00 17.3 C 53 % 7.64 C
2264 01-09-2018 20:35:00 16.8 C 56 % 7.98 C
2265 01-09-2018 20:40:00 16.4 C 57 % 7.87 C
2266 01-09-2018 20:45:00 16.2 C 58 % 7.94 C
2267 01-09-2018 20:50:00 15.9 C 57 % 7.4 C
2268 01-09-2018 20:55:00 15.8 C 58 % 7.56 C
2269 01-09-2018 21:00:00 15.7 C 59 % 7.72 C
2270 01-09-2018 21:05:00 15.5 C 59 % 7.53 C
2271 01-09-2018 21:10:00 15.4 C 61 % 7.93 C
2272 01-09-2018 21:15:00 15.3 C 60 % 7.59 C
2273 01-09-2018 21:20:00 15.2 C 61 % 7.74 C
2274 01-09-2018 21:25:00 15.2 C 61 % 7.74 C
2275 01-09-2018 21:30:00 15.1 C 61 % 7.64 C
Sensor: Nr:Datum:Temp:Feuchte:Taupunkt:
Aussen-T/F 2276 01-09-2018 21:35:00 15.1 C 61 % 7.64 C
2277 01-09-2018 21:40:00 15 C 62 % 7.79 C
2278 01-09-2018 21:45:00 14.9 C 63 % 7.93 C
2279 01-09-2018 21:50:00 14.8 C 63 % 7.83 C
2280 01-09-2018 21:55:00 14.7 C 63 % 7.74 C
2281 01-09-2018 22:00:00 14.5 C 64 % 7.78 C
2282 01-09-2018 22:05:00 14.3 C 64 % 7.59 C
2283 01-09-2018 22:10:00 14.3 C 65 % 7.82 C
2284 01-09-2018 22:15:00 14.2 C 66 % 7.95 C
2285 01-09-2018 22:20:00 14.1 C 66 % 7.85 C
2286 01-09-2018 22:25:00 13.9 C 67 % 7.88 C
2287 01-09-2018 22:30:00 13.8 C 67 % 7.79 C
2288 01-09-2018 22:35:00 13.8 C 68 % 8 C
2289 01-09-2018 22:40:00 13.7 C 67 % 7.69 C
2290 01-09-2018 22:45:00 13.7 C 68 % 7.91 C
2291 01-09-2018 22:50:00 13.7 C 69 % 8.12 C
2292 01-09-2018 22:55:00 13.6 C 68 % 7.81 C
2293 01-09-2018 23:00:00 13.5 C 68 % 7.72 C
2294 01-09-2018 23:05:00 13.4 C 69 % 7.84 C
2295 01-09-2018 23:10:00 13.3 C 70 % 7.95 C
2296 01-09-2018 23:15:00 13.3 C 70 % 7.95 C
2297 01-09-2018 23:20:00 13.2 C 70 % 7.86 C
2298 01-09-2018 23:25:00 13.1 C 71 % 7.97 C
2299 01-09-2018 23:30:00 12.8 C 71 % 7.68 C
2300 01-09-2018 23:35:00 12.7 C 72 % 7.79 C
Sensor: Nr:Datum:Temp:Feuchte:Taupunkt:
Aussen-T/F 2301 01-09-2018 23:40:00 12.5 C 73 % 7.8 C
2302 01-09-2018 23:45:00 12.4 C 73 % 7.7 C
2303 01-09-2018 23:50:00 12.3 C 74 % 7.8 C
2304 01-09-2018 23:55:00 12.1 C 74 % 7.61 C
2305 02-09-2018 00:00:00 12 C 74 % 7.52 C
2306 02-09-2018 00:05:00 11.8 C 75 % 7.52 C
2307 02-09-2018 00:10:00 11.8 C 75 % 7.52 C
2308 02-09-2018 00:15:00 11.7 C 76 % 7.62 C
2309 02-09-2018 00:20:00 11.6 C 76 % 7.52 C
2310 02-09-2018 00:25:00 11.4 C 77 % 7.52 C
2311 02-09-2018 00:30:00 11.3 C 77 % 7.42 C
2312 02-09-2018 00:35:00 11.1 C 78 % 7.41 C
2313 02-09-2018 00:40:00 11 C 79 % 7.5 C
2314 02-09-2018 00:45:00 10.8 C 79 % 7.31 C
2315 02-09-2018 00:50:00 10.8 C 79 % 7.31 C
2316 02-09-2018 00:55:00 10.7 C 80 % 7.4 C
2317 02-09-2018 01:00:00 10.6 C 80 % 7.3 C
2318 02-09-2018 01:05:00 10.5 C 81 % 7.38 C
2319 02-09-2018 01:10:00 10.4 C 81 % 7.28 C
2320 02-09-2018 01:15:00 10.3 C 81 % 7.19 C
2321 02-09-2018 01:20:00 10.3 C 81 % 7.19 C
2322 02-09-2018 01:25:00 10.2 C 82 % 7.27 C
2323 02-09-2018 01:30:00 10.2 C 82 % 7.27 C
2324 02-09-2018 01:35:00 10.1 C 82 % 7.17 C
2325 02-09-2018 01:40:00 10.1 C 82 % 7.17 C
Sensor: Nr:Datum:Temp:Feuchte:Taupunkt:
Aussen-T/F 2326 02-09-2018 01:45:00 10 C 82 % 7.07 C
2327 02-09-2018 01:50:00 9.9 C 83 % 7.15 C
2328 02-09-2018 01:55:00 9.8 C 84 % 7.23 C
2329 02-09-2018 02:00:00 9.8 C 84 % 7.23 C
2330 02-09-2018 02:05:00 9.7 C 84 % 7.13 C
2331 02-09-2018 02:10:00 9.7 C 84 % 7.13 C
2332 02-09-2018 02:15:00 9.6 C 84 % 7.03 C
2333 02-09-2018 02:20:00 9.5 C 85 % 7.11 C
2334 02-09-2018 02:25:00 9.4 C 85 % 7.01 C
2335 02-09-2018 02:30:00 9.3 C 85 % 6.91 C
2336 02-09-2018 02:35:00 9.3 C 85 % 6.91 C
2337 02-09-2018 02:40:00 9.3 C 86 % 7.08 C
2338 02-09-2018 02:45:00 9.2 C 86 % 6.98 C
2339 02-09-2018 02:50:00 9.2 C 86 % 6.98 C
2340 02-09-2018 02:55:00 9.2 C 86 % 6.98 C
2341 02-09-2018 03:00:00 9.1 C 86 % 6.89 C
2342 02-09-2018 03:05:00 9.1 C 87 % 7.05 C
2343 02-09-2018 03:10:00 9.1 C 87 % 7.05 C
2344 02-09-2018 03:15:00 9.1 C 87 % 7.05 C
2345 02-09-2018 03:20:00 9 C 87 % 6.96 C
2346 02-09-2018 03:25:00 9 C 87 % 6.96 C
2347 02-09-2018 03:30:00 8.9 C 87 % 6.86 C
2348 02-09-2018 03:35:00 8.9 C 87 % 6.86 C
2349 02-09-2018 03:40:00 8.9 C 88 % 7.02 C
2350 02-09-2018 03:45:00 8.9 C 87 % 6.86 C
Sensor: Nr:Datum:Temp:Feuchte:Taupunkt:
Aussen-T/F 2351 02-09-2018 03:50:00 8.8 C 88 % 6.93 C
2352 02-09-2018 03:55:00 8.8 C 87 % 6.76 C
2353 02-09-2018 04:00:00 8.7 C 87 % 6.66 C
2354 02-09-2018 04:05:00 8.7 C 88 % 6.83 C
2355 02-09-2018 04:10:00 8.6 C 88 % 6.73 C
2356 02-09-2018 04:15:00 8.6 C 88 % 6.73 C
2357 02-09-2018 04:20:00 8.6 C 88 % 6.73 C
2358 02-09-2018 04:25:00 8.6 C 88 % 6.73 C
2359 02-09-2018 04:30:00 8.6 C 88 % 6.73 C
2360 02-09-2018 04:35:00 8.5 C 89 % 6.79 C
2361 02-09-2018 04:40:00 8.4 C 89 % 6.7 C
2362 02-09-2018 04:45:00 8.4 C 89 % 6.7 C
2363 02-09-2018 04:50:00 8.3 C 89 % 6.6 C
2364 02-09-2018 04:55:00 8.3 C 89 % 6.6 C
2365 02-09-2018 05:00:00 8.3 C 89 % 6.6 C
2366 02-09-2018 05:05:00 8.2 C 89 % 6.5 C
2367 02-09-2018 05:10:00 8.2 C 90 % 6.66 C
2368 02-09-2018 05:15:00 8.2 C 90 % 6.66 C
2369 02-09-2018 05:20:00 8.2 C 90 % 6.66 C
2370 02-09-2018 05:25:00 8.2 C 90 % 6.66 C
2371 02-09-2018 05:30:00 8.2 C 90 % 6.66 C
2372 02-09-2018 05:35:00 8.1 C 90 % 6.56 C
2373 02-09-2018 05:40:00 8.1 C 90 % 6.56 C
2374 02-09-2018 05:45:00 8.1 C 90 % 6.56 C
2375 02-09-2018 05:50:00 8.1 C 91 % 6.72 C
Sensor: Nr:Datum:Temp:Feuchte:Taupunkt:
Aussen-T/F 2376 02-09-2018 05:55:00 8.1 C 91 % 6.72 C
2377 02-09-2018 06:00:00 8 C 91 % 6.62 C
2378 02-09-2018 06:05:00 8 C 91 % 6.62 C
2379 02-09-2018 06:10:00 7.9 C 91 % 6.52 C
2380 02-09-2018 06:15:00 7.9 C 91 % 6.52 C
2381 02-09-2018 06:20:00 7.9 C 91 % 6.52 C
2382 02-09-2018 06:25:00 7.9 C 91 % 6.52 C
2383 02-09-2018 06:30:00 8 C 92 % 6.78 C
2384 02-09-2018 06:35:00 8.1 C 91 % 6.72 C
2385 02-09-2018 06:40:00 8 C 91 % 6.62 C
2386 02-09-2018 06:45:00 8 C 91 % 6.62 C
2387 02-09-2018 06:50:00 7.9 C 91 % 6.52 C
2388 02-09-2018 06:55:00 7.9 C 91 % 6.52 C
2389 02-09-2018 07:00:00 7.9 C 91 % 6.52 C
2390 02-09-2018 07:05:00 7.9 C 92 % 6.68 C
2391 02-09-2018 07:10:00 7.9 C 92 % 6.68 C
2392 02-09-2018 07:15:00 7.9 C 92 % 6.68 C
2393 02-09-2018 07:20:00 7.9 C 92 % 6.68 C
2394 02-09-2018 07:25:00 7.9 C 92 % 6.68 C
2395 02-09-2018 07:30:00 8.1 C 92 % 6.88 C
2396 02-09-2018 07:35:00 8.1 C 92 % 6.88 C
2397 02-09-2018 07:40:00 8.1 C 92 % 6.88 C
2398 02-09-2018 07:45:00 8.2 C 92 % 6.98 C
2399 02-09-2018 07:50:00 8.2 C 92 % 6.98 C
2400 02-09-2018 07:55:00 8.2 C 92 % 6.98 C
Sensor: Nr:Datum:Temp:Feuchte:Taupunkt:
Aussen-T/F 2401 02-09-2018 08:00:00 8.3 C 92 % 7.08 C
2402 02-09-2018 08:05:00 8.3 C 92 % 7.08 C
2403 02-09-2018 08:10:00 8.3 C 92 % 7.08 C
2404 02-09-2018 08:15:00 8.4 C 92 % 7.18 C
2405 02-09-2018 08:20:00 8.4 C 92 % 7.18 C
2406 02-09-2018 08:25:00 8.6 C 92 % 7.38 C
2407 02-09-2018 08:30:00 8.6 C 92 % 7.38 C
2408 02-09-2018 08:35:00 8.7 C 92 % 7.47 C
2409 02-09-2018 08:40:00 8.8 C 92 % 7.57 C
2410 02-09-2018 08:45:00 8.9 C 92 % 7.67 C
2411 02-09-2018 08:50:00 9 C 92 % 7.77 C
2412 02-09-2018 08:55:00 9.1 C 92 % 7.87 C
2413 02-09-2018 09:00:00 9.2 C 92 % 7.97 C
2414 02-09-2018 09:05:00 9.3 C 92 % 8.07 C
2415 02-09-2018 09:10:00 9.3 C 92 % 8.07 C
2416 02-09-2018 09:15:00 9.4 C 92 % 8.17 C
2417 02-09-2018 09:20:00 9.6 C 92 % 8.37 C
2418 02-09-2018 09:25:00 9.7 C 92 % 8.46 C
2419 02-09-2018 09:30:00 9.8 C 92 % 8.56 C
2420 02-09-2018 09:35:00 10.1 C 93 % 9.02 C
2421 02-09-2018 09:40:00 10.3 C 93 % 9.22 C
2422 02-09-2018 09:45:00 10.5 C 93 % 9.42 C
2423 02-09-2018 09:50:00 10.7 C 93 % 9.62 C
2424 02-09-2018 09:55:00 10.9 C 93 % 9.81 C
2425 02-09-2018 10:00:00 11.2 C 92 % 9.95 C
Sensor: Nr:Datum:Temp:Feuchte:Taupunkt:
Aussen-T/F 2426 02-09-2018 10:05:00 11.5 C 91 % 10.08 C
2427 02-09-2018 10:10:00 11.8 C 91 % 10.38 C
2428 02-09-2018 10:15:00 12 C 90 % 10.41 C
2429 02-09-2018 10:20:00 12.3 C 89 % 10.54 C
2430 02-09-2018 10:25:00 12.7 C 88 % 10.77 C
2431 02-09-2018 10:30:00 13.1 C 87 % 10.99 C
2432 02-09-2018 10:35:00 13.5 C 85 % 11.03 C
2433 02-09-2018 10:40:00 14 C 83 % 11.16 C
2434 02-09-2018 10:45:00 14.3 C 81 % 11.09 C
2435 02-09-2018 10:50:00 14.7 C 82 % 11.66 C
2436 02-09-2018 10:55:00 15.2 C 79 % 11.59 C
2437 02-09-2018 11:00:00 15.6 C 78 % 11.78 C
2438 02-09-2018 11:05:00 15.9 C 77 % 11.88 C
2439 02-09-2018 11:10:00 16.3 C 75 % 11.86 C
2440 02-09-2018 11:15:00 16.6 C 73 % 11.74 C
2441 02-09-2018 11:20:00 16.8 C 73 % 11.94 C
2442 02-09-2018 11:25:00 16.9 C 71 % 11.61 C
2443 02-09-2018 11:30:00 17.1 C 72 % 12.02 C
2444 02-09-2018 11:35:00 17.2 C 71 % 11.9 C
2445 02-09-2018 11:40:00 17.3 C 69 % 11.56 C
2446 02-09-2018 11:45:00 17.4 C 70 % 11.88 C
2447 02-09-2018 11:50:00 17.6 C 68 % 11.63 C
2448 02-09-2018 11:55:00 17.7 C 68 % 11.72 C
2449 02-09-2018 12:00:00 17.8 C 68 % 11.82 C
2450 02-09-2018 12:05:00 17.9 C 68 % 11.91 C
Sensor: Nr:Datum:Temp:Feuchte:Taupunkt:
Aussen-T/F 2451 02-09-2018 12:10:00 18 C 67 % 11.79 C
2452 02-09-2018 12:15:00 18.1 C 67 % 11.88 C
2453 02-09-2018 12:20:00 18.2 C 68 % 12.2 C
2454 02-09-2018 12:25:00 18.4 C 68 % 12.39 C
2455 02-09-2018 12:30:00 18.7 C 67 % 12.45 C
2456 02-09-2018 12:35:00 18.8 C 67 % 12.55 C
2457 02-09-2018 12:40:00 19 C 66 % 12.51 C
2458 02-09-2018 12:45:00 19.2 C 64 % 12.23 C
2459 02-09-2018 12:50:00 19.3 C 64 % 12.32 C
2460 02-09-2018 12:55:00 19.4 C 66 % 12.89 C
2461 02-09-2018 13:00:00 19.4 C 63 % 12.18 C
2462 02-09-2018 13:05:00 19.4 C 62 % 11.94 C
2463 02-09-2018 13:10:00 19.4 C 62 % 11.94 C
2464 02-09-2018 13:15:00 19.4 C 62 % 11.94 C
2465 02-09-2018 13:20:00 19.4 C 62 % 11.94 C
2466 02-09-2018 13:25:00 19.5 C 63 % 12.27 C
2467 02-09-2018 13:30:00 19.5 C 62 % 12.03 C
2468 02-09-2018 13:35:00 19.4 C 62 % 11.94 C
2469 02-09-2018 13:40:00 19.4 C 61 % 11.69 C
2470 02-09-2018 13:45:00 19.4 C 61 % 11.69 C
2471 02-09-2018 13:50:00 19.4 C 61 % 11.69 C
2472 02-09-2018 13:55:00 19.4 C 61 % 11.69 C
2473 02-09-2018 14:00:00 19.4 C 62 % 11.94 C
2474 02-09-2018 14:05:00 19.4 C 63 % 12.18 C
2475 02-09-2018 14:10:00 19.4 C 63 % 12.18 C
Sensor: Nr:Datum:Temp:Feuchte:Taupunkt:
Aussen-T/F 2476 02-09-2018 14:15:00 19.3 C 63 % 12.09 C
2477 02-09-2018 14:20:00 19.3 C 64 % 12.32 C
2478 02-09-2018 14:25:00 19.3 C 63 % 12.09 C
2479 02-09-2018 14:30:00 19.3 C 65 % 12.56 C
2480 02-09-2018 14:35:00 19.3 C 64 % 12.32 C
2481 02-09-2018 14:40:00 19.3 C 64 % 12.32 C
2482 02-09-2018 14:45:00 19.3 C 63 % 12.09 C
2483 02-09-2018 14:50:00 19.2 C 63 % 11.99 C
2484 02-09-2018 14:55:00 19.3 C 63 % 12.09 C
2485 02-09-2018 15:00:00 19.3 C 65 % 12.56 C
2486 02-09-2018 15:05:00 19.2 C 64 % 12.23 C
2487 02-09-2018 15:10:00 19.2 C 62 % 11.75 C
2488 02-09-2018 15:15:00 19.2 C 62 % 11.75 C
2489 02-09-2018 15:20:00 19.3 C 64 % 12.32 C
2490 02-09-2018 15:25:00 19.3 C 67 % 13.02 C
2491 02-09-2018 15:30:00 19.3 C 68 % 13.25 C
2492 02-09-2018 15:35:00 19.3 C 66 % 12.79 C
2493 02-09-2018 15:40:00 19.3 C 68 % 13.25 C
2494 02-09-2018 15:45:00 19.3 C 68 % 13.25 C
2495 02-09-2018 15:50:00 19.4 C 60 % 11.44 C
2496 02-09-2018 15:55:00 19.6 C 58 % 11.12 C
2497 02-09-2018 16:00:00 19.6 C 58 % 11.12 C
2498 02-09-2018 16:05:00 19.7 C 59 % 11.47 C
2499 02-09-2018 16:10:00 19.7 C 60 % 11.72 C
2500 02-09-2018 16:15:00 19.7 C 60 % 11.72 C
Sensor: Nr:Datum:Temp:Feuchte:Taupunkt:
Aussen-T/F 2501 02-09-2018 16:20:00 19.8 C 63 % 12.56 C
2502 02-09-2018 16:25:00 19.7 C 63 % 12.46 C
2503 02-09-2018 16:30:00 19.7 C 64 % 12.7 C
2504 02-09-2018 16:35:00 19.7 C 65 % 12.94 C
2505 02-09-2018 16:40:00 19.7 C 65 % 12.94 C
2506 02-09-2018 16:45:00 19.6 C 65 % 12.84 C
2507 02-09-2018 16:50:00 19.6 C 63 % 12.37 C
2508 02-09-2018 16:55:00 19.4 C 64 % 12.42 C
2509 02-09-2018 17:00:00 19.3 C 64 % 12.32 C
2510 02-09-2018 17:05:00 19.3 C 65 % 12.56 C
2511 02-09-2018 17:10:00 19.2 C 63 % 11.99 C
2512 02-09-2018 17:15:00 19.2 C 62 % 11.75 C
2513 02-09-2018 17:20:00 19.2 C 64 % 12.23 C
2514 02-09-2018 17:25:00 19.3 C 62 % 11.84 C
2515 02-09-2018 17:30:00 19.3 C 65 % 12.56 C
2516 02-09-2018 17:35:00 19.4 C 65 % 12.66 C
2517 02-09-2018 17:40:00 19.4 C 66 % 12.89 C
2518 02-09-2018 17:45:00 19.4 C 64 % 12.42 C
2519 02-09-2018 17:50:00 19.4 C 62 % 11.94 C
2520 02-09-2018 17:55:00 19.3 C 62 % 11.84 C
2521 02-09-2018 18:00:00 19.3 C 65 % 12.56 C
2522 02-09-2018 18:05:00 19.2 C 66 % 12.7 C
2523 02-09-2018 18:10:00 19.1 C 65 % 12.37 C
2524 02-09-2018 18:15:00 19 C 66 % 12.51 C
2525 02-09-2018 18:20:00 18.9 C 65 % 12.18 C
Sensor: Nr:Datum:Temp:Feuchte:Taupunkt:
Aussen-T/F 2526 02-09-2018 18:25:00 18.8 C 66 % 12.32 C
2527 02-09-2018 18:30:00 18.7 C 66 % 12.22 C
2528 02-09-2018 18:35:00 18.5 C 65 % 11.8 C
2529 02-09-2018 18:40:00 18.4 C 66 % 11.94 C
2530 02-09-2018 18:45:00 18.3 C 67 % 12.07 C
2531 02-09-2018 18:50:00 18.2 C 67 % 11.98 C
2532 02-09-2018 18:55:00 18.2 C 67 % 11.98 C
2533 02-09-2018 19:00:00 18.1 C 67 % 11.88 C
2534 02-09-2018 19:05:00 18 C 68 % 12.01 C
2535 02-09-2018 19:10:00 17.9 C 67 % 11.69 C
2536 02-09-2018 19:15:00 17.8 C 67 % 11.6 C
2537 02-09-2018 19:20:00 17.8 C 68 % 11.82 C
2538 02-09-2018 19:25:00 17.7 C 68 % 11.72 C
2539 02-09-2018 19:30:00 17.7 C 68 % 11.72 C
2540 02-09-2018 19:35:00 17.6 C 68 % 11.63 C
2541 02-09-2018 19:40:00 17.6 C 68 % 11.63 C
2542 02-09-2018 19:45:00 17.5 C 69 % 11.75 C
2543 02-09-2018 19:50:00 17.4 C 69 % 11.66 C
2544 02-09-2018 19:55:00 17.4 C 70 % 11.88 C
2545 02-09-2018 20:00:00 17.3 C 69 % 11.56 C
2546 02-09-2018 20:05:00 17.3 C 69 % 11.56 C
2547 02-09-2018 20:10:00 17.2 C 68 % 11.25 C
2548 02-09-2018 20:15:00 17.2 C 68 % 11.25 C
2549 02-09-2018 20:20:00 17.2 C 69 % 11.47 C
2550 02-09-2018 20:25:00 17.2 C 69 % 11.47 C
Sensor: Nr:Datum:Temp:Feuchte:Taupunkt:
Aussen-T/F 2551 02-09-2018 20:30:00 17.2 C 69 % 11.47 C
2552 02-09-2018 20:35:00 17.2 C 69 % 11.47 C
2553 02-09-2018 20:40:00 17.2 C 69 % 11.47 C
2554 02-09-2018 20:45:00 17.2 C 70 % 11.68 C
2555 02-09-2018 20:50:00 17.2 C 68 % 11.25 C
2556 02-09-2018 20:55:00 17.3 C 69 % 11.56 C
2557 02-09-2018 21:00:00 17.3 C 68 % 11.34 C
2558 02-09-2018 21:05:00 17.5 C 68 % 11.53 C
2559 02-09-2018 21:10:00 17.6 C 69 % 11.85 C
2560 02-09-2018 21:15:00 17.6 C 68 % 11.63 C
2561 02-09-2018 21:20:00 17.6 C 68 % 11.63 C
2562 02-09-2018 21:25:00 17.6 C 68 % 11.63 C
2563 02-09-2018 21:30:00 17.6 C 69 % 11.85 C
2564 02-09-2018 21:35:00 17.6 C 69 % 11.85 C
2565 02-09-2018 21:40:00 17.6 C 69 % 11.85 C
2566 02-09-2018 21:45:00 17.6 C 69 % 11.85 C
2567 02-09-2018 21:50:00 17.6 C 70 % 12.07 C
2568 02-09-2018 21:55:00 17.6 C 70 % 12.07 C
2569 02-09-2018 22:00:00 17.6 C 70 % 12.07 C
2570 02-09-2018 22:05:00 17.6 C 71 % 12.28 C
2571 02-09-2018 22:10:00 17.6 C 71 % 12.28 C
2572 02-09-2018 22:15:00 17.5 C 72 % 12.4 C
2573 02-09-2018 22:20:00 17.4 C 73 % 12.51 C
2574 02-09-2018 22:25:00 17.4 C 73 % 12.51 C
2575 02-09-2018 22:30:00 17.4 C 73 % 12.51 C
Sensor: Nr:Datum:Temp:Feuchte:Taupunkt:
Aussen-T/F 2576 02-09-2018 22:35:00 17.4 C 74 % 12.72 C
2577 02-09-2018 22:40:00 17.4 C 74 % 12.72 C
2578 02-09-2018 22:45:00 17.4 C 74 % 12.72 C
2579 02-09-2018 22:50:00 17.4 C 74 % 12.72 C
2580 02-09-2018 22:55:00 17.4 C 74 % 12.72 C
2581 02-09-2018 23:00:00 17.4 C 74 % 12.72 C
2582 02-09-2018 23:05:00 17.4 C 74 % 12.72 C
2583 02-09-2018 23:10:00 17.3 C 74 % 12.62 C
2584 02-09-2018 23:15:00 17.3 C 74 % 12.62 C
2585 02-09-2018 23:20:00 17.3 C 75 % 12.83 C
2586 02-09-2018 23:25:00 17.2 C 75 % 12.73 C
2587 02-09-2018 23:30:00 17.2 C 75 % 12.73 C
2588 02-09-2018 23:35:00 17.2 C 75 % 12.73 C
2589 02-09-2018 23:40:00 17.2 C 76 % 12.94 C
2590 02-09-2018 23:45:00 17.2 C 76 % 12.94 C
2591 02-09-2018 23:50:00 17.2 C 76 % 12.94 C
2592 02-09-2018 23:55:00 17.2 C 76 % 12.94 C
2593 03-09-2018 00:00:00 17.1 C 76 % 12.84 C
2594 03-09-2018 00:05:00 17.1 C 77 % 13.04 C
2595 03-09-2018 00:10:00 17.1 C 77 % 13.04 C
2596 03-09-2018 00:15:00 17 C 77 % 12.94 C
2597 03-09-2018 00:20:00 17 C 78 % 13.14 C
2598 03-09-2018 00:25:00 16.9 C 78 % 13.04 C
2599 03-09-2018 00:30:00 16.9 C 78 % 13.04 C
2600 03-09-2018 00:35:00 16.8 C 78 % 12.94 C
Sensor: Nr:Datum:Temp:Feuchte:Taupunkt:
Aussen-T/F 2601 03-09-2018 00:40:00 16.8 C 79 % 13.14 C
2602 03-09-2018 00:45:00 16.7 C 79 % 13.04 C
2603 03-09-2018 00:50:00 16.7 C 80 % 13.23 C
2604 03-09-2018 00:55:00 16.6 C 80 % 13.14 C
2605 03-09-2018 01:00:00 16.6 C 80 % 13.14 C
2606 03-09-2018 01:05:00 16.5 C 81 % 13.23 C
2607 03-09-2018 01:10:00 16.4 C 81 % 13.13 C
2608 03-09-2018 01:15:00 16.4 C 81 % 13.13 C
2609 03-09-2018 01:20:00 16.4 C 81 % 13.13 C
2610 03-09-2018 01:25:00 16.4 C 81 % 13.13 C
2611 03-09-2018 01:30:00 16.3 C 81 % 13.04 C
2612 03-09-2018 01:35:00 16.4 C 81 % 13.13 C
2613 03-09-2018 01:40:00 16.4 C 81 % 13.13 C
2614 03-09-2018 01:45:00 16.4 C 82 % 13.32 C
2615 03-09-2018 01:50:00 16.4 C 82 % 13.32 C
2616 03-09-2018 01:55:00 16.3 C 82 % 13.22 C
2617 03-09-2018 02:00:00 16.2 C 82 % 13.13 C
2618 03-09-2018 02:05:00 16.2 C 82 % 13.13 C
2619 03-09-2018 02:10:00 16.1 C 83 % 13.21 C
2620 03-09-2018 02:15:00 16.1 C 83 % 13.21 C
2621 03-09-2018 02:20:00 16.1 C 83 % 13.21 C
2622 03-09-2018 02:25:00 16.1 C 83 % 13.21 C
2623 03-09-2018 02:30:00 16.1 C 83 % 13.21 C
2624 03-09-2018 02:35:00 16.1 C 84 % 13.4 C
2625 03-09-2018 02:40:00 16 C 84 % 13.3 C
Sensor: Nr:Datum:Temp:Feuchte:Taupunkt:
Aussen-T/F 2626 03-09-2018 02:45:00 16 C 84 % 13.3 C
2627 03-09-2018 02:50:00 16 C 84 % 13.3 C
2628 03-09-2018 02:55:00 15.9 C 84 % 13.2 C
2629 03-09-2018 03:00:00 15.9 C 84 % 13.2 C
2630 03-09-2018 03:05:00 15.9 C 84 % 13.2 C
2631 03-09-2018 03:10:00 15.9 C 84 % 13.2 C
2632 03-09-2018 03:15:00 15.9 C 84 % 13.2 C
2633 03-09-2018 03:20:00 15.9 C 84 % 13.2 C
2634 03-09-2018 03:25:00 15.9 C 85 % 13.38 C
2635 03-09-2018 03:30:00 15.9 C 85 % 13.38 C
2636 03-09-2018 03:35:00 15.9 C 85 % 13.38 C
2637 03-09-2018 03:40:00 15.9 C 85 % 13.38 C
2638 03-09-2018 03:45:00 15.9 C 85 % 13.38 C
2639 03-09-2018 03:50:00 15.9 C 85 % 13.38 C
2640 03-09-2018 03:55:00 15.9 C 85 % 13.38 C
2641 03-09-2018 04:00:00 15.9 C 85 % 13.38 C
2642 03-09-2018 04:05:00 15.9 C 85 % 13.38 C
2643 03-09-2018 04:10:00 15.9 C 85 % 13.38 C
2644 03-09-2018 04:15:00 15.9 C 85 % 13.38 C
2645 03-09-2018 04:20:00 15.9 C 85 % 13.38 C
2646 03-09-2018 04:25:00 15.9 C 85 % 13.38 C
2647 03-09-2018 04:30:00 15.9 C 85 % 13.38 C
2648 03-09-2018 04:35:00 15.9 C 85 % 13.38 C
2649 03-09-2018 04:40:00 15.9 C 85 % 13.38 C
2650 03-09-2018 04:45:00 15.8 C 85 % 13.28 C
Sensor: Nr:Datum:Temp:Feuchte:Taupunkt:
Aussen-T/F 2651 03-09-2018 04:50:00 15.8 C 86 % 13.46 C
2652 03-09-2018 04:55:00 15.8 C 86 % 13.46 C
2653 03-09-2018 05:00:00 15.8 C 86 % 13.46 C
2654 03-09-2018 05:05:00 15.8 C 86 % 13.46 C
2655 03-09-2018 05:10:00 15.8 C 86 % 13.46 C
2656 03-09-2018 05:15:00 15.8 C 86 % 13.46 C
2657 03-09-2018 05:20:00 15.8 C 86 % 13.46 C
2658 03-09-2018 05:25:00 15.8 C 86 % 13.46 C
2659 03-09-2018 05:30:00 15.7 C 86 % 13.37 C
2660 03-09-2018 05:35:00 15.7 C 86 % 13.37 C
2661 03-09-2018 05:40:00 15.7 C 86 % 13.37 C
2662 03-09-2018 05:45:00 15.7 C 86 % 13.37 C
2663 03-09-2018 05:50:00 15.7 C 86 % 13.37 C
2664 03-09-2018 05:55:00 15.7 C 86 % 13.37 C
2665 03-09-2018 06:00:00 15.7 C 86 % 13.37 C
2666 03-09-2018 06:05:00 15.7 C 86 % 13.37 C
2667 03-09-2018 06:10:00 15.7 C 86 % 13.37 C
2668 03-09-2018 06:15:00 15.7 C 86 % 13.37 C
2669 03-09-2018 06:20:00 15.7 C 86 % 13.37 C
2670 03-09-2018 06:25:00 15.6 C 86 % 13.27 C
2671 03-09-2018 06:30:00 15.6 C 86 % 13.27 C
2672 03-09-2018 06:35:00 15.6 C 86 % 13.27 C
2673 03-09-2018 06:40:00 15.6 C 86 % 13.27 C
2674 03-09-2018 06:45:00 15.5 C 86 % 13.17 C
2675 03-09-2018 06:50:00 15.5 C 87 % 13.35 C
Sensor: Nr:Datum:Temp:Feuchte:Taupunkt:
Aussen-T/F 2676 03-09-2018 06:55:00 15.5 C 87 % 13.35 C
2677 03-09-2018 07:00:00 15.5 C 87 % 13.35 C
2678 03-09-2018 07:05:00 15.5 C 87 % 13.35 C
2679 03-09-2018 07:10:00 15.5 C 87 % 13.35 C
2680 03-09-2018 07:15:00 15.5 C 87 % 13.35 C
2681 03-09-2018 07:20:00 15.5 C 87 % 13.35 C
2682 03-09-2018 07:25:00 15.5 C 87 % 13.35 C
2683 03-09-2018 07:30:00 15.5 C 87 % 13.35 C
2684 03-09-2018 07:35:00 15.5 C 87 % 13.35 C
2685 03-09-2018 07:40:00 15.6 C 87 % 13.45 C
2686 03-09-2018 07:45:00 15.6 C 87 % 13.45 C
2687 03-09-2018 07:50:00 15.6 C 87 % 13.45 C
2688 03-09-2018 07:55:00 15.7 C 87 % 13.54 C
2689 03-09-2018 08:00:00 15.7 C 87 % 13.54 C
2690 03-09-2018 08:05:00 15.8 C 87 % 13.64 C
2691 03-09-2018 08:10:00 15.8 C 87 % 13.64 C
2692 03-09-2018 08:15:00 15.9 C 87 % 13.74 C
2693 03-09-2018 08:20:00 15.9 C 87 % 13.74 C
2694 03-09-2018 08:25:00 16 C 87 % 13.84 C
2695 03-09-2018 08:30:00 16.1 C 87 % 13.94 C
2696 03-09-2018 08:35:00 16.1 C 87 % 13.94 C
2697 03-09-2018 08:40:00 16.2 C 87 % 14.03 C
2698 03-09-2018 08:45:00 16.2 C 87 % 14.03 C
2699 03-09-2018 08:50:00 16.3 C 86 % 13.95 C
2700 03-09-2018 08:55:00 16.3 C 85 % 13.77 C
Sensor: Nr:Datum:Temp:Feuchte:Taupunkt:
Aussen-T/F 2701 03-09-2018 09:00:00 16.4 C 85 % 13.87 C
2702 03-09-2018 09:05:00 16.6 C 85 % 14.07 C
2703 03-09-2018 09:10:00 16.7 C 84 % 13.98 C
2704 03-09-2018 09:15:00 16.8 C 84 % 14.08 C
2705 03-09-2018 09:20:00 17 C 83 % 14.09 C
2706 03-09-2018 09:25:00 17.2 C 83 % 14.29 C
2707 03-09-2018 09:30:00 17.3 C 83 % 14.39 C
2708 03-09-2018 09:35:00 17.4 C 82 % 14.3 C
2709 03-09-2018 09:40:00 17.5 C 82 % 14.39 C
2710 03-09-2018 09:45:00 17.6 C 82 % 14.49 C
2711 03-09-2018 09:50:00 17.6 C 81 % 14.3 C
2712 03-09-2018 09:55:00 17.6 C 81 % 14.3 C
2713 03-09-2018 10:00:00 17.5 C 81 % 14.2 C
2714 03-09-2018 10:05:00 17.5 C 81 % 14.2 C
2715 03-09-2018 10:10:00 17.5 C 81 % 14.2 C
2716 03-09-2018 10:15:00 17.5 C 81 % 14.2 C
2717 03-09-2018 10:20:00 17.6 C 82 % 14.49 C
2718 03-09-2018 10:25:00 17.7 C 81 % 14.4 C
2719 03-09-2018 10:30:00 17.8 C 80 % 14.31 C
2720 03-09-2018 10:35:00 17.8 C 80 % 14.31 C
2721 03-09-2018 10:40:00 17.9 C 80 % 14.4 C
2722 03-09-2018 10:45:00 18 C 80 % 14.5 C
2723 03-09-2018 10:50:00 18 C 79 % 14.31 C
2724 03-09-2018 10:55:00 18.1 C 79 % 14.4 C
2725 03-09-2018 11:00:00 18.1 C 79 % 14.4 C
Sensor: Nr:Datum:Temp:Feuchte:Taupunkt:
Aussen-T/F 2726 03-09-2018 11:05:00 18.2 C 80 % 14.69 C
2727 03-09-2018 11:10:00 18.4 C 79 % 14.69 C
2728 03-09-2018 11:15:00 18.6 C 78 % 14.69 C
2729 03-09-2018 11:20:00 18.7 C 78 % 14.79 C
2730 03-09-2018 11:25:00 18.7 C 77 % 14.59 C
2731 03-09-2018 11:30:00 18.8 C 77 % 14.68 C
2732 03-09-2018 11:35:00 18.9 C 77 % 14.78 C
2733 03-09-2018 11:40:00 19 C 77 % 14.88 C
2734 03-09-2018 11:45:00 19.1 C 76 % 14.77 C
2735 03-09-2018 11:50:00 19.1 C 76 % 14.77 C
2736 03-09-2018 11:55:00 19.2 C 76 % 14.87 C
2737 03-09-2018 12:00:00 19.4 C 74 % 14.65 C
2738 03-09-2018 12:05:00 19.6 C 75 % 15.05 C
2739 03-09-2018 12:10:00 19.6 C 74 % 14.84 C
2740 03-09-2018 12:15:00 19.7 C 74 % 14.94 C
2741 03-09-2018 12:20:00 19.6 C 73 % 14.63 C
2742 03-09-2018 12:25:00 19.4 C 74 % 14.65 C
2743 03-09-2018 12:30:00 19.4 C 74 % 14.65 C
2744 03-09-2018 12:35:00 19.4 C 74 % 14.65 C
2745 03-09-2018 12:40:00 19.5 C 75 % 14.95 C
2746 03-09-2018 12:45:00 19.6 C 74 % 14.84 C
2747 03-09-2018 12:50:00 19.6 C 73 % 14.63 C
2748 03-09-2018 12:55:00 19.6 C 74 % 14.84 C
2749 03-09-2018 13:00:00 19.7 C 74 % 14.94 C
2750 03-09-2018 13:05:00 19.7 C 74 % 14.94 C
Sensor: Nr:Datum:Temp:Feuchte:Taupunkt:
Aussen-T/F 2751 03-09-2018 13:10:00 19.7 C 73 % 14.73 C
2752 03-09-2018 13:15:00 19.7 C 73 % 14.73 C
2753 03-09-2018 13:20:00 19.8 C 74 % 15.03 C
2754 03-09-2018 13:25:00 19.8 C 74 % 15.03 C
2755 03-09-2018 13:30:00 20 C 74 % 15.23 C
2756 03-09-2018 13:35:00 20.2 C 72 % 14.99 C
2757 03-09-2018 13:40:00 20.3 C 72 % 15.09 C
2758 03-09-2018 13:45:00 20.3 C 72 % 15.09 C
2759 03-09-2018 13:50:00 20.3 C 72 % 15.09 C
2760 03-09-2018 13:55:00 20.5 C 73 % 15.5 C
2761 03-09-2018 14:00:00 20.7 C 72 % 15.47 C
2762 03-09-2018 14:05:00 20.8 C 72 % 15.57 C
2763 03-09-2018 14:10:00 20.9 C 70 % 15.23 C
2764 03-09-2018 14:15:00 20.8 C 70 % 15.13 C
2765 03-09-2018 14:20:00 20.7 C 71 % 15.25 C
2766 03-09-2018 14:25:00 20.7 C 71 % 15.25 C
2767 03-09-2018 14:30:00 20.7 C 71 % 15.25 C
2768 03-09-2018 14:35:00 20.8 C 71 % 15.35 C
2769 03-09-2018 14:40:00 20.8 C 71 % 15.35 C
2770 03-09-2018 14:45:00 20.9 C 71 % 15.45 C
2771 03-09-2018 14:50:00 20.9 C 70 % 15.23 C
2772 03-09-2018 14:55:00 20.9 C 71 % 15.45 C
2773 03-09-2018 15:00:00 20.9 C 70 % 15.23 C
2774 03-09-2018 15:05:00 20.9 C 71 % 15.45 C
2775 03-09-2018 15:10:00 21 C 70 % 15.32 C
Sensor: Nr:Datum:Temp:Feuchte:Taupunkt:
Aussen-T/F 2776 03-09-2018 15:15:00 21 C 71 % 15.54 C
2777 03-09-2018 15:20:00 20.9 C 71 % 15.45 C
2778 03-09-2018 15:25:00 20.8 C 71 % 15.35 C
2779 03-09-2018 15:30:00 20.8 C 72 % 15.57 C
2780 03-09-2018 15:35:00 20.8 C 73 % 15.78 C
2781 03-09-2018 15:40:00 20.8 C 72 % 15.57 C
2782 03-09-2018 15:45:00 20.7 C 73 % 15.69 C
2783 03-09-2018 15:50:00 20.7 C 72 % 15.47 C
2784 03-09-2018 15:55:00 20.7 C 72 % 15.47 C
2785 03-09-2018 16:00:00 20.7 C 72 % 15.47 C
2786 03-09-2018 16:05:00 20.7 C 72 % 15.47 C
2787 03-09-2018 16:10:00 20.8 C 73 % 15.78 C
2788 03-09-2018 16:15:00 20.8 C 72 % 15.57 C
2789 03-09-2018 16:20:00 20.7 C 72 % 15.47 C
2790 03-09-2018 16:25:00 20.7 C 72 % 15.47 C
2791 03-09-2018 16:30:00 20.7 C 72 % 15.47 C
2792 03-09-2018 16:35:00 20.6 C 72 % 15.38 C
2793 03-09-2018 16:40:00 20.6 C 73 % 15.59 C
2794 03-09-2018 16:45:00 20.6 C 72 % 15.38 C
2795 03-09-2018 16:50:00 20.6 C 73 % 15.59 C
2796 03-09-2018 16:55:00 20.6 C 73 % 15.59 C
2797 03-09-2018 17:00:00 20.6 C 73 % 15.59 C
2798 03-09-2018 17:05:00 20.6 C 75 % 16.01 C
2799 03-09-2018 17:10:00 20.6 C 75 % 16.01 C
2800 03-09-2018 17:15:00 20.6 C 75 % 16.01 C
Sensor: Nr:Datum:Temp:Feuchte:Taupunkt:
Aussen-T/F 2801 03-09-2018 17:20:00 20.6 C 75 % 16.01 C
2802 03-09-2018 17:25:00 20.6 C 76 % 16.22 C
2803 03-09-2018 17:30:00 20.6 C 76 % 16.22 C
2804 03-09-2018 17:35:00 20.6 C 76 % 16.22 C
2805 03-09-2018 17:40:00 20.6 C 75 % 16.01 C
2806 03-09-2018 17:45:00 20.6 C 75 % 16.01 C
2807 03-09-2018 17:50:00 20.6 C 75 % 16.01 C
2808 03-09-2018 17:55:00 20.5 C 75 % 15.92 C
2809 03-09-2018 18:00:00 20.5 C 75 % 15.92 C
2810 03-09-2018 18:05:00 20.4 C 75 % 15.82 C
2811 03-09-2018 18:10:00 20.4 C 75 % 15.82 C
2812 03-09-2018 18:15:00 20.4 C 75 % 15.82 C
2813 03-09-2018 18:20:00 20.4 C 75 % 15.82 C
2814 03-09-2018 18:25:00 20.4 C 75 % 15.82 C
2815 03-09-2018 18:30:00 20.4 C 75 % 15.82 C
2816 03-09-2018 18:35:00 20.3 C 76 % 15.93 C
2817 03-09-2018 18:40:00 20.3 C 76 % 15.93 C
2818 03-09-2018 18:45:00 20.2 C 76 % 15.83 C
2819 03-09-2018 18:50:00 20.2 C 76 % 15.83 C
2820 03-09-2018 18:55:00 20.2 C 77 % 16.04 C
2821 03-09-2018 19:00:00 20.2 C 77 % 16.04 C
2822 03-09-2018 19:05:00 20.1 C 77 % 15.94 C
2823 03-09-2018 19:10:00 20.1 C 77 % 15.94 C
2824 03-09-2018 19:15:00 20.1 C 77 % 15.94 C
2825 03-09-2018 19:20:00 20 C 78 % 16.05 C
Sensor: Nr:Datum:Temp:Feuchte:Taupunkt:
Aussen-T/F 2826 03-09-2018 19:25:00 19.9 C 78 % 15.95 C
2827 03-09-2018 19:30:00 19.9 C 78 % 15.95 C
2828 03-09-2018 19:35:00 19.9 C 79 % 16.15 C
2829 03-09-2018 19:40:00 19.8 C 79 % 16.05 C
2830 03-09-2018 19:45:00 19.8 C 79 % 16.05 C
2831 03-09-2018 19:50:00 19.7 C 81 % 16.35 C
2832 03-09-2018 19:55:00 19.6 C 81 % 16.25 C
2833 03-09-2018 20:00:00 19.5 C 82 % 16.35 C
2834 03-09-2018 20:05:00 19.3 C 82 % 16.15 C
2835 03-09-2018 20:10:00 19.2 C 82 % 16.05 C
2836 03-09-2018 20:15:00 19.1 C 83 % 16.15 C
2837 03-09-2018 20:20:00 19 C 83 % 16.05 C
2838 03-09-2018 20:25:00 18.9 C 83 % 15.95 C
2839 03-09-2018 20:30:00 18.8 C 83 % 15.85 C
2840 03-09-2018 20:35:00 18.8 C 84 % 16.04 C
2841 03-09-2018 20:40:00 18.7 C 84 % 15.94 C
2842 03-09-2018 20:45:00 18.7 C 84 % 15.94 C
2843 03-09-2018 20:50:00 18.7 C 84 % 15.94 C
2844 03-09-2018 20:55:00 18.6 C 85 % 16.03 C
2845 03-09-2018 21:00:00 18.6 C 85 % 16.03 C
2846 03-09-2018 21:05:00 18.6 C 85 % 16.03 C
2847 03-09-2018 21:10:00 18.5 C 85 % 15.93 C
2848 03-09-2018 21:15:00 18.4 C 85 % 15.83 C
2849 03-09-2018 21:20:00 18.4 C 85 % 15.83 C
2850 03-09-2018 21:25:00 18.4 C 85 % 15.83 C
Sensor: Nr:Datum:Temp:Feuchte:Taupunkt:
Aussen-T/F 2851 03-09-2018 21:30:00 18.3 C 86 % 15.92 C
2852 03-09-2018 21:35:00 18.3 C 86 % 15.92 C
2853 03-09-2018 21:40:00 18.3 C 86 % 15.92 C
2854 03-09-2018 21:45:00 18.3 C 86 % 15.92 C
2855 03-09-2018 21:50:00 18.2 C 86 % 15.82 C
2856 03-09-2018 21:55:00 18.2 C 86 % 15.82 C
2857 03-09-2018 22:00:00 18.2 C 86 % 15.82 C
2858 03-09-2018 22:05:00 18.2 C 86 % 15.82 C
2859 03-09-2018 22:10:00 18.2 C 86 % 15.82 C
2860 03-09-2018 22:15:00 18.1 C 86 % 15.72 C
2861 03-09-2018 22:20:00 18.1 C 86 % 15.72 C
2862 03-09-2018 22:25:00 18.1 C 86 % 15.72 C
2863 03-09-2018 22:30:00 18 C 86 % 15.62 C
2864 03-09-2018 22:35:00 17.9 C 87 % 15.71 C
2865 03-09-2018 22:40:00 17.9 C 87 % 15.71 C
2866 03-09-2018 22:45:00 17.8 C 87 % 15.61 C
2867 03-09-2018 22:50:00 17.8 C 87 % 15.61 C
2868 03-09-2018 22:55:00 17.8 C 87 % 15.61 C
2869 03-09-2018 23:00:00 17.7 C 87 % 15.51 C
2870 03-09-2018 23:05:00 17.7 C 88 % 15.69 C
2871 03-09-2018 23:10:00 17.7 C 88 % 15.69 C
2872 03-09-2018 23:15:00 17.7 C 88 % 15.69 C
2873 03-09-2018 23:20:00 17.6 C 88 % 15.59 C
2874 03-09-2018 23:25:00 17.6 C 88 % 15.59 C
2875 03-09-2018 23:30:00 17.6 C 89 % 15.77 C
Sensor: Nr:Datum:Temp:Feuchte:Taupunkt:
Aussen-T/F 2876 03-09-2018 23:35:00 17.6 C 88 % 15.59 C
2877 03-09-2018 23:40:00 17.5 C 89 % 15.67 C
2878 03-09-2018 23:45:00 17.4 C 89 % 15.57 C
2879 03-09-2018 23:50:00 17.4 C 89 % 15.57 C
2880 03-09-2018 23:55:00 17.4 C 89 % 15.57 C
2881 04-09-2018 00:00:00 17.4 C 89 % 15.57 C
2882 04-09-2018 00:05:00 17.4 C 89 % 15.57 C
2883 04-09-2018 00:10:00 17.4 C 89 % 15.57 C
2884 04-09-2018 00:15:00 17.4 C 89 % 15.57 C
2885 04-09-2018 00:20:00 17.4 C 89 % 15.57 C
2886 04-09-2018 00:25:00 17.3 C 89 % 15.47 C
2887 04-09-2018 00:30:00 17.3 C 89 % 15.47 C
2888 04-09-2018 00:35:00 17.2 C 89 % 15.37 C
2889 04-09-2018 00:40:00 17.2 C 89 % 15.37 C
2890 04-09-2018 00:45:00 17.2 C 89 % 15.37 C
2891 04-09-2018 00:50:00 17.2 C 90 % 15.55 C
2892 04-09-2018 00:55:00 17.2 C 90 % 15.55 C
2893 04-09-2018 01:00:00 17.2 C 90 % 15.55 C
2894 04-09-2018 01:05:00 17.2 C 90 % 15.55 C
2895 04-09-2018 01:10:00 17.2 C 90 % 15.55 C
2896 04-09-2018 01:15:00 17.2 C 90 % 15.55 C
2897 04-09-2018 01:20:00 17.2 C 90 % 15.55 C
2898 04-09-2018 01:25:00 17.2 C 90 % 15.55 C
2899 04-09-2018 01:30:00 17.2 C 90 % 15.55 C
2900 04-09-2018 01:35:00 17.2 C 90 % 15.55 C
Sensor: Nr:Datum:Temp:Feuchte:Taupunkt:
Aussen-T/F 2901 04-09-2018 01:40:00 17.3 C 90 % 15.64 C
2902 04-09-2018 01:45:00 17.2 C 90 % 15.55 C
2903 04-09-2018 01:50:00 17.3 C 90 % 15.64 C
2904 04-09-2018 01:55:00 17.3 C 90 % 15.64 C
2905 04-09-2018 02:00:00 17.3 C 90 % 15.64 C
2906 04-09-2018 02:05:00 17.2 C 90 % 15.55 C
2907 04-09-2018 02:10:00 17.3 C 90 % 15.64 C
2908 04-09-2018 02:15:00 17.2 C 90 % 15.55 C
2909 04-09-2018 02:20:00 17.2 C 90 % 15.55 C
2910 04-09-2018 02:25:00 17.2 C 90 % 15.55 C
2911 04-09-2018 02:30:00 17.3 C 90 % 15.64 C
2912 04-09-2018 02:35:00 17.3 C 90 % 15.64 C
2913 04-09-2018 02:40:00 17.2 C 90 % 15.55 C
2914 04-09-2018 02:45:00 17.2 C 90 % 15.55 C
2915 04-09-2018 02:50:00 17.2 C 90 % 15.55 C
2916 04-09-2018 02:55:00 17.2 C 91 % 15.72 C
2917 04-09-2018 03:00:00 17.2 C 91 % 15.72 C
2918 04-09-2018 03:05:00 17.2 C 91 % 15.72 C
2919 04-09-2018 03:10:00 17.2 C 91 % 15.72 C
2920 04-09-2018 03:15:00 17.2 C 91 % 15.72 C
2921 04-09-2018 03:20:00 17.2 C 91 % 15.72 C
2922 04-09-2018 03:25:00 17.1 C 91 % 15.62 C
2923 04-09-2018 03:30:00 17.2 C 91 % 15.72 C
2924 04-09-2018 03:35:00 17.1 C 91 % 15.62 C
2925 04-09-2018 03:40:00 17.1 C 91 % 15.62 C
Sensor: Nr:Datum:Temp:Feuchte:Taupunkt:
Aussen-T/F 2926 04-09-2018 03:45:00 17.1 C 91 % 15.62 C
2927 04-09-2018 03:50:00 17.1 C 91 % 15.62 C
2928 04-09-2018 03:55:00 17.1 C 91 % 15.62 C
2929 04-09-2018 04:00:00 17.1 C 91 % 15.62 C
2930 04-09-2018 04:05:00 17.1 C 91 % 15.62 C
2931 04-09-2018 04:10:00 17.1 C 91 % 15.62 C
2932 04-09-2018 04:15:00 17.1 C 91 % 15.62 C
2933 04-09-2018 04:20:00 17.1 C 91 % 15.62 C
2934 04-09-2018 04:25:00 17.1 C 91 % 15.62 C
2935 04-09-2018 04:30:00 17.1 C 91 % 15.62 C
2936 04-09-2018 04:35:00 17.1 C 91 % 15.62 C
2937 04-09-2018 04:40:00 17.1 C 91 % 15.62 C
2938 04-09-2018 04:45:00 17 C 91 % 15.52 C
2939 04-09-2018 04:50:00 16.9 C 91 % 15.42 C
2940 04-09-2018 04:55:00 16.8 C 91 % 15.32 C
2941 04-09-2018 05:00:00 16.7 C 90 % 15.05 C
2942 04-09-2018 05:05:00 16.4 C 90 % 14.76 C
2943 04-09-2018 05:10:00 16.3 C 91 % 14.83 C
2944 04-09-2018 05:15:00 16.3 C 91 % 14.83 C
2945 04-09-2018 05:20:00 16.2 C 91 % 14.73 C
2946 04-09-2018 05:25:00 16.1 C 91 % 14.63 C
2947 04-09-2018 05:30:00 16.1 C 92 % 14.8 C
2948 04-09-2018 05:35:00 16.1 C 92 % 14.8 C
2949 04-09-2018 05:40:00 16 C 92 % 14.7 C
2950 04-09-2018 05:45:00 15.9 C 92 % 14.6 C
Sensor: Nr:Datum:Temp:Feuchte:Taupunkt:
Aussen-T/F 2951 04-09-2018 05:50:00 15.8 C 92 % 14.5 C
2952 04-09-2018 05:55:00 15.7 C 92 % 14.4 C
2953 04-09-2018 06:00:00 15.6 C 92 % 14.31 C
2954 04-09-2018 06:05:00 15.6 C 92 % 14.31 C
2955 04-09-2018 06:10:00 15.5 C 92 % 14.21 C
2956 04-09-2018 06:15:00 15.4 C 92 % 14.11 C
2957 04-09-2018 06:20:00 15.4 C 92 % 14.11 C
2958 04-09-2018 06:25:00 15.3 C 92 % 14.01 C
2959 04-09-2018 06:30:00 15.2 C 92 % 13.91 C
2960 04-09-2018 06:35:00 15.3 C 93 % 14.18 C
2961 04-09-2018 06:40:00 15.3 C 93 % 14.18 C
2962 04-09-2018 06:45:00 15.4 C 94 % 14.44 C
2963 04-09-2018 06:50:00 15.4 C 94 % 14.44 C
2964 04-09-2018 06:55:00 15.5 C 94 % 14.54 C
2965 04-09-2018 07:00:00 15.7 C 94 % 14.74 C
2966 04-09-2018 07:05:00 15.7 C 94 % 14.74 C
2967 04-09-2018 07:10:00 15.8 C 94 % 14.84 C
2968 04-09-2018 07:15:00 15.8 C 94 % 14.84 C
2969 04-09-2018 07:20:00 15.8 C 94 % 14.84 C
2970 04-09-2018 07:25:00 15.8 C 94 % 14.84 C
2971 04-09-2018 07:30:00 15.8 C 94 % 14.84 C
2972 04-09-2018 07:35:00 15.9 C 94 % 14.94 C
2973 04-09-2018 07:40:00 15.9 C 94 % 14.94 C
2974 04-09-2018 07:45:00 15.9 C 94 % 14.94 C
2975 04-09-2018 07:50:00 16 C 94 % 15.03 C
Sensor: Nr:Datum:Temp:Feuchte:Taupunkt:
Aussen-T/F 2976 04-09-2018 07:55:00 16.1 C 94 % 15.13 C
2977 04-09-2018 08:00:00 16.1 C 94 % 15.13 C
2978 04-09-2018 08:05:00 16.1 C 94 % 15.13 C
2979 04-09-2018 08:10:00 16.1 C 94 % 15.13 C
2980 04-09-2018 08:15:00 16.2 C 94 % 15.23 C
2981 04-09-2018 08:20:00 16.2 C 94 % 15.23 C
2982 04-09-2018 08:25:00 16.2 C 94 % 15.23 C
2983 04-09-2018 08:30:00 16.3 C 94 % 15.33 C
2984 04-09-2018 08:35:00 16.3 C 94 % 15.33 C
2985 04-09-2018 08:40:00 16.3 C 94 % 15.33 C
2986 04-09-2018 08:45:00 16.4 C 94 % 15.43 C
2987 04-09-2018 08:50:00 16.5 C 94 % 15.53 C
2988 04-09-2018 08:55:00 16.6 C 94 % 15.63 C
2989 04-09-2018 09:00:00 16.7 C 94 % 15.73 C
2990 04-09-2018 09:05:00 16.8 C 93 % 15.66 C
2991 04-09-2018 09:10:00 16.9 C 93 % 15.76 C
2992 04-09-2018 09:15:00 17.1 C 93 % 15.96 C
2993 04-09-2018 09:20:00 17.2 C 93 % 16.06 C
2994 04-09-2018 09:25:00 17.3 C 93 % 16.16 C
2995 04-09-2018 09:30:00 17.4 C 92 % 16.09 C
2996 04-09-2018 09:35:00 17.5 C 92 % 16.19 C
2997 04-09-2018 09:40:00 17.6 C 91 % 16.11 C
2998 04-09-2018 09:45:00 17.7 C 91 % 16.21 C
2999 04-09-2018 09:50:00 17.7 C 91 % 16.21 C
3000 04-09-2018 09:55:00 17.8 C 91 % 16.31 C
Sensor: Nr:Datum:Temp:Feuchte:Taupunkt:
Aussen-T/F 3001 04-09-2018 10:00:00 17.9 C 91 % 16.41 C
3002 04-09-2018 10:05:00 18 C 91 % 16.51 C
3003 04-09-2018 10:10:00 18.1 C 90 % 16.43 C
3004 04-09-2018 10:15:00 18.1 C 90 % 16.43 C
3005 04-09-2018 10:20:00 18.2 C 90 % 16.53 C
3006 04-09-2018 10:25:00 18.3 C 90 % 16.63 C
3007 04-09-2018 10:30:00 18.3 C 90 % 16.63 C
3008 04-09-2018 10:35:00 18.4 C 89 % 16.55 C
3009 04-09-2018 10:40:00 18.5 C 89 % 16.65 C
3010 04-09-2018 10:45:00 18.6 C 89 % 16.75 C
3011 04-09-2018 10:50:00 18.6 C 89 % 16.75 C
3012 04-09-2018 10:55:00 18.7 C 89 % 16.85 C
3013 04-09-2018 11:00:00 18.7 C 89 % 16.85 C
3014 04-09-2018 11:05:00 18.8 C 89 % 16.95 C
3015 04-09-2018 11:10:00 18.9 C 90 % 17.22 C
3016 04-09-2018 11:15:00 19.1 C 90 % 17.42 C
3017 04-09-2018 11:20:00 19.1 C 89 % 17.24 C
3018 04-09-2018 11:25:00 19.2 C 88 % 17.16 C
3019 04-09-2018 11:30:00 19.4 C 88 % 17.36 C
3020 04-09-2018 11:35:00 19.6 C 88 % 17.56 C
3021 04-09-2018 11:40:00 19.7 C 88 % 17.66 C
3022 04-09-2018 11:45:00 19.9 C 87 % 17.67 C
3023 04-09-2018 11:50:00 20.1 C 87 % 17.87 C
3024 04-09-2018 11:55:00 20.2 C 85 % 17.6 C
3025 04-09-2018 12:00:00 20.3 C 85 % 17.7 C
Sensor: Nr:Datum:Temp:Feuchte:Taupunkt:
Aussen-T/F 3026 04-09-2018 12:05:00 20.4 C 85 % 17.79 C
3027 04-09-2018 12:10:00 20.6 C 83 % 17.61 C
3028 04-09-2018 12:15:00 20.7 C 83 % 17.71 C
3029 04-09-2018 12:20:00 20.8 C 80 % 17.22 C
3030 04-09-2018 12:25:00 21.1 C 79 % 17.32 C
3031 04-09-2018 12:30:00 21.2 C 77 % 17.01 C
3032 04-09-2018 12:35:00 21.4 C 77 % 17.2 C
3033 04-09-2018 12:40:00 21.6 C 75 % 16.98 C
3034 04-09-2018 12:45:00 21.9 C 73 % 16.84 C
3035 04-09-2018 12:50:00 22.3 C 71 % 16.79 C
3036 04-09-2018 12:55:00 22.6 C 70 % 16.85 C
3037 04-09-2018 13:00:00 22.7 C 69 % 16.72 C
3038 04-09-2018 13:05:00 22.8 C 69 % 16.82 C
3039 04-09-2018 13:10:00 22.9 C 68 % 16.68 C
3040 04-09-2018 13:15:00 23.1 C 67 % 16.64 C
3041 04-09-2018 13:20:00 23.2 C 66 % 16.5 C
3042 04-09-2018 13:25:00 23.3 C 66 % 16.59 C
3043 04-09-2018 13:30:00 23.4 C 65 % 16.45 C
3044 04-09-2018 13:35:00 23.6 C 65 % 16.64 C
3045 04-09-2018 13:40:00 23.6 C 64 % 16.39 C
3046 04-09-2018 13:45:00 23.6 C 65 % 16.64 C
3047 04-09-2018 13:50:00 23.7 C 65 % 16.73 C
3048 04-09-2018 13:55:00 23.7 C 65 % 16.73 C
3049 04-09-2018 14:00:00 23.8 C 64 % 16.58 C
3050 04-09-2018 14:05:00 23.9 C 63 % 16.43 C
Sensor: Nr:Datum:Temp:Feuchte:Taupunkt:
Aussen-T/F 3051 04-09-2018 14:10:00 24.1 C 63 % 16.62 C
3052 04-09-2018 14:15:00 24.3 C 62 % 16.55 C
3053 04-09-2018 14:20:00 24.3 C 62 % 16.55 C
3054 04-09-2018 14:25:00 24.3 C 61 % 16.3 C
3055 04-09-2018 14:30:00 24.2 C 61 % 16.2 C
3056 04-09-2018 14:35:00 24.3 C 61 % 16.3 C
3057 04-09-2018 14:40:00 24.6 C 62 % 16.84 C
3058 04-09-2018 14:45:00 24.9 C 60 % 16.6 C
3059 04-09-2018 14:50:00 25.1 C 59 % 16.52 C
3060 04-09-2018 14:55:00 25.1 C 58 % 16.26 C
3061 04-09-2018 15:00:00 25.2 C 58 % 16.35 C
3062 04-09-2018 15:05:00 25.2 C 58 % 16.35 C
3063 04-09-2018 15:10:00 25.2 C 58 % 16.35 C
3064 04-09-2018 15:15:00 25.2 C 58 % 16.35 C
3065 04-09-2018 15:20:00 25.4 C 56 % 15.99 C
3066 04-09-2018 15:25:00 25.7 C 56 % 16.26 C
3067 04-09-2018 15:30:00 25.8 C 55 % 16.07 C
3068 04-09-2018 15:35:00 25.8 C 55 % 16.07 C
3069 04-09-2018 15:40:00 25.6 C 55 % 15.89 C
3070 04-09-2018 15:45:00 25.5 C 56 % 16.08 C
3071 04-09-2018 15:50:00 25.4 C 56 % 15.99 C
3072 04-09-2018 15:55:00 25.3 C 55 % 15.61 C
3073 04-09-2018 16:00:00 25.3 C 56 % 15.89 C
3074 04-09-2018 16:05:00 25.3 C 56 % 15.89 C
3075 04-09-2018 16:10:00 25.4 C 55 % 15.7 C
Sensor: Nr:Datum:Temp:Feuchte:Taupunkt:
Aussen-T/F 3076 04-09-2018 16:15:00 25.5 C 54 % 15.51 C
3077 04-09-2018 16:20:00 25.6 C 56 % 16.17 C
3078 04-09-2018 16:25:00 25.7 C 54 % 15.7 C
3079 04-09-2018 16:30:00 26 C 53 % 15.68 C
3080 04-09-2018 16:35:00 26.3 C 52 % 15.66 C
3081 04-09-2018 16:40:00 26.2 C 52 % 15.57 C
3082 04-09-2018 16:45:00 26.2 C 54 % 16.16 C
3083 04-09-2018 16:50:00 26.1 C 53 % 15.77 C
3084 04-09-2018 16:55:00 25.9 C 54 % 15.88 C
3085 04-09-2018 17:00:00 25.8 C 59 % 17.18 C
3086 04-09-2018 17:05:00 25.7 C 59 % 17.09 C
3087 04-09-2018 17:10:00 25.6 C 60 % 17.26 C
3088 04-09-2018 17:15:00 25.4 C 57 % 16.26 C
3089 04-09-2018 17:20:00 25.3 C 61 % 17.24 C
3090 04-09-2018 17:25:00 25.2 C 62 % 17.4 C
3091 04-09-2018 17:30:00 25.1 C 62 % 17.31 C
3092 04-09-2018 17:35:00 25 C 63 % 17.47 C
3093 04-09-2018 17:40:00 24.8 C 63 % 17.28 C
3094 04-09-2018 17:45:00 24.8 C 64 % 17.53 C
3095 04-09-2018 17:50:00 24.7 C 64 % 17.43 C
3096 04-09-2018 17:55:00 24.6 C 65 % 17.58 C
3097 04-09-2018 18:00:00 24.6 C 65 % 17.58 C
3098 04-09-2018 18:05:00 24.6 C 65 % 17.58 C
3099 04-09-2018 18:10:00 24.6 C 65 % 17.58 C
3100 04-09-2018 18:15:00 24.6 C 66 % 17.83 C
Sensor: Nr:Datum:Temp:Feuchte:Taupunkt:
Aussen-T/F 3101 04-09-2018 18:20:00 24.6 C 65 % 17.58 C
3102 04-09-2018 18:25:00 24.5 C 65 % 17.49 C
3103 04-09-2018 18:30:00 24.4 C 65 % 17.39 C
3104 04-09-2018 18:35:00 24.3 C 65 % 17.3 C
3105 04-09-2018 18:40:00 24.1 C 66 % 17.35 C
3106 04-09-2018 18:45:00 23.9 C 65 % 16.92 C
3107 04-09-2018 18:50:00 23.8 C 67 % 17.3 C
3108 04-09-2018 18:55:00 23.6 C 67 % 17.11 C
3109 04-09-2018 19:00:00 23.6 C 67 % 17.11 C
3110 04-09-2018 19:05:00 23.4 C 67 % 16.92 C
3111 04-09-2018 19:10:00 23.4 C 67 % 16.92 C
3112 04-09-2018 19:15:00 23.4 C 67 % 16.92 C
3113 04-09-2018 19:20:00 23.4 C 67 % 16.92 C
3114 04-09-2018 19:25:00 23.5 C 67 % 17.02 C
3115 04-09-2018 19:30:00 23.4 C 66 % 16.69 C
3116 04-09-2018 19:35:00 23.3 C 66 % 16.59 C
3117 04-09-2018 19:40:00 23.2 C 66 % 16.5 C
3118 04-09-2018 19:45:00 23.1 C 67 % 16.64 C
3119 04-09-2018 19:50:00 22.9 C 67 % 16.45 C
3120 04-09-2018 19:55:00 22.7 C 68 % 16.49 C
3121 04-09-2018 20:00:00 22.8 C 67 % 16.35 C
3122 04-09-2018 20:05:00 22.8 C 68 % 16.59 C
3123 04-09-2018 20:10:00 22.7 C 68 % 16.49 C
3124 04-09-2018 20:15:00 22.5 C 69 % 16.53 C
3125 04-09-2018 20:20:00 22.3 C 70 % 16.56 C
Sensor: Nr:Datum:Temp:Feuchte:Taupunkt:
Aussen-T/F 3126 04-09-2018 20:25:00 22.1 C 71 % 16.6 C
3127 04-09-2018 20:30:00 21.9 C 71 % 16.4 C
3128 04-09-2018 20:35:00 21.8 C 72 % 16.53 C
3129 04-09-2018 20:40:00 21.7 C 72 % 16.43 C
3130 04-09-2018 20:45:00 21.6 C 73 % 16.55 C
3131 04-09-2018 20:50:00 21.4 C 73 % 16.36 C
3132 04-09-2018 20:55:00 21.3 C 74 % 16.48 C
3133 04-09-2018 21:00:00 21.2 C 74 % 16.38 C
3134 04-09-2018 21:05:00 21.2 C 75 % 16.59 C
3135 04-09-2018 21:10:00 21.1 C 75 % 16.5 C
3136 04-09-2018 21:15:00 21 C 75 % 16.4 C
3137 04-09-2018 21:20:00 20.9 C 75 % 16.3 C
3138 04-09-2018 21:25:00 20.9 C 75 % 16.3 C
3139 04-09-2018 21:30:00 20.8 C 75 % 16.21 C
3140 04-09-2018 21:35:00 20.7 C 76 % 16.32 C
3141 04-09-2018 21:40:00 20.7 C 76 % 16.32 C
3142 04-09-2018 21:45:00 20.6 C 76 % 16.22 C
3143 04-09-2018 21:50:00 20.5 C 76 % 16.12 C
3144 04-09-2018 21:55:00 20.4 C 76 % 16.03 C
3145 04-09-2018 22:00:00 20.4 C 76 % 16.03 C
3146 04-09-2018 22:05:00 20.4 C 75 % 15.82 C
3147 04-09-2018 22:10:00 20.3 C 76 % 15.93 C
3148 04-09-2018 22:15:00 20.3 C 76 % 15.93 C
3149 04-09-2018 22:20:00 20.2 C 76 % 15.83 C
3150 04-09-2018 22:25:00 20.2 C 76 % 15.83 C
Sensor: Nr:Datum:Temp:Feuchte:Taupunkt:
Aussen-T/F 3151 04-09-2018 22:30:00 20.1 C 76 % 15.74 C
3152 04-09-2018 22:35:00 20.1 C 77 % 15.94 C
3153 04-09-2018 22:40:00 20.1 C 77 % 15.94 C
3154 04-09-2018 22:45:00 20 C 77 % 15.85 C
3155 04-09-2018 22:50:00 20 C 77 % 15.85 C
3156 04-09-2018 22:55:00 20 C 77 % 15.85 C
3157 04-09-2018 23:00:00 19.9 C 78 % 15.95 C
3158 04-09-2018 23:05:00 19.9 C 78 % 15.95 C
3159 04-09-2018 23:10:00 19.9 C 78 % 15.95 C
3160 04-09-2018 23:15:00 19.8 C 78 % 15.85 C
3161 04-09-2018 23:20:00 19.8 C 79 % 16.05 C
3162 04-09-2018 23:25:00 19.8 C 79 % 16.05 C
3163 04-09-2018 23:30:00 19.7 C 79 % 15.96 C
3164 04-09-2018 23:35:00 19.7 C 79 % 15.96 C
3165 04-09-2018 23:40:00 19.7 C 79 % 15.96 C
3166 04-09-2018 23:45:00 19.7 C 79 % 15.96 C
3167 04-09-2018 23:50:00 19.7 C 79 % 15.96 C
3168 04-09-2018 23:55:00 19.7 C 79 % 15.96 C
3169 05-09-2018 00:00:00 19.6 C 79 % 15.86 C
3170 05-09-2018 00:05:00 19.6 C 79 % 15.86 C
3171 05-09-2018 00:10:00 19.6 C 80 % 16.06 C
3172 05-09-2018 00:15:00 19.6 C 80 % 16.06 C
3173 05-09-2018 00:20:00 19.5 C 80 % 15.96 C
3174 05-09-2018 00:25:00 19.5 C 80 % 15.96 C
3175 05-09-2018 00:30:00 19.4 C 80 % 15.86 C
Sensor: Nr:Datum:Temp:Feuchte:Taupunkt:
Aussen-T/F 3176 05-09-2018 00:35:00 19.4 C 80 % 15.86 C
3177 05-09-2018 00:40:00 19.4 C 80 % 15.86 C
3178 05-09-2018 00:45:00 19.4 C 80 % 15.86 C
3179 05-09-2018 00:50:00 19.3 C 80 % 15.76 C
3180 05-09-2018 00:55:00 19.3 C 80 % 15.76 C
3181 05-09-2018 01:00:00 19.2 C 80 % 15.67 C
3182 05-09-2018 01:05:00 19.2 C 81 % 15.86 C
3183 05-09-2018 01:10:00 19.2 C 81 % 15.86 C
3184 05-09-2018 01:15:00 19.2 C 81 % 15.86 C
3185 05-09-2018 01:20:00 19.2 C 81 % 15.86 C
3186 05-09-2018 01:25:00 19.1 C 81 % 15.76 C
3187 05-09-2018 01:30:00 19.1 C 81 % 15.76 C
3188 05-09-2018 01:35:00 19.1 C 81 % 15.76 C
3189 05-09-2018 01:40:00 19.1 C 81 % 15.76 C
3190 05-09-2018 01:45:00 19.1 C 81 % 15.76 C
3191 05-09-2018 01:50:00 19 C 81 % 15.67 C
3192 05-09-2018 01:55:00 18.9 C 81 % 15.57 C
3193 05-09-2018 02:00:00 18.9 C 81 % 15.57 C
3194 05-09-2018 02:05:00 18.8 C 82 % 15.66 C
3195 05-09-2018 02:10:00 18.7 C 82 % 15.57 C
3196 05-09-2018 02:15:00 18.5 C 82 % 15.37 C
3197 05-09-2018 02:20:00 18.4 C 83 % 15.46 C
3198 05-09-2018 02:25:00 18.3 C 83 % 15.36 C
3199 05-09-2018 02:30:00 18.3 C 83 % 15.36 C
3200 05-09-2018 02:35:00 18.2 C 83 % 15.27 C
Sensor: Nr:Datum:Temp:Feuchte:Taupunkt:
Aussen-T/F 3201 05-09-2018 02:40:00 18.1 C 83 % 15.17 C
3202 05-09-2018 02:45:00 17.9 C 84 % 15.16 C
3203 05-09-2018 02:50:00 17.8 C 84 % 15.06 C
3204 05-09-2018 02:55:00 17.6 C 84 % 14.87 C
3205 05-09-2018 03:00:00 17.4 C 85 % 14.85 C
3206 05-09-2018 03:05:00 17.3 C 85 % 14.76 C
3207 05-09-2018 03:10:00 17.1 C 86 % 14.74 C
3208 05-09-2018 03:15:00 17.1 C 87 % 14.92 C
3209 05-09-2018 03:20:00 16.9 C 86 % 14.54 C
3210 05-09-2018 03:25:00 16.8 C 87 % 14.62 C
3211 05-09-2018 03:30:00 16.7 C 87 % 14.53 C
3212 05-09-2018 03:35:00 16.7 C 87 % 14.53 C
3213 05-09-2018 03:40:00 16.6 C 88 % 14.6 C
3214 05-09-2018 03:45:00 16.5 C 88 % 14.51 C
3215 05-09-2018 03:50:00 16.4 C 88 % 14.41 C
3216 05-09-2018 03:55:00 16.3 C 88 % 14.31 C
3217 05-09-2018 04:00:00 16.3 C 88 % 14.31 C
3218 05-09-2018 04:05:00 16.2 C 89 % 14.39 C
3219 05-09-2018 04:10:00 16.1 C 89 % 14.29 C
3220 05-09-2018 04:15:00 16 C 89 % 14.19 C
3221 05-09-2018 04:20:00 15.9 C 89 % 14.09 C
3222 05-09-2018 04:25:00 15.8 C 90 % 14.16 C
3223 05-09-2018 04:30:00 15.9 C 91 % 14.43 C
3224 05-09-2018 04:35:00 15.8 C 90 % 14.16 C
3225 05-09-2018 04:40:00 15.8 C 90 % 14.16 C
Sensor: Nr:Datum:Temp:Feuchte:Taupunkt:
Aussen-T/F 3226 05-09-2018 04:45:00 15.8 C 91 % 14.33 C
3227 05-09-2018 04:50:00 15.8 C 91 % 14.33 C
3228 05-09-2018 04:55:00 15.8 C 91 % 14.33 C
3229 05-09-2018 05:00:00 15.9 C 92 % 14.6 C
3230 05-09-2018 05:05:00 16 C 92 % 14.7 C
3231 05-09-2018 05:10:00 16.1 C 92 % 14.8 C
3232 05-09-2018 05:15:00 16.1 C 92 % 14.8 C
3233 05-09-2018 05:20:00 16.1 C 92 % 14.8 C
3234 05-09-2018 05:25:00 16.2 C 92 % 14.9 C
3235 05-09-2018 05:30:00 16.2 C 92 % 14.9 C
3236 05-09-2018 05:35:00 16.2 C 92 % 14.9 C
3237 05-09-2018 05:40:00 16.2 C 92 % 14.9 C
3238 05-09-2018 05:45:00 16.2 C 92 % 14.9 C
3239 05-09-2018 05:50:00 16.2 C 91 % 14.73 C
3240 05-09-2018 05:55:00 16.1 C 91 % 14.63 C
3241 05-09-2018 06:00:00 16.1 C 91 % 14.63 C
3242 05-09-2018 06:05:00 16.1 C 91 % 14.63 C
3243 05-09-2018 06:10:00 16 C 91 % 14.53 C
3244 05-09-2018 06:15:00 15.9 C 91 % 14.43 C
3245 05-09-2018 06:20:00 15.9 C 91 % 14.43 C
3246 05-09-2018 06:25:00 15.8 C 91 % 14.33 C
3247 05-09-2018 06:30:00 15.8 C 91 % 14.33 C
3248 05-09-2018 06:35:00 15.7 C 91 % 14.24 C
3249 05-09-2018 06:40:00 15.6 C 91 % 14.14 C
3250 05-09-2018 06:45:00 15.5 C 92 % 14.21 C
Sensor: Nr:Datum:Temp:Feuchte:Taupunkt:
Aussen-T/F 3251 05-09-2018 06:50:00 15.6 C 92 % 14.31 C
3252 05-09-2018 06:55:00 15.5 C 92 % 14.21 C
3253 05-09-2018 07:00:00 15.4 C 92 % 14.11 C
3254 05-09-2018 07:05:00 15.4 C 92 % 14.11 C
3255 05-09-2018 07:10:00 15.4 C 92 % 14.11 C
3256 05-09-2018 07:15:00 15.3 C 92 % 14.01 C
3257 05-09-2018 07:20:00 15.3 C 92 % 14.01 C
3258 05-09-2018 07:25:00 15.3 C 93 % 14.18 C
3259 05-09-2018 07:30:00 15.3 C 93 % 14.18 C
3260 05-09-2018 07:35:00 15.3 C 93 % 14.18 C
3261 05-09-2018 07:40:00 15.3 C 93 % 14.18 C
3262 05-09-2018 07:45:00 15.3 C 93 % 14.18 C
3263 05-09-2018 07:50:00 15.3 C 93 % 14.18 C
3264 05-09-2018 07:55:00 15.4 C 93 % 14.27 C
3265 05-09-2018 08:00:00 15.5 C 94 % 14.54 C
3266 05-09-2018 08:05:00 15.6 C 94 % 14.64 C
3267 05-09-2018 08:10:00 15.6 C 94 % 14.64 C
3268 05-09-2018 08:15:00 15.7 C 93 % 14.57 C
3269 05-09-2018 08:20:00 15.7 C 93 % 14.57 C
3270 05-09-2018 08:25:00 15.8 C 93 % 14.67 C
3271 05-09-2018 08:30:00 15.8 C 93 % 14.67 C
3272 05-09-2018 08:35:00 15.9 C 94 % 14.94 C
3273 05-09-2018 08:40:00 16 C 93 % 14.87 C
3274 05-09-2018 08:45:00 16 C 93 % 14.87 C
3275 05-09-2018 08:50:00 16.1 C 93 % 14.97 C
Sensor: Nr:Datum:Temp:Feuchte:Taupunkt:
Aussen-T/F 3276 05-09-2018 08:55:00 16.1 C 93 % 14.97 C
3277 05-09-2018 09:00:00 16.2 C 93 % 15.07 C
3278 05-09-2018 09:05:00 16.2 C 93 % 15.07 C
3279 05-09-2018 09:10:00 16.3 C 93 % 15.17 C
3280 05-09-2018 09:15:00 16.4 C 93 % 15.27 C
3281 05-09-2018 09:20:00 16.5 C 93 % 15.36 C
3282 05-09-2018 09:25:00 16.6 C 93 % 15.46 C
3283 05-09-2018 09:30:00 16.7 C 93 % 15.56 C
3284 05-09-2018 09:35:00 16.8 C 93 % 15.66 C
3285 05-09-2018 09:40:00 16.9 C 93 % 15.76 C
3286 05-09-2018 09:45:00 17 C 93 % 15.86 C
3287 05-09-2018 09:50:00 17.1 C 93 % 15.96 C
3288 05-09-2018 09:55:00 17.2 C 92 % 15.89 C
3289 05-09-2018 10:00:00 17.3 C 92 % 15.99 C
3290 05-09-2018 10:05:00 17.4 C 92 % 16.09 C
3291 05-09-2018 10:10:00 17.6 C 91 % 16.11 C
3292 05-09-2018 10:15:00 17.8 C 91 % 16.31 C
3293 05-09-2018 10:20:00 18 C 91 % 16.51 C
3294 05-09-2018 10:25:00 18.2 C 90 % 16.53 C
3295 05-09-2018 10:30:00 18.3 C 90 % 16.63 C
3296 05-09-2018 10:35:00 18.5 C 89 % 16.65 C
3297 05-09-2018 10:40:00 18.7 C 89 % 16.85 C
3298 05-09-2018 10:45:00 18.8 C 88 % 16.77 C
3299 05-09-2018 10:50:00 19 C 87 % 16.79 C
3300 05-09-2018 10:55:00 19.2 C 87 % 16.98 C
Sensor: Nr:Datum:Temp:Feuchte:Taupunkt:
Aussen-T/F 3301 05-09-2018 11:00:00 19.4 C 86 % 17 C
3302 05-09-2018 11:05:00 19.6 C 86 % 17.19 C
3303 05-09-2018 11:10:00 19.8 C 84 % 17.02 C
3304 05-09-2018 11:15:00 20 C 83 % 17.02 C
3305 05-09-2018 11:20:00 20.2 C 82 % 17.03 C
3306 05-09-2018 11:25:00 20.6 C 81 % 17.22 C
3307 05-09-2018 11:30:00 20.8 C 79 % 17.02 C
3308 05-09-2018 11:35:00 21.1 C 77 % 16.91 C
3309 05-09-2018 11:40:00 21.4 C 76 % 16.99 C
3310 05-09-2018 11:45:00 21.7 C 75 % 17.07 C
3311 05-09-2018 11:50:00 22 C 74 % 17.15 C
3312 05-09-2018 11:55:00 22.3 C 73 % 17.23 C
3313 05-09-2018 12:00:00 22.5 C 72 % 17.2 C
3314 05-09-2018 12:05:00 22.7 C 71 % 17.17 C
3315 05-09-2018 12:10:00 22.9 C 70 % 17.14 C
3316 05-09-2018 12:15:00 23.1 C 69 % 17.1 C
3317 05-09-2018 12:20:00 23.2 C 68 % 16.97 C
3318 05-09-2018 12:25:00 23.4 C 66 % 16.69 C
3319 05-09-2018 12:30:00 23.6 C 66 % 16.88 C
3320 05-09-2018 12:35:00 23.7 C 66 % 16.97 C
3321 05-09-2018 12:40:00 23.8 C 64 % 16.58 C
3322 05-09-2018 12:45:00 24.1 C 63 % 16.62 C
3323 05-09-2018 12:50:00 24.3 C 63 % 16.81 C
3324 05-09-2018 12:55:00 24.4 C 62 % 16.65 C
3325 05-09-2018 13:00:00 24.6 C 61 % 16.58 C
Sensor: Nr:Datum:Temp:Feuchte:Taupunkt:
Aussen-T/F 3326 05-09-2018 13:05:00 24.7 C 61 % 16.67 C
3327 05-09-2018 13:10:00 24.8 C 60 % 16.51 C
3328 05-09-2018 13:15:00 25.1 C 58 % 16.26 C
3329 05-09-2018 13:20:00 25.2 C 57 % 16.08 C
3330 05-09-2018 13:25:00 25.4 C 56 % 15.99 C
3331 05-09-2018 13:30:00 25.4 C 56 % 15.99 C
3332 05-09-2018 13:35:00 25.6 C 56 % 16.17 C
3333 05-09-2018 13:40:00 25.7 C 56 % 16.26 C
3334 05-09-2018 13:45:00 25.9 C 55 % 16.17 C
3335 05-09-2018 13:50:00 26.1 C 54 % 16.07 C
3336 05-09-2018 13:55:00 26.2 C 53 % 15.87 C
3337 05-09-2018 14:00:00 26.3 C 53 % 15.96 C
3338 05-09-2018 14:05:00 26.3 C 51 % 15.36 C
3339 05-09-2018 14:10:00 26.4 C 51 % 15.45 C
3340 05-09-2018 14:15:00 26.4 C 51 % 15.45 C
3341 05-09-2018 14:20:00 26.6 C 51 % 15.63 C
3342 05-09-2018 14:25:00 26.7 C 50 % 15.42 C
3343 05-09-2018 14:30:00 26.8 C 49 % 15.19 C
3344 05-09-2018 14:35:00 26.8 C 50 % 15.51 C
3345 05-09-2018 14:40:00 27 C 48 % 15.05 C
3346 05-09-2018 14:45:00 27.2 C 47 % 14.91 C
3347 05-09-2018 14:50:00 27.3 C 47 % 15 C
3348 05-09-2018 14:55:00 27.3 C 47 % 15 C
3349 05-09-2018 15:00:00 27.3 C 48 % 15.33 C
3350 05-09-2018 15:05:00 27.4 C 48 % 15.42 C
Sensor: Nr:Datum:Temp:Feuchte:Taupunkt:
Aussen-T/F 3351 05-09-2018 15:10:00 27.4 C 47 % 15.09 C
3352 05-09-2018 15:15:00 27.4 C 47 % 15.09 C
3353 05-09-2018 15:20:00 27.5 C 48 % 15.51 C
3354 05-09-2018 15:25:00 27.6 C 47 % 15.27 C
3355 05-09-2018 15:30:00 27.6 C 46 % 14.94 C
3356 05-09-2018 15:35:00 27.5 C 47 % 15.18 C
3357 05-09-2018 15:40:00 27.5 C 49 % 15.83 C
3358 05-09-2018 15:45:00 27.4 C 48 % 15.42 C
3359 05-09-2018 15:50:00 27.4 C 48 % 15.42 C
3360 05-09-2018 15:55:00 27.4 C 50 % 16.06 C
3361 05-09-2018 16:00:00 27.3 C 48 % 15.33 C
3362 05-09-2018 16:05:00 27.3 C 52 % 16.58 C
3363 05-09-2018 16:10:00 27.4 C 50 % 16.06 C
3364 05-09-2018 16:15:00 27.5 C 46 % 14.85 C
3365 05-09-2018 16:20:00 27.8 C 46 % 15.12 C
3366 05-09-2018 16:25:00 28 C 44 % 14.61 C
3367 05-09-2018 16:30:00 28.2 C 44 % 14.79 C
3368 05-09-2018 16:35:00 28.4 C 43 % 14.62 C
3369 05-09-2018 16:40:00 28.6 C 43 % 14.8 C
3370 05-09-2018 16:45:00 28.8 C 45 % 15.68 C
3371 05-09-2018 16:50:00 29.1 C 43 % 15.24 C
3372 05-09-2018 16:55:00 29.2 C 43 % 15.33 C
3373 05-09-2018 17:00:00 29.2 C 42 % 14.97 C
3374 05-09-2018 17:05:00 29.3 C 41 % 14.68 C
3375 05-09-2018 17:10:00 29.2 C 41 % 14.59 C
Sensor: Nr:Datum:Temp:Feuchte:Taupunkt:
Aussen-T/F 3376 05-09-2018 17:15:00 28.9 C 41 % 14.33 C
3377 05-09-2018 17:20:00 28.7 C 43 % 14.88 C
3378 05-09-2018 17:25:00 28.5 C 43 % 14.71 C
3379 05-09-2018 17:30:00 28.4 C 44 % 14.97 C
3380 05-09-2018 17:35:00 28.3 C 50 % 16.88 C
3381 05-09-2018 17:40:00 28.1 C 50 % 16.7 C
3382 05-09-2018 17:45:00 27.9 C 50 % 16.51 C
3383 05-09-2018 17:50:00 27.6 C 50 % 16.24 C
3384 05-09-2018 17:55:00 27.3 C 52 % 16.58 C
3385 05-09-2018 18:00:00 27.1 C 52 % 16.4 C
3386 05-09-2018 18:05:00 26.8 C 52 % 16.12 C
3387 05-09-2018 18:10:00 26.6 C 53 % 16.23 C
3388 05-09-2018 18:15:00 26.4 C 53 % 16.05 C
3389 05-09-2018 18:20:00 26.3 C 54 % 16.25 C
3390 05-09-2018 18:25:00 26.3 C 55 % 16.54 C
3391 05-09-2018 18:30:00 26.2 C 55 % 16.45 C
3392 05-09-2018 18:35:00 26.2 C 56 % 16.73 C
3393 05-09-2018 18:40:00 26.2 C 55 % 16.45 C
3394 05-09-2018 18:45:00 26.1 C 56 % 16.64 C
3395 05-09-2018 18:50:00 26 C 56 % 16.54 C
3396 05-09-2018 18:55:00 25.8 C 56 % 16.36 C
3397 05-09-2018 19:00:00 25.7 C 56 % 16.26 C
3398 05-09-2018 19:05:00 25.4 C 57 % 16.26 C
3399 05-09-2018 19:10:00 25.2 C 58 % 16.35 C
3400 05-09-2018 19:15:00 25 C 57 % 15.89 C
Sensor: Nr:Datum:Temp:Feuchte:Taupunkt:
Aussen-T/F 3401 05-09-2018 19:20:00 24.8 C 57 % 15.7 C
3402 05-09-2018 19:25:00 24.6 C 57 % 15.52 C
3403 05-09-2018 19:30:00 24.3 C 58 % 15.51 C
3404 05-09-2018 19:35:00 24.1 C 58 % 15.32 C
3405 05-09-2018 19:40:00 23.9 C 60 % 15.66 C
3406 05-09-2018 19:45:00 23.6 C 60 % 15.38 C
3407 05-09-2018 19:50:00 23.4 C 62 % 15.71 C
3408 05-09-2018 19:55:00 23.2 C 63 % 15.77 C
3409 05-09-2018 20:00:00 22.9 C 63 % 15.48 C
3410 05-09-2018 20:05:00 22.8 C 64 % 15.64 C
3411 05-09-2018 20:10:00 22.7 C 64 % 15.54 C
3412 05-09-2018 20:15:00 22.7 C 66 % 16.02 C
3413 05-09-2018 20:20:00 22.6 C 66 % 15.93 C
3414 05-09-2018 20:25:00 22.6 C 66 % 15.93 C
3415 05-09-2018 20:30:00 22.6 C 65 % 15.69 C
3416 05-09-2018 20:35:00 22.7 C 65 % 15.78 C
3417 05-09-2018 20:40:00 22.7 C 64 % 15.54 C
3418 05-09-2018 20:45:00 22.9 C 64 % 15.73 C
3419 05-09-2018 20:50:00 23 C 64 % 15.82 C
3420 05-09-2018 20:55:00 23.1 C 65 % 16.16 C
3421 05-09-2018 21:00:00 22.9 C 64 % 15.73 C
3422 05-09-2018 21:05:00 22.8 C 65 % 15.88 C
3423 05-09-2018 21:10:00 22.7 C 65 % 15.78 C
3424 05-09-2018 21:15:00 22.5 C 66 % 15.83 C
3425 05-09-2018 21:20:00 22.3 C 66 % 15.64 C
Sensor: Nr:Datum:Temp:Feuchte:Taupunkt:
Aussen-T/F 3426 05-09-2018 21:25:00 22.1 C 66 % 15.45 C
3427 05-09-2018 21:30:00 21.9 C 67 % 15.5 C
3428 05-09-2018 21:35:00 21.7 C 68 % 15.54 C
3429 05-09-2018 21:40:00 21.5 C 68 % 15.35 C
3430 05-09-2018 21:45:00 21.3 C 69 % 15.38 C
3431 05-09-2018 21:50:00 21.1 C 69 % 15.19 C
3432 05-09-2018 21:55:00 21 C 70 % 15.32 C
3433 05-09-2018 22:00:00 20.8 C 71 % 15.35 C
3434 05-09-2018 22:05:00 20.7 C 71 % 15.25 C
3435 05-09-2018 22:10:00 20.6 C 71 % 15.16 C
3436 05-09-2018 22:15:00 20.5 C 71 % 15.06 C
3437 05-09-2018 22:20:00 20.4 C 72 % 15.18 C
3438 05-09-2018 22:25:00 20.3 C 72 % 15.09 C
3439 05-09-2018 22:30:00 20.2 C 72 % 14.99 C
3440 05-09-2018 22:35:00 20.1 C 73 % 15.11 C
3441 05-09-2018 22:40:00 19.9 C 73 % 14.92 C
3442 05-09-2018 22:45:00 19.7 C 74 % 14.94 C
3443 05-09-2018 22:50:00 19.5 C 75 % 14.95 C
3444 05-09-2018 22:55:00 19.3 C 75 % 14.76 C
3445 05-09-2018 23:00:00 19.1 C 76 % 14.77 C
3446 05-09-2018 23:05:00 18.8 C 77 % 14.68 C
3447 05-09-2018 23:10:00 18.7 C 78 % 14.79 C
3448 05-09-2018 23:15:00 18.6 C 78 % 14.69 C
3449 05-09-2018 23:20:00 18.4 C 79 % 14.69 C
3450 05-09-2018 23:25:00 18.3 C 79 % 14.6 C
Sensor: Nr:Datum:Temp:Feuchte:Taupunkt:
Aussen-T/F 3451 05-09-2018 23:30:00 18.2 C 79 % 14.5 C
3452 05-09-2018 23:35:00 18.2 C 80 % 14.69 C
3453 05-09-2018 23:40:00 18.1 C 80 % 14.6 C
3454 05-09-2018 23:45:00 17.9 C 80 % 14.4 C
3455 05-09-2018 23:50:00 17.9 C 81 % 14.59 C
3456 05-09-2018 23:55:00 17.8 C 81 % 14.5 C
3457 06-09-2018 00:00:00 17.7 C 82 % 14.59 C
3458 06-09-2018 00:05:00 17.7 C 82 % 14.59 C
3459 06-09-2018 00:10:00 17.6 C 82 % 14.49 C
3460 06-09-2018 00:15:00 17.5 C 83 % 14.58 C
3461 06-09-2018 00:20:00 17.4 C 83 % 14.48 C
3462 06-09-2018 00:25:00 17.3 C 83 % 14.39 C
3463 06-09-2018 00:30:00 17.2 C 84 % 14.47 C
3464 06-09-2018 00:35:00 17.1 C 84 % 14.38 C
3465 06-09-2018 00:40:00 17 C 84 % 14.28 C
3466 06-09-2018 00:45:00 16.9 C 84 % 14.18 C
3467 06-09-2018 00:50:00 16.8 C 85 % 14.26 C
3468 06-09-2018 00:55:00 16.8 C 85 % 14.26 C
3469 06-09-2018 01:00:00 16.7 C 85 % 14.17 C
3470 06-09-2018 01:05:00 16.7 C 86 % 14.35 C
3471 06-09-2018 01:10:00 16.6 C 86 % 14.25 C
3472 06-09-2018 01:15:00 16.5 C 86 % 14.15 C
3473 06-09-2018 01:20:00 16.4 C 87 % 14.23 C
3474 06-09-2018 01:25:00 16.4 C 87 % 14.23 C
3475 06-09-2018 01:30:00 16.3 C 87 % 14.13 C
Sensor: Nr:Datum:Temp:Feuchte:Taupunkt:
Aussen-T/F 3476 06-09-2018 01:35:00 16.3 C 87 % 14.13 C
3477 06-09-2018 01:40:00 16.2 C 87 % 14.03 C
3478 06-09-2018 01:45:00 16.2 C 88 % 14.21 C
3479 06-09-2018 01:50:00 16.2 C 88 % 14.21 C
3480 06-09-2018 01:55:00 16.2 C 88 % 14.21 C
3481 06-09-2018 02:00:00 16.1 C 88 % 14.11 C
3482 06-09-2018 02:05:00 16.1 C 88 % 14.11 C
3483 06-09-2018 02:10:00 15.9 C 88 % 13.92 C
3484 06-09-2018 02:15:00 15.9 C 88 % 13.92 C
3485 06-09-2018 02:20:00 15.8 C 89 % 13.99 C
3486 06-09-2018 02:25:00 15.8 C 89 % 13.99 C
3487 06-09-2018 02:30:00 15.8 C 89 % 13.99 C
3488 06-09-2018 02:35:00 15.8 C 90 % 14.16 C
3489 06-09-2018 02:40:00 15.8 C 90 % 14.16 C
3490 06-09-2018 02:45:00 15.8 C 90 % 14.16 C
3491 06-09-2018 02:50:00 15.7 C 89 % 13.89 C
3492 06-09-2018 02:55:00 15.6 C 89 % 13.79 C
3493 06-09-2018 03:00:00 15.6 C 90 % 13.97 C
3494 06-09-2018 03:05:00 15.5 C 90 % 13.87 C
3495 06-09-2018 03:10:00 15.4 C 90 % 13.77 C
3496 06-09-2018 03:15:00 15.4 C 90 % 13.77 C
3497 06-09-2018 03:20:00 15.4 C 91 % 13.94 C
3498 06-09-2018 03:25:00 15.4 C 91 % 13.94 C
3499 06-09-2018 03:30:00 15.3 C 91 % 13.84 C
3500 06-09-2018 03:35:00 15.3 C 91 % 13.84 C
Sensor: Nr:Datum:Temp:Feuchte:Taupunkt:
Aussen-T/F 3501 06-09-2018 03:40:00 15.2 C 91 % 13.74 C
3502 06-09-2018 03:45:00 15.2 C 91 % 13.74 C
3503 06-09-2018 03:50:00 15.2 C 91 % 13.74 C
3504 06-09-2018 03:55:00 15.2 C 92 % 13.91 C
3505 06-09-2018 04:00:00 15.2 C 92 % 13.91 C
3506 06-09-2018 04:05:00 15.2 C 92 % 13.91 C
3507 06-09-2018 04:10:00 15.2 C 92 % 13.91 C
3508 06-09-2018 04:15:00 15.4 C 93 % 14.27 C
3509 06-09-2018 04:20:00 15.7 C 93 % 14.57 C
3510 06-09-2018 04:25:00 15.8 C 93 % 14.67 C
3511 06-09-2018 04:30:00 15.8 C 93 % 14.67 C
3512 06-09-2018 04:35:00 15.8 C 92 % 14.5 C
3513 06-09-2018 04:40:00 15.8 C 92 % 14.5 C
3514 06-09-2018 04:45:00 15.8 C 92 % 14.5 C
3515 06-09-2018 04:50:00 15.7 C 92 % 14.4 C
3516 06-09-2018 04:55:00 15.7 C 92 % 14.4 C
3517 06-09-2018 05:00:00 15.6 C 92 % 14.31 C
3518 06-09-2018 05:05:00 15.5 C 92 % 14.21 C
3519 06-09-2018 05:10:00 15.4 C 92 % 14.11 C
3520 06-09-2018 05:15:00 15.3 C 92 % 14.01 C
3521 06-09-2018 05:20:00 15.3 C 92 % 14.01 C
3522 06-09-2018 05:25:00 15.2 C 92 % 13.91 C
3523 06-09-2018 05:30:00 15.3 C 92 % 14.01 C
3524 06-09-2018 05:35:00 15.2 C 93 % 14.08 C
3525 06-09-2018 05:40:00 15.2 C 93 % 14.08 C
Sensor: Nr:Datum:Temp:Feuchte:Taupunkt:
Aussen-T/F 3526 06-09-2018 05:45:00 15.2 C 92 % 13.91 C
3527 06-09-2018 05:50:00 15.1 C 92 % 13.81 C
3528 06-09-2018 05:55:00 15 C 92 % 13.71 C
3529 06-09-2018 06:00:00 15 C 92 % 13.71 C
3530 06-09-2018 06:05:00 15 C 93 % 13.88 C
3531 06-09-2018 06:10:00 15.1 C 93 % 13.98 C
3532 06-09-2018 06:15:00 15.2 C 93 % 14.08 C
3533 06-09-2018 06:20:00 15.3 C 94 % 14.34 C
3534 06-09-2018 06:25:00 15.3 C 94 % 14.34 C
3535 06-09-2018 06:30:00 15.4 C 94 % 14.44 C
3536 06-09-2018 06:35:00 15.4 C 94 % 14.44 C
3537 06-09-2018 06:40:00 15.4 C 93 % 14.27 C
3538 06-09-2018 06:45:00 15.5 C 94 % 14.54 C
3539 06-09-2018 06:50:00 15.5 C 94 % 14.54 C
3540 06-09-2018 06:55:00 15.6 C 94 % 14.64 C
3541 06-09-2018 07:00:00 15.6 C 94 % 14.64 C
3542 06-09-2018 07:05:00 15.7 C 94 % 14.74 C
3543 06-09-2018 07:10:00 15.7 C 94 % 14.74 C
3544 06-09-2018 07:15:00 15.8 C 94 % 14.84 C
3545 06-09-2018 07:20:00 15.9 C 94 % 14.94 C
3546 06-09-2018 07:25:00 16.1 C 94 % 15.13 C
3547 06-09-2018 07:30:00 16.1 C 94 % 15.13 C
3548 06-09-2018 07:35:00 16.1 C 94 % 15.13 C
3549 06-09-2018 07:40:00 16.2 C 94 % 15.23 C
3550 06-09-2018 07:45:00 16.2 C 94 % 15.23 C
Sensor: Nr:Datum:Temp:Feuchte:Taupunkt:
Aussen-T/F 3551 06-09-2018 07:50:00 16.2 C 94 % 15.23 C
3552 06-09-2018 07:55:00 16.2 C 94 % 15.23 C
3553 06-09-2018 08:00:00 16.3 C 94 % 15.33 C
3554 06-09-2018 08:05:00 16.3 C 94 % 15.33 C
3555 06-09-2018 08:10:00 16.5 C 95 % 15.7 C
3556 06-09-2018 08:15:00 16.6 C 94 % 15.63 C
3557 06-09-2018 08:20:00 16.7 C 95 % 15.9 C
3558 06-09-2018 08:25:00 16.8 C 95 % 15.99 C
3559 06-09-2018 08:30:00 16.9 C 95 % 16.09 C
3560 06-09-2018 08:35:00 17.1 C 95 % 16.29 C
3561 06-09-2018 08:40:00 17.2 C 95 % 16.39 C
3562 06-09-2018 08:45:00 17.2 C 95 % 16.39 C
3563 06-09-2018 08:50:00 17.3 C 95 % 16.49 C
3564 06-09-2018 08:55:00 17.4 C 95 % 16.59 C
3565 06-09-2018 09:00:00 17.5 C 95 % 16.69 C
3566 06-09-2018 09:05:00 17.6 C 95 % 16.79 C
3567 06-09-2018 09:10:00 17.6 C 95 % 16.79 C
3568 06-09-2018 09:15:00 17.7 C 95 % 16.89 C
3569 06-09-2018 09:20:00 17.8 C 95 % 16.99 C
3570 06-09-2018 09:25:00 17.9 C 95 % 17.09 C
3571 06-09-2018 09:30:00 17.9 C 95 % 17.09 C
3572 06-09-2018 09:35:00 18 C 94 % 17.02 C
3573 06-09-2018 09:40:00 18.1 C 94 % 17.12 C
3574 06-09-2018 09:45:00 18.2 C 94 % 17.22 C
3575 06-09-2018 09:50:00 18.3 C 94 % 17.32 C
Sensor: Nr:Datum:Temp:Feuchte:Taupunkt:
Aussen-T/F 3576 06-09-2018 09:55:00 18.4 C 94 % 17.42 C
3577 06-09-2018 10:00:00 18.4 C 93 % 17.25 C
3578 06-09-2018 10:05:00 18.4 C 93 % 17.25 C
3579 06-09-2018 10:10:00 18.6 C 93 % 17.45 C
3580 06-09-2018 10:15:00 18.5 C 91 % 17 C
3581 06-09-2018 10:20:00 18.6 C 90 % 16.93 C
3582 06-09-2018 10:25:00 18.7 C 90 % 17.03 C
3583 06-09-2018 10:30:00 18.8 C 90 % 17.12 C
3584 06-09-2018 10:35:00 18.9 C 88 % 16.87 C
3585 06-09-2018 10:40:00 19 C 87 % 16.79 C
3586 06-09-2018 10:45:00 19.1 C 87 % 16.89 C
3587 06-09-2018 10:50:00 19.2 C 87 % 16.98 C
3588 06-09-2018 10:55:00 19.3 C 86 % 16.9 C
3589 06-09-2018 11:00:00 19.4 C 85 % 16.81 C
3590 06-09-2018 11:05:00 19.6 C 84 % 16.82 C
3591 06-09-2018 11:10:00 19.7 C 83 % 16.73 C
3592 06-09-2018 11:15:00 19.8 C 84 % 17.02 C
3593 06-09-2018 11:20:00 19.9 C 83 % 16.93 C
3594 06-09-2018 11:25:00 19.9 C 82 % 16.74 C
3595 06-09-2018 11:30:00 19.9 C 82 % 16.74 C
3596 06-09-2018 11:35:00 20 C 82 % 16.83 C
3597 06-09-2018 11:40:00 20.1 C 82 % 16.93 C
3598 06-09-2018 11:45:00 20.3 C 82 % 17.13 C
3599 06-09-2018 11:50:00 20.4 C 83 % 17.42 C
3600 06-09-2018 11:55:00 20.7 C 81 % 17.32 C
Sensor: Nr:Datum:Temp:Feuchte:Taupunkt:
Aussen-T/F 3601 06-09-2018 12:00:00 20.8 C 80 % 17.22 C
3602 06-09-2018 12:05:00 20.8 C 80 % 17.22 C
3603 06-09-2018 12:10:00 20.8 C 79 % 17.02 C
3604 06-09-2018 12:15:00 20.7 C 79 % 16.93 C
3605 06-09-2018 12:20:00 20.6 C 80 % 17.03 C
3606 06-09-2018 12:25:00 20.6 C 82 % 17.42 C
3607 06-09-2018 12:30:00 20.4 C 82 % 17.22 C
3608 06-09-2018 12:35:00 20.4 C 83 % 17.42 C
3609 06-09-2018 12:40:00 20.6 C 84 % 17.8 C
3610 06-09-2018 12:45:00 20.6 C 83 % 17.61 C
3611 06-09-2018 12:50:00 20.6 C 83 % 17.61 C
3612 06-09-2018 12:55:00 20.7 C 84 % 17.9 C
3613 06-09-2018 13:00:00 20.8 C 82 % 17.61 C
3614 06-09-2018 13:05:00 20.8 C 81 % 17.42 C
3615 06-09-2018 13:10:00 20.9 C 81 % 17.52 C
3616 06-09-2018 13:15:00 20.8 C 82 % 17.61 C
3617 06-09-2018 13:20:00 20.8 C 82 % 17.61 C
3618 06-09-2018 13:25:00 20.8 C 82 % 17.61 C
3619 06-09-2018 13:30:00 20.8 C 81 % 17.42 C
3620 06-09-2018 13:35:00 20.8 C 82 % 17.61 C
3621 06-09-2018 13:40:00 20.8 C 82 % 17.61 C
3622 06-09-2018 13:45:00 20.7 C 82 % 17.52 C
3623 06-09-2018 13:50:00 20.7 C 82 % 17.52 C
3624 06-09-2018 13:55:00 20.8 C 81 % 17.42 C
3625 06-09-2018 14:00:00 20.9 C 81 % 17.52 C
Sensor: Nr:Datum:Temp:Feuchte:Taupunkt:
Aussen-T/F 3626 06-09-2018 14:05:00 21.1 C 80 % 17.51 C
3627 06-09-2018 14:10:00 21.1 C 80 % 17.51 C
3628 06-09-2018 14:15:00 21.1 C 80 % 17.51 C
3629 06-09-2018 14:20:00 21.2 C 79 % 17.41 C
3630 06-09-2018 14:25:00 21.2 C 79 % 17.41 C
3631 06-09-2018 14:30:00 21.3 C 77 % 17.1 C
3632 06-09-2018 14:35:00 21.5 C 77 % 17.3 C
3633 06-09-2018 14:40:00 21.6 C 76 % 17.19 C
3634 06-09-2018 14:45:00 21.7 C 76 % 17.28 C
3635 06-09-2018 14:50:00 21.7 C 75 % 17.07 C
3636 06-09-2018 14:55:00 21.8 C 75 % 17.17 C
3637 06-09-2018 15:00:00 21.8 C 75 % 17.17 C
3638 06-09-2018 15:05:00 21.8 C 75 % 17.17 C
3639 06-09-2018 15:10:00 21.8 C 76 % 17.38 C
3640 06-09-2018 15:15:00 21.8 C 75 % 17.17 C
3641 06-09-2018 15:20:00 21.7 C 76 % 17.28 C
3642 06-09-2018 15:25:00 21.6 C 76 % 17.19 C
3643 06-09-2018 15:30:00 21.5 C 76 % 17.09 C
3644 06-09-2018 15:35:00 21.4 C 77 % 17.2 C
3645 06-09-2018 15:40:00 21.4 C 77 % 17.2 C
3646 06-09-2018 15:45:00 21.3 C 76 % 16.9 C
3647 06-09-2018 15:50:00 21.3 C 77 % 17.1 C
3648 06-09-2018 15:55:00 21.2 C 76 % 16.8 C
3649 06-09-2018 16:00:00 21.2 C 77 % 17.01 C
3650 06-09-2018 16:05:00 21.1 C 77 % 16.91 C
Sensor: Nr:Datum:Temp:Feuchte:Taupunkt:
Aussen-T/F 3651 06-09-2018 16:10:00 21.1 C 77 % 16.91 C
3652 06-09-2018 16:15:00 21.1 C 78 % 17.11 C
3653 06-09-2018 16:20:00 21.1 C 77 % 16.91 C
3654 06-09-2018 16:25:00 21.1 C 76 % 16.7 C
3655 06-09-2018 16:30:00 21.1 C 76 % 16.7 C
3656 06-09-2018 16:35:00 21.2 C 76 % 16.8 C
3657 06-09-2018 16:40:00 21.2 C 77 % 17.01 C
3658 06-09-2018 16:45:00 21.3 C 78 % 17.31 C
3659 06-09-2018 16:50:00 21.3 C 78 % 17.31 C
3660 06-09-2018 16:55:00 21.3 C 78 % 17.31 C
3661 06-09-2018 17:00:00 21.3 C 76 % 16.9 C
3662 06-09-2018 17:05:00 21.3 C 76 % 16.9 C
3663 06-09-2018 17:10:00 21.3 C 77 % 17.1 C
3664 06-09-2018 17:15:00 21.3 C 77 % 17.1 C
3665 06-09-2018 17:20:00 21.3 C 77 % 17.1 C
3666 06-09-2018 17:25:00 21.3 C 77 % 17.1 C
3667 06-09-2018 17:30:00 21.3 C 76 % 16.9 C
3668 06-09-2018 17:35:00 21.3 C 76 % 16.9 C
3669 06-09-2018 17:40:00 21.2 C 76 % 16.8 C
3670 06-09-2018 17:45:00 21.2 C 77 % 17.01 C
3671 06-09-2018 17:50:00 21.1 C 79 % 17.32 C
3672 06-09-2018 17:55:00 20.9 C 80 % 17.32 C
3673 06-09-2018 18:00:00 20.8 C 81 % 17.42 C
3674 06-09-2018 18:05:00 20.6 C 81 % 17.22 C
3675 06-09-2018 18:10:00 20.4 C 82 % 17.22 C
Sensor: Nr:Datum:Temp:Feuchte:Taupunkt:
Aussen-T/F 3676 06-09-2018 18:15:00 20.3 C 82 % 17.13 C
3677 06-09-2018 18:20:00 20.2 C 83 % 17.22 C
3678 06-09-2018 18:25:00 20.1 C 84 % 17.31 C
3679 06-09-2018 18:30:00 20 C 85 % 17.4 C
3680 06-09-2018 18:35:00 19.8 C 86 % 17.39 C
3681 06-09-2018 18:40:00 19.6 C 86 % 17.19 C
3682 06-09-2018 18:45:00 19.4 C 87 % 17.18 C
3683 06-09-2018 18:50:00 19.2 C 88 % 17.16 C
3684 06-09-2018 18:55:00 19.1 C 88 % 17.07 C
3685 06-09-2018 19:00:00 18.9 C 89 % 17.05 C
3686 06-09-2018 19:05:00 18.8 C 90 % 17.12 C
3687 06-09-2018 19:10:00 18.7 C 90 % 17.03 C
3688 06-09-2018 19:15:00 18.7 C 91 % 17.2 C
3689 06-09-2018 19:20:00 18.7 C 91 % 17.2 C
3690 06-09-2018 19:25:00 18.6 C 91 % 17.1 C
3691 06-09-2018 19:30:00 18.5 C 91 % 17 C
3692 06-09-2018 19:35:00 18.4 C 91 % 16.9 C
3693 06-09-2018 19:40:00 18.4 C 92 % 17.08 C
3694 06-09-2018 19:45:00 18.3 C 92 % 16.98 C
3695 06-09-2018 19:50:00 18.3 C 92 % 16.98 C
3696 06-09-2018 19:55:00 18.3 C 92 % 16.98 C
3697 06-09-2018 20:00:00 18.2 C 92 % 16.88 C
3698 06-09-2018 20:05:00 18.1 C 92 % 16.78 C
3699 06-09-2018 20:10:00 18.1 C 92 % 16.78 C
3700 06-09-2018 20:15:00 18.1 C 92 % 16.78 C
Sensor: Nr:Datum:Temp:Feuchte:Taupunkt:
Aussen-T/F 3701 06-09-2018 20:20:00 18 C 92 % 16.68 C
3702 06-09-2018 20:25:00 17.9 C 92 % 16.58 C
3703 06-09-2018 20:30:00 17.9 C 93 % 16.75 C
3704 06-09-2018 20:35:00 17.8 C 93 % 16.65 C
3705 06-09-2018 20:40:00 17.8 C 93 % 16.65 C
3706 06-09-2018 20:45:00 17.8 C 93 % 16.65 C
3707 06-09-2018 20:50:00 17.7 C 93 % 16.55 C
3708 06-09-2018 20:55:00 17.7 C 93 % 16.55 C
3709 06-09-2018 21:00:00 17.7 C 94 % 16.72 C
3710 06-09-2018 21:05:00 17.7 C 93 % 16.55 C
3711 06-09-2018 21:10:00 17.6 C 93 % 16.45 C
3712 06-09-2018 21:15:00 17.6 C 94 % 16.62 C
3713 06-09-2018 21:20:00 17.5 C 94 % 16.52 C
3714 06-09-2018 21:25:00 17.4 C 94 % 16.42 C
3715 06-09-2018 21:30:00 17.3 C 93 % 16.16 C
3716 06-09-2018 21:35:00 17.2 C 93 % 16.06 C
3717 06-09-2018 21:40:00 17.2 C 94 % 16.23 C
3718 06-09-2018 21:45:00 17.1 C 94 % 16.13 C
3719 06-09-2018 21:50:00 17.1 C 94 % 16.13 C
3720 06-09-2018 21:55:00 17 C 94 % 16.03 C
3721 06-09-2018 22:00:00 16.9 C 94 % 15.93 C
3722 06-09-2018 22:05:00 16.9 C 94 % 15.93 C
3723 06-09-2018 22:10:00 16.8 C 94 % 15.83 C
3724 06-09-2018 22:15:00 16.8 C 94 % 15.83 C
3725 06-09-2018 22:20:00 16.7 C 94 % 15.73 C
Sensor: Nr:Datum:Temp:Feuchte:Taupunkt:
Aussen-T/F 3726 06-09-2018 22:25:00 16.6 C 94 % 15.63 C
3727 06-09-2018 22:30:00 16.6 C 94 % 15.63 C
3728 06-09-2018 22:35:00 16.4 C 94 % 15.43 C
3729 06-09-2018 22:40:00 16.3 C 94 % 15.33 C
3730 06-09-2018 22:45:00 16.3 C 94 % 15.33 C
3731 06-09-2018 22:50:00 16.2 C 94 % 15.23 C
3732 06-09-2018 22:55:00 16.2 C 94 % 15.23 C
3733 06-09-2018 23:00:00 16.1 C 94 % 15.13 C
3734 06-09-2018 23:05:00 16.1 C 94 % 15.13 C
3735 06-09-2018 23:10:00 16 C 94 % 15.03 C
3736 06-09-2018 23:15:00 15.9 C 94 % 14.94 C
3737 06-09-2018 23:20:00 15.9 C 94 % 14.94 C
3738 06-09-2018 23:25:00 15.9 C 94 % 14.94 C
3739 06-09-2018 23:30:00 16 C 95 % 15.2 C
3740 06-09-2018 23:35:00 16.1 C 95 % 15.3 C
3741 06-09-2018 23:40:00 16.1 C 95 % 15.3 C
3742 06-09-2018 23:45:00 16.2 C 95 % 15.4 C
3743 06-09-2018 23:50:00 16.2 C 95 % 15.4 C
3744 06-09-2018 23:55:00 16.3 C 95 % 15.5 C
3745 07-09-2018 00:00:00 16.3 C 95 % 15.5 C
3746 07-09-2018 00:05:00 16.3 C 95 % 15.5 C
3747 07-09-2018 00:10:00 16.3 C 95 % 15.5 C
3748 07-09-2018 00:15:00 16.2 C 95 % 15.4 C
3749 07-09-2018 00:20:00 16.2 C 95 % 15.4 C
3750 07-09-2018 00:25:00 16.2 C 95 % 15.4 C
Sensor: Nr:Datum:Temp:Feuchte:Taupunkt:
Aussen-T/F 3751 07-09-2018 00:30:00 16.2 C 95 % 15.4 C
3752 07-09-2018 00:35:00 16.1 C 95 % 15.3 C
3753 07-09-2018 00:40:00 16.1 C 95 % 15.3 C
3754 07-09-2018 00:45:00 16.1 C 95 % 15.3 C
3755 07-09-2018 00:50:00 16.1 C 95 % 15.3 C
3756 07-09-2018 00:55:00 16.2 C 95 % 15.4 C
3757 07-09-2018 01:00:00 16.1 C 95 % 15.3 C
3758 07-09-2018 01:05:00 16.1 C 95 % 15.3 C
3759 07-09-2018 01:10:00 16.1 C 95 % 15.3 C
3760 07-09-2018 01:15:00 16.1 C 95 % 15.3 C
3761 07-09-2018 01:20:00 16.2 C 95 % 15.4 C
3762 07-09-2018 01:25:00 16.2 C 95 % 15.4 C
3763 07-09-2018 01:30:00 16.2 C 95 % 15.4 C
3764 07-09-2018 01:35:00 16.1 C 95 % 15.3 C
3765 07-09-2018 01:40:00 15.9 C 95 % 15.1 C
3766 07-09-2018 01:45:00 15.8 C 95 % 15 C
3767 07-09-2018 01:50:00 15.7 C 95 % 14.9 C
3768 07-09-2018 01:55:00 15.6 C 95 % 14.8 C
3769 07-09-2018 02:00:00 15.5 C 95 % 14.7 C
3770 07-09-2018 02:05:00 15.4 C 95 % 14.6 C
3771 07-09-2018 02:10:00 15.4 C 95 % 14.6 C
3772 07-09-2018 02:15:00 15.4 C 95 % 14.6 C
3773 07-09-2018 02:20:00 15.4 C 95 % 14.6 C
3774 07-09-2018 02:25:00 15.4 C 95 % 14.6 C
3775 07-09-2018 02:30:00 15.4 C 95 % 14.6 C
Sensor: Nr:Datum:Temp:Feuchte:Taupunkt:
Aussen-T/F 3776 07-09-2018 02:35:00 15.4 C 95 % 14.6 C
3777 07-09-2018 02:40:00 15.4 C 95 % 14.6 C
3778 07-09-2018 02:45:00 15.4 C 95 % 14.6 C
3779 07-09-2018 02:50:00 15.4 C 95 % 14.6 C
3780 07-09-2018 02:55:00 15.4 C 95 % 14.6 C
3781 07-09-2018 03:00:00 15.4 C 95 % 14.6 C
3782 07-09-2018 03:05:00 15.4 C 95 % 14.6 C
3783 07-09-2018 03:10:00 15.4 C 95 % 14.6 C
3784 07-09-2018 03:15:00 15.4 C 95 % 14.6 C
3785 07-09-2018 03:20:00 15.4 C 95 % 14.6 C
3786 07-09-2018 03:25:00 15.4 C 95 % 14.6 C
3787 07-09-2018 03:30:00 15.4 C 96 % 14.77 C
3788 07-09-2018 03:35:00 15.4 C 96 % 14.77 C
3789 07-09-2018 03:40:00 15.4 C 95 % 14.6 C
3790 07-09-2018 03:45:00 15.4 C 95 % 14.6 C
3791 07-09-2018 03:50:00 15.4 C 95 % 14.6 C
3792 07-09-2018 03:55:00 15.3 C 95 % 14.5 C
3793 07-09-2018 04:00:00 15.3 C 95 % 14.5 C
3794 07-09-2018 04:05:00 15.3 C 95 % 14.5 C
3795 07-09-2018 04:10:00 15.3 C 95 % 14.5 C
3796 07-09-2018 04:15:00 15.3 C 95 % 14.5 C
3797 07-09-2018 04:20:00 15.3 C 95 % 14.5 C
3798 07-09-2018 04:25:00 15.2 C 95 % 14.4 C
3799 07-09-2018 04:30:00 15.2 C 95 % 14.4 C
3800 07-09-2018 04:35:00 15.2 C 95 % 14.4 C
Sensor: Nr:Datum:Temp:Feuchte:Taupunkt:
Aussen-T/F 3801 07-09-2018 04:40:00 15.3 C 95 % 14.5 C
3802 07-09-2018 04:45:00 15.3 C 95 % 14.5 C
3803 07-09-2018 04:50:00 15.3 C 95 % 14.5 C
3804 07-09-2018 04:55:00 15.3 C 95 % 14.5 C
3805 07-09-2018 05:00:00 15.3 C 95 % 14.5 C
3806 07-09-2018 05:05:00 15.3 C 95 % 14.5 C
3807 07-09-2018 05:10:00 15.3 C 95 % 14.5 C
3808 07-09-2018 05:15:00 15.3 C 95 % 14.5 C
3809 07-09-2018 05:20:00 15.3 C 95 % 14.5 C
3810 07-09-2018 05:25:00 15.3 C 95 % 14.5 C
3811 07-09-2018 05:30:00 15.3 C 95 % 14.5 C
3812 07-09-2018 05:35:00 15.3 C 95 % 14.5 C
3813 07-09-2018 05:40:00 15.3 C 95 % 14.5 C
3814 07-09-2018 05:45:00 15.3 C 95 % 14.5 C
3815 07-09-2018 05:50:00 15.2 C 95 % 14.4 C
3816 07-09-2018 05:55:00 14.9 C 95 % 14.11 C
3817 07-09-2018 06:00:00 14.7 C 94 % 13.74 C
3818 07-09-2018 06:05:00 14.6 C 94 % 13.65 C
3819 07-09-2018 06:10:00 14.4 C 94 % 13.45 C
3820 07-09-2018 06:15:00 14.3 C 95 % 13.51 C
3821 07-09-2018 06:20:00 14.2 C 95 % 13.41 C
3822 07-09-2018 06:25:00 14.1 C 94 % 13.15 C
3823 07-09-2018 06:30:00 13.9 C 94 % 12.95 C
3824 07-09-2018 06:35:00 13.8 C 94 % 12.85 C
3825 07-09-2018 06:40:00 13.7 C 94 % 12.75 C
Sensor: Nr:Datum:Temp:Feuchte:Taupunkt:
Aussen-T/F 3826 07-09-2018 06:45:00 13.7 C 95 % 12.91 C
3827 07-09-2018 06:50:00 13.7 C 95 % 12.91 C
3828 07-09-2018 06:55:00 13.7 C 95 % 12.91 C
3829 07-09-2018 07:00:00 13.7 C 95 % 12.91 C
3830 07-09-2018 07:05:00 13.7 C 95 % 12.91 C
3831 07-09-2018 07:10:00 13.7 C 95 % 12.91 C
3832 07-09-2018 07:15:00 13.7 C 95 % 12.91 C
3833 07-09-2018 07:20:00 13.8 C 95 % 13.01 C
3834 07-09-2018 07:25:00 13.8 C 95 % 13.01 C
3835 07-09-2018 07:30:00 13.8 C 95 % 13.01 C
3836 07-09-2018 07:35:00 13.9 C 95 % 13.11 C
3837 07-09-2018 07:40:00 13.9 C 96 % 13.27 C
3838 07-09-2018 07:45:00 14.1 C 96 % 13.47 C
3839 07-09-2018 07:50:00 14.2 C 96 % 13.57 C
3840 07-09-2018 07:55:00 14.2 C 96 % 13.57 C
3841 07-09-2018 08:00:00 14.3 C 96 % 13.67 C
3842 07-09-2018 08:05:00 14.4 C 96 % 13.77 C
3843 07-09-2018 08:10:00 14.5 C 96 % 13.87 C
3844 07-09-2018 08:15:00 14.6 C 96 % 13.97 C
3845 07-09-2018 08:20:00 14.7 C 96 % 14.07 C
3846 07-09-2018 08:25:00 14.8 C 96 % 14.17 C
3847 07-09-2018 08:30:00 14.8 C 96 % 14.17 C
3848 07-09-2018 08:35:00 14.8 C 96 % 14.17 C
3849 07-09-2018 08:40:00 14.9 C 96 % 14.27 C
3850 07-09-2018 08:45:00 14.9 C 96 % 14.27 C
Sensor: Nr:Datum:Temp:Feuchte:Taupunkt:
Aussen-T/F 3851 07-09-2018 08:50:00 15 C 96 % 14.37 C
3852 07-09-2018 08:55:00 15.1 C 96 % 14.47 C
3853 07-09-2018 09:00:00 15.1 C 96 % 14.47 C
3854 07-09-2018 09:05:00 15.1 C 96 % 14.47 C
3855 07-09-2018 09:10:00 15.2 C 96 % 14.57 C
3856 07-09-2018 09:15:00 15.2 C 96 % 14.57 C
3857 07-09-2018 09:20:00 15.2 C 96 % 14.57 C
3858 07-09-2018 09:25:00 15.3 C 96 % 14.67 C
3859 07-09-2018 09:30:00 15.3 C 96 % 14.67 C
3860 07-09-2018 09:35:00 15.5 C 96 % 14.86 C
3861 07-09-2018 09:40:00 15.7 C 96 % 15.06 C
3862 07-09-2018 09:45:00 15.8 C 96 % 15.16 C
3863 07-09-2018 09:50:00 16 C 96 % 15.36 C
3864 07-09-2018 09:55:00 16.2 C 96 % 15.56 C
3865 07-09-2018 10:00:00 16.2 C 94 % 15.23 C
3866 07-09-2018 10:05:00 16.3 C 93 % 15.17 C
3867 07-09-2018 10:10:00 16.4 C 92 % 15.1 C
3868 07-09-2018 10:15:00 16.7 C 90 % 15.05 C
3869 07-09-2018 10:20:00 16.8 C 89 % 14.98 C
3870 07-09-2018 10:25:00 17 C 87 % 14.82 C
3871 07-09-2018 10:30:00 17.2 C 85 % 14.66 C
3872 07-09-2018 10:35:00 17.3 C 84 % 14.57 C
3873 07-09-2018 10:40:00 17.4 C 83 % 14.48 C
3874 07-09-2018 10:45:00 17.6 C 82 % 14.49 C
3875 07-09-2018 10:50:00 17.8 C 82 % 14.69 C
Sensor: Nr:Datum:Temp:Feuchte:Taupunkt:
Aussen-T/F 3876 07-09-2018 10:55:00 17.9 C 80 % 14.4 C
3877 07-09-2018 11:00:00 18.1 C 79 % 14.4 C
3878 07-09-2018 11:05:00 18.1 C 76 % 13.81 C
3879 07-09-2018 11:10:00 18.1 C 77 % 14.01 C
3880 07-09-2018 11:15:00 18.1 C 75 % 13.6 C
3881 07-09-2018 11:20:00 18.2 C 75 % 13.7 C
3882 07-09-2018 11:25:00 18.3 C 74 %